     2              OBSERVATION DATA    GPS                 RINEX VERSION / TYPE
teqc 1999Jul19 19991123 03:09:28UTC                         PGM / RUN BY / DATE
                                                            COMMENT
Original Marker Name: 0910                                  COMMENT
Campaign Name: HPGN 1991                                    COMMENT
4-Character Station Name: 0910                              COMMENT
6-Character Antenna Code: TRMSST                            COMMENT
Vertical Measurement Point: BPA                             COMMENT
Vertical Offset to Rinex Ref. Point: 0.0000                 COMMENT
Radial Measurement Point: RRP                               COMMENT
Radial Offset to Rinex Ref. Point: 0.0000                   COMMENT
Antenna Height from Field Measurement: 2.2200 m             COMMENT
                                                            COMMENT
Original XYZ: -2416150.1004 -4508985.9325 3798657.5169      COMMENT
New XYZ position is based on association with SCEC monument COMMENT
E1F7L9H6+0011. Position of that monument is believed to be  COMMENT
valid to within 1 m horizontally; vertical accuracy         COMMENT
should be no worse than 3-times this value.                 COMMENT
                                                            COMMENT
Revised Rinex header created by UCSD GPS archive for        COMMENT
GSAC on 10-Mar-2000 (2000:070) 17:21:50 GMT                 COMMENT
For assistance contact dagnew@ucsd.edu or hjohnson@ucsd.edu COMMENT
                                                            COMMENT
INDEPENDENCE N BASE2                                        MARKER NAME
0910                                                        MARKER NUMBER
-Unknown- CALIF DEPT TRANSPORTATION                         OBSERVER / AGENCY
457 TRIMBLE 4000 SST NP 4.30 / SP 4.20                      REC # / TYPE / VERS
140 TR 4000SST L1/L2 GEO                                    ANT # / TYPE
 -2416152.4838 -4508989.6757  3798651.5643                  APPROX POSITION XYZ
        2.2200        0.0000        0.0000                  ANTENNA: DELTA H/E/N
     1     1     0                                          WAVELENGTH FACT L1/2
     5    C1    L1    L2    S1    S2                        # / TYPES OF OBSERV
     0                                                      INTERVAL
  1991     6     6    16    46   15.000000                  TIME OF FIRST OBS
  1991     6     6    22    47   60.000000                  TIME OF LAST OBS
                                                            END OF HEADER
 91  6  6 16 46 15.0000000  0  3G18G 2G11
  20661752.484          -0.62417        -0.08133        27.750           2.750
  24353403.188          -0.65415        -0.36431         9.500           0.375
  24146580.289          -0.41216        -0.09031        13.250           0.563
 91  6  6 16 46 30.0000000  0  3G18G 2G11
  20663842.852       10986.682 7      8561.42523        27.750           2.781
  24343026.117      -54529.440 5    -42490.20121         9.500           0.500
  24138601.805      -41929.457 6    -32671.97621        12.750           0.625
 91  6  6 16 46 45.0000000  0  3G18G 2G11
  20665934.164       21974.888 8     17123.63523        28.000           2.844
  24332633.141     -109134.874 5    -85039.77821        10.250           0.531
  24130615.813      -83892.549 6    -65370.40921        12.750           0.656
 91  6  6 16 47  0.0000000  0  3G18G 2G11
  20668023.664       32953.002 7     25677.98523        27.750           2.875
  24322226.211     -163827.551 5   -127657.34721        10.500           0.500
  24122623.117     -125900.206 6    -98103.56121        13.250           0.625
 91  6  6 16 47 15.0000000  0  3G18G 2G11
  20670109.414       43915.687 7     34220.31123        27.750           2.781
  24311802.219     -218612.534 5   -170346.83321        10.750           0.469
  24114619.336     -167957.394 6   -130875.31621        13.500           0.625
 91  6  6 16 47 30.0000000  0  3G18G 2G11
  20672193.227       54865.564 7     42752.65023        27.750           2.906
  24301358.117     -273487.051 5   -213106.08521        10.750           0.531
  24106608.391     -210061.000 6   -163683.25621        13.000           0.625
 91  6  6 16 47 45.0000000  0  3G18G 2G11
  20674273.484       65797.465 7     51270.98723        27.750           2.938
  24290898.008     -328456.167 5   -255939.05321        10.500           0.563
  24098586.117     -252215.832 6   -196531.08921        13.000           0.688
 91  6  6 16 48  0.0000000  0  3G18G 2G11
  20676350.852       76714.322 7     59777.60223        27.500           2.875
  24280419.820     -383516.874 5   -298843.37921        10.750           0.406
  24090554.359     -294418.632 6   -229416.32021        12.500           0.563
 91  6  6 16 48 15.0000000  0  3G18G 2G11
  20678425.508       87616.965 7     68273.14423        27.250           2.906
  24269925.031     -438668.068 5   -341818.24121        11.500           0.406
  24082515.273     -336668.258 6   -262338.02821        13.250           0.594
 91  6  6 16 48 30.0000000  0  3G18G 2G11
  20680497.141       98505.017 7     76757.31123        27.250           2.906
  24259413.227     -493909.945 5   -384863.76721        11.500           0.375
  24074467.219     -378964.506 6   -295296.07621        13.250           0.563
 91  6  6 16 48 45.0000000  0  3G18G 2G11
  20682554.945      109316.861 7     85182.09523        27.500           2.938
  24248872.406     -549304.032 5   -428027.90521        11.000           0.250
  24066396.023     -421368.694 6   -328338.23821        12.750           0.594
 91  6  6 16 49  0.0000000  0  3G18G 2G11
  20684604.469      120087.355 7     93574.65723        27.250           3.000
  24238311.328     -604814.933 5   -471283.06121        11.500           0.344
  24058312.852     -463845.281 6   -361436.81521        12.750           0.531
 91  6  6 16 49 15.0000000  0  3G18G 2G11
  20686650.727      130837.144 7    101951.08623        27.500           2.969
  24227726.922     -660422.015 5   -514613.15621        11.250           0.281
  24050219.727     -506373.349 6   -394575.49721        12.750           0.594
 91  6  6 16 49 30.0000000  0  3G18G 2G11
  20688690.609      141560.026 7    110306.54823        27.500           2.875
  24217126.961     -716131.310 5   -558022.92121        10.750           0.250
  24042116.602     -548958.636 6   -427758.76221        13.000           0.625
 91  6  6 16 49 45.0000000  0  3G18G 2G11
  20690725.906      152254.068 8    118639.54223        28.000           3.000
  24206504.664     -771944.323 5   -601513.47021        10.500           0.438
  24034002.477     -591602.561 6   -460987.73021        13.500           0.500
 91  6  6 16 50  0.0000000  0  3G18G 2G11
  20692755.820      162921.046 7    126951.44423        27.500           3.063
  24195864.563     -827859.034 5   -645083.27021        10.250           0.531
  24025876.141     -634302.935 6   -494260.68921        13.750           0.594
 91  6  6 16 50 15.0000000  0  3G18G 2G11
  20694780.938      173562.005 7    135243.07423        27.500           3.125
  24185204.891     -883874.730 5   -688731.75621        10.250           0.375
  24017739.828     -677058.837 6   -527576.91221        14.000           0.625
 91  6  6 16 50 30.0000000  0  3G18G 2G11
  20696800.461      184177.950 7    143515.20323        27.250           3.031
  24174525.750     -939989.735 5   -732457.63021         9.750           0.563
  24009594.289     -719868.204 6   -560934.78321        14.750           0.469
 91  6  6 16 50 45.0000000  0  3G18G 2G11
  20698817.461      194774.517 7    151772.23723        27.500           3.031
  24163831.125     -996198.108 5   -776256.24821        10.250           0.563
  24001439.258     -762725.251 6   -594329.83621        15.000           0.469
 91  6  6 16 51  0.0000000  0  3G18G 2G11
  20700824.609      205323.220 7    159991.97223        27.000           3.000
  24153112.953    -1052528.398 5   -820149.89021        10.250           0.500
  23993268.367     -805658.133 6   -627783.96621        14.500           0.531
 91  6  6 16 51 15.0000000  0  3G18G 2G11
  20702831.359      215867.855 7    168208.54023        27.250           3.063
  24142375.930    -1108936.472 5   -864104.12821        10.250           0.625
  23985092.945     -848622.390 6   -661262.55521        14.250           0.656
 91  6  6 16 51 30.0000000  0  3G18G 2G11
  20704837.078      226407.444 7    176421.17623        27.500           3.031
  24131628.508    -1165423.303 5   -908119.73321        10.500           0.625
  23976909.047     -891618.825 6   -694766.19621        14.000           0.625
 91  6  6 16 51 45.0000000  0  3G18G 2G11
  20706841.930      236945.686 7    184632.76923        27.250           3.063
  24120865.359    -1221984.771 5   -952193.49721        11.250           0.656
  23968723.641     -934643.237 6   -728291.64921        14.500           0.531
 91  6  6 16 52  0.0000000  0  3G18G 2G11
  20708849.219      247491.640 7    192850.37123        27.250           3.063
  24110089.773    -1278611.803 5   -996318.35121        11.500           0.781
  23960533.227     -977686.225 6   -761831.57921        14.750           0.563
 91  6  6 16 52 15.0000000  0  3G18G 2G11
  20710857.406      258044.399 7    201073.27123        27.250           3.063
  24099300.008    -1335304.904 5  -1040494.68921        11.750           0.719
  23952337.875    -1020748.065 6   -795386.20021        14.750           0.563
 91  6  6 16 52 30.0000000  0  3G18G 2G11
  20712867.820      268609.748 7    209305.97823        27.250           3.031
  24088502.758    -1392058.146 6  -1084717.88221        12.500           0.750
  23944142.375    -1063822.645 6   -828950.75221        14.250           0.531
 91  6  6 16 52 45.0000000  0  3G18G 2G11
  20714880.555      279186.570 7    217547.62123        27.250           3.125
  24077689.469    -1448872.533 6  -1128988.73021        12.750           0.719
  23935942.500    -1106910.684 6   -862525.78121        14.250           0.625
 91  6  6 16 53  0.0000000  0  3G18G 2G11
  20716900.695      289799.382 7    225817.31023        27.250           3.000
  24066869.914    -1505723.329 6  -1173287.95021        12.250           0.688
  23927743.773    -1149987.260 6   -896091.88421        13.750           0.688
 91  6  6 16 53 15.0000000  0  3G18G 2G11
  20718923.594      300431.349 7    234101.93723        27.250           2.969
  24056043.547    -1562626.941 6  -1217628.31121        12.750           0.656
  23919546.180    -1193068.662 6   -929661.73621        14.250           0.656
 91  6  6 16 53 30.0000000  0  3G18G 2G11
  20720949.031      311075.487 7    242396.04623        27.000           2.906
  24045202.398    -1619590.225 6  -1262015.18521        12.500           0.656
  23911346.391    -1236161.573 6   -963240.56321        14.250           0.688
 91  6  6 16 53 45.0000000  0  3G18G 2G11
  20722978.578      321738.604 7    250704.93823        27.250           2.969
  24034352.461    -1676606.064 6  -1306443.00521        12.500           0.625
  23903142.250    -1279258.741 6   -996822.70421        14.000           0.625
 91  6  6 16 54  0.0000000  0  3G18G 2G11
  20725011.344      332424.696 7    259031.73023        27.500           3.094
  24023492.953    -1733670.339 6  -1350908.56521        12.500           0.625
  23894943.789    -1322355.629 6  -1030404.64021        14.250           0.625
 91  6  6 16 54 15.0000000  0  3G18G 2G11
  20727046.898      343118.141 7    267364.25323        27.250           2.938
  24012621.195    -1790798.456 6  -1395423.89221        12.000           0.531
  23886739.313    -1365467.487 6  -1063998.23321        14.250           0.688
 91  6  6 16 54 30.0000000  0  3G18G 2G11
  20729084.844      353828.027 7    275709.58823        27.250           2.906
  24001739.586    -1847981.245 5  -1439981.81621        11.500           0.531
  23878535.734    -1408584.979 6  -1097596.21621        14.250           0.656
 91  6  6 16 54 45.0000000  0  3G18G 2G11
  20731126.969      364560.360 7    284072.41223        27.250           2.938
  23990849.938    -1905212.195 5  -1484577.25221        11.500           0.531
  23870330.648    -1451701.367 6  -1131193.34521        14.250           0.719
 91  6  6 16 55  0.0000000  0  3G18G 2G11
  20733173.297      375314.542 7    292452.26423        27.250           3.125
  23979948.969    -1962492.034 5  -1529210.79821        10.500           0.500
  23862126.047    -1494817.158 6  -1164790.00521        14.500           0.625
 91  6  6 16 55 15.0000000  0  3G18G 2G11
  20735225.367      386098.712 7    300855.48923        27.500           2.969
  23969041.930    -2019812.289 5  -1573875.82921        10.000           0.594
  23853921.594    -1537923.735 6  -1198379.48721        14.250           0.750
 91  6  6 16 55 30.0000000  0  3G18G 2G11
  20737281.617      396906.294 7    309276.95223        27.500           2.938
  23958125.016    -2077179.221 5  -1618577.22521        10.750           0.469
  23845719.922    -1581027.102 6  -1231966.47021        14.500           0.656
 91  6  6 16 55 45.0000000  0  3G18G 2G11
  20739346.945      407753.434 7    317729.24323        27.500           2.969
  23947203.961    -2134576.507 5  -1663302.29721        10.500           0.438
  23837521.086    -1624110.742 6  -1265538.08421        14.250           0.656
 91  6  6 16 56  0.0000000  0  3G18G 2G11
  20741417.484      418634.314 7    326207.82023        27.750           2.969
  23936273.750    -2192009.734 5  -1708055.35721        10.500           0.531
  23829326.367    -1667180.009 6  -1299098.49721        14.000           0.719
 91  6  6 16 56 15.0000000  0  3G18G 2G11
  20743493.742      429545.512 7    334710.01323        27.750           3.031
  23925338.133    -2249482.015 5  -1752838.86421        11.000           0.469
  23821130.813    -1710237.957 6  -1332650.09421        14.250           0.750
 91  6  6 16 56 30.0000000  0  3G18G 2G11
  20745575.586      440486.481 7    343235.41523        27.500           3.031
  23914393.156    -2306993.780 5  -1797653.12621        10.750           0.438
  23812941.344    -1753284.760 6  -1366193.00221        14.500           0.750
 91  6  6 16 56 45.0000000  0  3G18G 2G11
  20747663.047      451457.169 7    351783.96823        27.750           3.000
  23903442.578    -2364545.100 5  -1842498.21421        11.000           0.469
  23804750.594    -1796320.177 6  -1399727.05921        14.750           0.563
 91  6  6 16 57  0.0000000  0  3G18G 2G11
  20749756.664      462457.169 7    360355.36523        27.500           2.969
  23892482.398    -2422135.654 5  -1887373.87221        11.500           0.438
  23796563.609    -1839343.705 6  -1433251.83721        14.500           0.625
 91  6  6 16 57 15.0000000  0  3G18G 2G11
  20751852.289      473471.994 7    368938.31423        27.750           3.031
  23881512.023    -2479779.870 5  -1932291.35021        11.250           0.500
  23788374.367    -1882369.647 6  -1466778.48821        14.250           0.563
 91  6  6 16 57 30.0000000  0  3G18G 2G11
  20753953.109      484511.491 7    377540.49123        27.750           3.000
  23870535.148    -2537467.836 6  -1977242.92121        12.250           0.594
  23780189.609    -1925387.709 6  -1500299.02121        15.000           0.594
 91  6  6 16 57 45.0000000  0  3G18G 2G11
  20756059.656      495580.016 7    386165.28723        27.750           2.938
  23859550.469    -2595194.859 5  -2022224.92921        11.750           0.594
  23772005.672    -1968393.028 6  -1533809.62321        15.000           0.625
 91  6  6 16 58  0.0000000  0  3G18G 2G11
  20758169.883      506669.146 7    394806.13223        27.750           2.906
  23848555.797    -2652969.015 6  -2067243.64521        12.250           0.781
  23763823.867    -2011393.560 6  -1567316.48021        15.250           0.688
 91  6  6 16 58 15.0000000  0  3G18G 2G11
  20760285.750      517787.752 7    403469.94523        27.250           3.031
  23837554.875    -2710781.675 6  -2112292.37621        13.250           0.656
  23755644.508    -2054380.515 6  -1600812.77121        15.500           0.625
 91  6  6 16 58 30.0000000  0  3G18G 2G11
  20762408.234      528941.926 7    412161.47623        27.000           3.000
  23826546.930    -2768626.287 6  -2157366.02521        13.750           0.719
  23747466.438    -2097347.025 6  -1634293.13021        15.000           0.563
 91  6  6 16 58 45.0000000  0  3G18G 2G11
  20764535.711      540122.443 7    420873.53323        27.250           2.844
  23815531.844    -2826511.752 6  -2202471.49321        13.750           0.719
  23739293.820    -2140301.775 6  -1667764.33521        15.750           0.500
 91  6  6 16 59  0.0000000  0  3G18G 2G11
  20766669.391      551331.865 7    429608.11023        27.250           2.875
  23804510.344    -2884435.474 6  -2247606.77121        13.750           0.813
  23731122.336    -2183241.951 6  -1701224.18521        15.500           0.594
 91  6  6 16 59 15.0000000  0  3G18G 2G11
  20768809.375      562576.848 7    438370.39723        27.000           2.938
  23793480.828    -2942390.314 6  -2292766.30421        12.500           0.844
  23722954.109    -2226160.293 6  -1734667.01521        15.500           0.563
 91  6  6 16 59 30.0000000  0  3G18G 2G11
  20770957.563      573864.253 7    447165.74323        27.000           2.906
  23782447.625    -3000369.349 6  -2337944.67121        12.750           0.750
  23714792.453    -2269049.718 6  -1768087.31921        15.500           0.469
 91  6  6 16 59 45.0000000  0  3G18G 2G11
  20773113.078      585193.485 7    455993.68123        27.250           2.906
  23771409.359    -3058373.135 6  -2383142.35721        13.000           0.750
  23706637.672    -2311910.552 6  -1801485.35321        15.250           0.500
 91  6  6 17  0  0.0000000  0  3G18G 2G11
  20775280.523      596585.491 7    464870.52323        27.250           2.875
  23760370.766    -3116380.158 6  -2428342.56721        12.500           0.906
  23698490.055    -2354721.083 6  -1834844.19421        15.000           0.531
 91  6  6 17  0 15.0000000  0  3G18G 2G11
  20777455.438      608015.505 7    473776.98923        27.000           2.875
  23749328.164    -3174415.026 6  -2473564.45221        12.250           0.594
  23690349.461    -2397505.609 6  -1868182.76221        15.500           0.563
 91  6  6 17  0 30.0000000  0  3G18G 2G11
  20779637.836      619481.512 7    482711.49923        27.500           2.844
  23738277.828    -3232479.521 6  -2518809.44121        12.250           0.750
  23682211.836    -2440265.878 6  -1901502.43221        15.250           0.594
 91  6  6 17  0 45.0000000  0  4G18G 2G11G16
  20781823.438      630966.526 7    491660.82723        27.750           2.813
  23727219.500    -3290590.428 6  -2564090.59221        12.250           0.625
  23674077.172    -2483018.369 6  -1934816.02821        15.500           0.563
  24330070.516          -0.29914                         7.000
 91  6  6 17  1  0.0000000  0  4G18G 2G11G16
  20784015.305      642486.870 7    500637.68623        27.750           2.813
  23716155.313    -3348730.928 6  -2609394.77421        12.250           0.750
  23665945.750    -2525746.105 6  -1968110.32221        15.250           0.500
  24322367.555      -40490.719 4                         7.250
 91  6  6 17  1 15.0000000  0  4G18G 2G11G16
  20786213.742      654040.875 7    509640.77323        27.500           2.938
  23705084.680    -3406902.804 6  -2654723.40921        12.000           0.688
  23657819.156    -2568450.622 6  -2001386.55121        15.000           0.656
  24314666.508      -80943.715 4                         6.750
 91  6  6 17  1 30.0000000  0  4G18G 2G11G16
  20788420.750      665639.438 7    518678.58123        27.500           2.813
  23694013.039    -3465094.711 6  -2700067.65821        12.250           0.594
  23649698.695    -2611120.560 6  -2034635.80721        15.000           0.563
  24306976.063     -121348.223 4                         6.750
 91  6  6 17  1 45.0000000  0  4G18G 2G11G16
  20790632.914      677264.438 7    527736.98923        27.500           2.844
  23682932.055    -3523324.656 6  -2745441.55421        12.000           0.625
  23641583.031    -2653773.477 6  -2067871.80221        15.250           0.594
  24299295.844     -161721.865 4                         6.750
 91  6  6 17  2  0.0000000  0  4G18G 2G11G16
  20792853.688      688935.120 7    536830.99123        27.500           2.844
  23671847.820    -3581573.398 6  -2790830.07221        12.500           0.625
  23633473.133    -2696390.018 6  -2101079.45721        15.500           0.563
  24291621.320     -202045.265 4                         7.250
 91  6  6 17  2 15.0000000  0  4G18G 2G11G16
  20795082.414      700643.585 7    545954.43723        27.250           2.688
  23660759.016    -3639848.111 6  -2836238.84121        12.750           0.688
  23625367.383    -2738977.200 6  -2134264.23421        15.250           0.656
  24283958.859     -242325.906 4        -0.22031         7.250           0.375
 91  6  6 17  2 30.0000000  0  4G18G 2G11G16
  20797316.914      712391.076 7    555108.29723        27.000           2.750
  23649664.953    -3698147.682 6  -2881666.98021        13.500           0.594
  23617270.266    -2781533.731 6  -2167425.12721        15.000           0.594
  24276296.453     -282562.749 4    -31353.58821         6.500           0.469
 91  6  6 17  2 45.0000000  0  4G18G 2G11G16
  20799561.508      724181.987 7    564295.99723        27.000           2.781
  23638566.234    -3756467.194 6  -2927110.66021        13.500           0.625
  23609178.477    -2824054.605 6  -2200558.21821        15.000           0.750
  24268652.133     -322750.796 4    -62668.93021         7.000           0.406
 91  6  6 17  3  0.0000000  0  4G18G 2G11G16
  20801821.242      736057.585 7    573549.67923        27.000           2.906
  23627470.477    -3814765.384 6  -2972537.74321        13.500           0.656
  23601102.781    -2866498.209 6  -2233631.11521        15.250           0.688
  24261023.742     -362848.534 4    -93913.89921         7.000           0.469
 91  6  6 17  3 15.0000000  0  4G18G 2G11G16
  20804091.156      747984.524 7    582843.36323        27.000           2.906
  23616375.000    -3873075.185 6  -3017973.86121        13.750           0.625
  23593034.156    -2908897.279 6  -2266669.31221        15.250           0.688
  24253400.867     -402888.785 4   -125114.06221         7.250           0.531
 91  6  6 17  3 30.0000000  0  4G18G 2G11G16
  20806368.711      759954.912 7    592170.90323        27.000           2.844
  23605275.016    -3931404.349 6  -3063425.07321        13.500           0.594
  23584971.992    -2951259.364 6  -2299678.69021        15.000           0.656
  24245796.938     -442879.077 5   -156275.31921         7.500           0.438
 91  6  6 17  3 45.0000000  0  4G18G 2G11G16
  20808654.086      771965.334 7    601529.63823        26.750           2.875
  23594170.516    -3989756.041 6  -3108893.83321        13.750           0.469
  23576918.289    -2993587.490 6  -2332661.59221        15.000           0.656
  24238192.789     -482822.660 4   -187400.15721         7.250           0.406
 91  6  6 17  4  0.0000000  0  4G18G 2G11G16
  20810945.148      784003.093 7    610909.67523        26.500           3.031
  23583060.461    -4048142.766 6  -3154389.90621        14.000           0.563
  23568867.719    -3035893.901 6  -2365627.58721        15.500           0.656
  24230600.008     -522732.359 5   -218498.61221         7.750           0.500
 91  6  6 17  4 15.0000000  0  4G18G 2G11G16
  20813242.406      796074.440 7    620315.88323        26.250           2.906
  23571945.805    -4106557.911 6  -3199908.11621        14.750           0.688
  23560820.992    -3078171.966 6  -2398571.49921        15.500           0.719
  24223012.156     -562601.536 5   -249565.49121         8.250           0.375
 91  6  6 17  4 30.0000000  0  4G18G 2G11G16
  20815546.555      808184.067 7    629751.91923        26.500           2.969
  23560824.102    -4164996.765 6  -3245444.80521        14.250           0.719
  23552781.984    -3120416.743 6  -2431489.46021        15.750           0.719
  24215435.469     -602425.276 5   -280596.95621         8.500           0.438
 91  6  6 17  4 45.0000000  0  4G18G 2G11G16
  20817857.906      820333.808 7    639219.21323        26.250           3.063
  23549699.352    -4223456.804 6  -3290998.00321        14.000           0.719
  23544750.945    -3162625.565 6  -2464379.40921        15.500           0.563
  24207863.742     -642201.003 5   -311591.51221         9.000           0.375
 91  6  6 17  5  0.0000000  0  4G18G 2G11G16
  20820178.891      832528.907 7    648721.85023        26.250           2.906
  23538572.227    -4281932.880 6  -3336563.68021        14.000           0.813
  23536726.195    -3204792.879 6  -2497237.00621        15.750           0.781
  24200307.664     -681923.268 5   -342543.91421         9.750           0.406
 91  6  6 17  5 15.0000000  0  4G18G 2G11G16
  20822507.172      844762.383 7    658254.39023        25.750           2.938
  23527440.531    -4340431.761 6  -3382147.14221        14.750           0.719
  23528708.359    -3246925.281 6  -2530067.40721        16.000           0.625
  24192753.836     -721599.197 5   -373460.22821         9.250           0.344
 91  6  6 17  5 30.0000000  0  4G18G 2G11G16
  20824842.266      857034.607 7    667817.12723        26.250           3.000
  23516304.477    -4398952.762 6  -3427747.85121        14.000           0.781
  23520699.242    -3289021.860 6  -2562869.89721        16.250           0.688
  24185212.570     -761227.958 5   -404339.77621         9.500           0.344
 91  6  6 17  5 45.0000000  0  4G18G 2G11G16
  20827183.375      869335.664 7    677402.33223        26.000           3.125
  23505162.805    -4457505.709 6  -3473373.44021        14.000           0.719
  23512691.648    -3331092.227 6  -2595651.96121        16.250           0.625
  24177681.633     -800818.939 5   -435189.88621         9.750           0.375
 91  6  6 17  6  0.0000000  0  4G18G 2G11G16
  20829530.117      881669.469 7    687013.04323        26.000           3.125
  23494012.609    -4516086.444 6  -3519020.69421        13.750           0.781
  23504692.891    -3373132.261 6  -2628410.38721        16.250           0.781
  24170154.352     -840368.319 5   -466007.57421         9.500           0.250
 91  6  6 17  6 15.0000000  0  4G18G 2G11G16
  20831885.734      894046.647 7    696657.56623        25.750           3.094
  23482863.859    -4574683.743 6  -3564680.84321        14.000           0.750
  23496701.000    -3415130.530 6  -2661136.25821        16.250           0.813
  24162638.016     -879865.016 5   -496784.19421         9.500           0.281
 91  6  6 17  6 30.0000000  0  4G18G 2G11G16
  20834250.328      906474.977 7    706341.93623        26.000           3.125
  23471710.414    -4633289.734 6  -3610347.77921        13.500           0.906
  23488717.789    -3457079.070 6  -2693823.39921        16.250           0.656
  24155134.492     -919300.841 5   -527513.41221         9.750           0.219
 91  6  6 17  6 45.0000000  0  4G18G 2G11G16
  20836626.086      918954.769 7    716066.40323        26.250           3.188
  23460554.031    -4691903.917 6  -3656021.07721        13.250           0.844
  23480744.406    -3498977.073 6  -2726471.15221        16.250           0.563
  24147640.734     -958675.288 5   -558194.81321         9.500           0.188
 91  6  6 17  7  0.0000000  0  4G18G 2G11G16
  20839008.922      931479.764 7    725826.10223        26.000           3.250
  23449399.898    -4750532.241 6  -3701705.40721        14.000           1.031
  23472779.344    -3540830.225 6  -2759083.95721        16.250           0.594
  24140157.813     -997994.259 5   -588832.97621         8.750           0.250
 91  6  6 17  7 15.0000000  0  4G18G 2G11G16
  20841400.570      944043.079 7    735615.65723        26.250           3.250
  23438239.164    -4809181.534 6  -3747406.07521        13.750           0.781
  23464823.617    -3582645.102 6  -2791666.92621        16.250           0.750
  24132685.211    -1037264.534 5   -619433.16521         8.750           0.219
 91  6  6 17  7 30.0000000  0  4G18G 2G11G16
  20843797.063      956640.775 7    745432.00123        26.500           3.250
  23427073.648    -4867855.363 6  -3793125.88521        13.750           0.781
  23456873.836    -3624425.222 6  -2824222.82121        16.250           0.781
  24125222.984    -1076489.933 5   -649998.40121         9.000           0.125
 91  6  6 17  7 45.0000000  0  4G18G 2G11G16
  20846201.797      969277.454 7    755278.72623        26.500           3.375
  23415904.367    -4926548.619 6  -3838860.81521        13.750           0.844
  23448929.078    -3666165.312 6  -2856747.53121        16.000           0.625
  24117766.789    -1115665.061 5   -680524.46221         8.500           0.188
 91  6  6 17  8  0.0000000  0  4G18G 2G11G16
  20848614.719      981952.228 7    765155.12723        26.750           3.375
  23404732.563    -4985262.202 6  -3884611.58521        14.250           0.688
  23440993.898    -3707866.127 6  -2889241.62321        15.750           0.688
  24110319.586    -1154790.735 5   -711012.01321         8.500           0.250
 91  6  6 17  8 15.0000000  0  4G18G 2G11G16
  20851033.617      994667.407 7    775063.01723        26.750           3.406
  23393557.141    -5043993.600 6  -3930376.24621        14.250           0.844
  23433067.469    -3749524.714 6  -2921702.82021        15.750           0.656
  24102883.953    -1193864.362 5   -741459.00421         8.500           0.188
 91  6  6 17  8 30.0000000  0  4G18G 2G11G16
  20853460.766     1007424.728 7    785003.74123        26.750           3.375
  23382376.063    -5102740.631 6  -3976153.08321        14.000           0.781
  23425147.602    -3791138.902 6  -2954129.41821        15.750           0.625
  24095463.617    -1232884.015 5   -771863.94121         8.500           0.063
 91  6  6 17  8 45.0000000  0  4G18G 2G11G16
  20855896.828     1020223.786 7    794976.99623        27.000           3.344
  23371194.281    -5161503.691 6  -4021942.41321        14.250           0.719
  23417238.055    -3832708.900 6  -2986521.57821        15.750           0.750
  24088045.695    -1271849.820 5   -802226.89921         8.250           0.156
 91  6  6 17  9  0.0000000  0  4G18G 2G11G16
  20858340.383     1033065.123 7    804983.18823        27.000           3.438
  23360008.367    -5220282.161 6  -4067743.75821        14.250           0.750
  23409334.852    -3874233.825 6  -3018878.61321        15.750           0.656
  24080640.281    -1310760.954 5   -832547.24421         8.250           0.188
 91  6  6 17  9 15.0000000  0  4G18G 2G11G16
  20860793.148     1045953.621 7    815026.12723        27.250           3.406
  23348822.258    -5279070.567 6  -4113552.83821        14.500           0.750
  23401442.102    -3915708.030 6  -3051196.13721        15.500           0.719
  24073246.563    -1349612.455 5   -862821.15521         8.000           0.250
 91  6  6 17  9 30.0000000  0  4G18G 2G11G16
  20863253.977     1058888.107 7    825104.90623        27.250           3.469
  23337634.016    -5337869.822 6  -4159370.37321        14.750           0.781
  23393560.156    -3957132.447 6  -3083474.85621        15.750           0.781
  24065865.469    -1388404.903 4   -893049.03421         7.250           0.344
 91  6  6 17  9 45.0000000  0  4G18G 2G11G16
  20865723.930     1071865.725 7    835217.29523        27.000           3.469
  23326442.734    -5396682.376 6  -4205198.26521        14.750           0.750
  23385687.195    -3998509.230 6  -3115716.45821        15.750           0.688
  24058494.266    -1427140.861 4   -923232.86421         7.250           0.250
 91  6  6 17 10  0.0000000  0  4G18G 2G11G16
  20868201.398     1084887.367 7    845363.98923        27.000           3.469
  23315248.375    -5455507.362 6  -4251035.86621        14.750           0.750
  23377822.188    -4039837.217 6  -3147920.04121        16.000           0.656
  24051136.117    -1465819.465 5   -953372.03921         7.500           0.375
 91  6  6 17 10 15.0000000  0  4G18G 2G11G16
  20870687.633     1097951.672 7    855543.92124        27.000           3.500
  23304051.023    -5514345.801 6  -4296883.92921        15.000           0.781
  23369966.688    -4081117.405 6  -3180086.38521        15.750           0.719
  24043782.258    -1504441.472 4   -983467.11621         7.000           0.281
 91  6  6 17 10 30.0000000  0  4G18G 2G11G16
  20873182.336     1111060.345 7    865758.42923        27.250           3.469
  23292852.172    -5573195.947 6  -4342741.12521        14.750           0.875
  23362119.844    -4122347.811 6  -3212213.92821        15.500           0.656
  24036445.617    -1543005.058 4  -1013516.64421         7.000           0.344
 91  6  6 17 10 45.0000000  0  4G18G 2G11G16
  20875685.563     1124210.397 7    876005.18423        27.250           3.344
  23281649.766    -5632060.258 6  -4388609.34521        14.500           0.813
  23354284.328    -4163530.730 6  -3244304.45421        15.500           0.750
  24029116.414    -1581512.850 5  -1043523.20021         7.500           0.375
 91  6  6 17 11  0.0000000  0  4G18G 2G11G16
  20878195.586     1137404.412 7    886286.18223        27.250           3.438
  23270445.344    -5690935.889 6  -4434486.40121        14.750           0.750
  23346455.742    -4204663.213 6  -3276355.70721        15.750           0.688
  24021802.063    -1619961.799 5  -1073483.42421         8.000           0.438
 91  6  6 17 11 15.0000000  0  4G18G 2G11G16
  20880714.453     1150641.179 7    896600.50323        27.250           3.406
  23259238.930    -5749823.944 6  -4480373.14121        15.000           0.813
  23338638.039    -4245746.032 6  -3308368.25121        15.750           0.750
  24014497.867    -1658352.906 5  -1103398.56821         8.500           0.375
 91  6  6 17 11 30.0000000  0  4G18G 2G11G16
  20883242.570     1163922.640 7    906949.65123        27.250           3.188
  23248031.852    -5808722.207 6  -4526267.82221        15.250           0.813
  23330830.445    -4286776.763 6  -3340340.20721        16.000           0.781
  24007201.219    -1696684.246 5  -1133267.14221         8.750           0.375
 91  6  6 17 11 45.0000000  0  4G18G 2G11G16
  20885776.813     1177245.144 7    917330.78023        27.000           3.281
  23236821.617    -5867634.126 6  -4572173.15221        15.250           0.844
  23323031.789    -4327758.601 6  -3372274.05821        16.000           0.844
  23999920.508    -1734959.011 5  -1163091.62221         9.250           0.313
 91  6  6 17 12  0.0000000  0  4G18G 2G11G16
  20888321.227     1190613.290 7    927747.47623        26.750           3.250
  23225608.969    -5926555.028 6  -4618085.46821        15.750           0.969
  23315244.430    -4368686.799 6  -3404166.10521        15.750           0.750
  23992646.930    -1773172.549 5  -1192868.39121         9.250           0.313
 91  6  6 17 12 15.0000000  0  4G18G 2G11G16
  20890873.117     1204021.496 7    938195.37423        27.000           3.156
  23214394.242    -5985489.960 6  -4664008.73121        15.000           0.813
  23307464.516    -4409566.168 6  -3436020.12421        16.000           0.750
  23985386.531    -1811330.108 5  -1222601.57521         9.250           0.344
 91  6  6 17 12 30.0000000  0  4G18G 2G11G16
  20893431.789     1217472.826 7    948676.89023        26.750           3.125
  23203176.625    -6044435.775 6  -4709940.46821        15.000           0.781
  23299695.695    -4450393.561 6  -3467833.62221        16.250           0.719
  23978135.211    -1849428.429 5  -1252288.57421         9.250           0.344
 91  6  6 17 12 45.0000000  0  4G18G 2G11G16
  20896000.914     1230969.417 7    959193.66923        26.750           3.094
  23191959.258    -6103389.787 6  -4755878.59421        15.000           0.875
  23291936.563    -4491166.176 6  -3499604.45021        16.250           0.781
  23970895.461    -1887464.605 5  -1281927.15221         9.250           0.313
 91  6  6 17 13  0.0000000  0  4G18G 2G11G16
  20898579.039     1244516.081 7    969749.46823        26.750           2.969
  23180739.063    -6162346.760 6  -4801819.01821        15.000           0.781
  23284189.391    -4531878.570 6  -3531328.35121        16.500           0.844
  23963671.609    -1925433.763 5  -1311513.51421         9.250           0.500
 91  6  6 17 13 15.0000000  0  4G18G 2G11G16
  20901166.133     1258113.918 7    980345.14123        26.500           2.969
  23169519.820    -6221305.520 6  -4847760.84521        15.250           0.813
  23276453.336    -4572529.245 6  -3563004.15121        16.250           0.688
  23956461.398    -1963334.871 5  -1341046.82021         9.500           0.469
 91  6  6 17 13 30.0000000  0  4G18G 2G11G16
  20903763.453     1271764.307 7    990981.76423        26.250           3.031
  23158299.883    -6280264.642 6  -4893702.94821        15.250           0.781
  23268729.523    -4613116.738 6  -3594630.72921        16.250           0.750
  23949260.398    -2001165.948 5  -1370525.59221         9.250           0.406
 91  6  6 17 13 45.0000000  0  4G18G 2G11G16
  20906371.617     1285467.786 7   1001659.74223        26.250           2.969
  23147080.141    -6339223.107 6  -4939644.53721        14.750           0.906
  23261018.766    -4653639.716 6  -3626207.03021        16.000           0.781
  23942076.633    -2038926.049 5  -1399949.03021         9.250           0.500
 91  6  6 17 14  0.0000000  0  4G18G 2G11G16
  20908999.922     1299280.802 7   1012423.09123        26.250           2.938
  23135872.227    -6398124.416 6  -4985541.57921        15.000           0.844
  23253330.383    -4694041.646 6  -3657688.99921        16.250           0.781
  23934913.117    -2076558.584 5  -1429273.06921         9.000           0.344
 91  6  6 17 14 15.0000000  0  4G18G 2G11G16
  20911639.305     1313151.127 7   1023231.07823        26.000           2.938
  23124664.125    -6457020.578 6  -5031434.62821        15.000           0.938
  23245654.727    -4734374.287 6  -3689117.00321        16.250           0.813
  23927765.297    -2114115.918 5  -1458538.53521         9.000           0.406
 91  6  6 17 14 30.0000000  0  4G18G 2G11G16
  20914287.383     1327063.827 7   1034072.10123        26.000           2.906
  23113454.438    -6515926.181 6  -5077335.02821        15.000           0.938
  23237990.336    -4774652.033 6  -3720502.21521        16.750           0.688
  23920632.766    -2151612.225 5  -1487756.94621         9.000           0.438
 91  6  6 17 14 45.0000000  0  4G18G 2G11G16
  20916942.453     1341017.783 7   1044945.26223        25.750           2.781
  23102244.523    -6574842.088 6  -5123243.45621        15.500           0.906
  23230337.578    -4814875.747 6  -3751845.32921        16.500           0.813
  23913509.914    -2189048.411 5  -1516927.98221         9.750           0.438
 91  6  6 17 15  0.0000000  0  4G18G 2G11G16
  20919605.516     1355008.537 7   1055847.09823        25.750           2.844
  23091029.438    -6633772.580 6  -5169163.25021        15.750           0.938
  23222692.258    -4855049.570 6  -3783149.56121        16.500           0.813
  23906395.836    -2226428.866 5  -1546055.60921         9.750           0.500
 91  6  6 17 15 15.0000000  0  4G18G 2G11G16
  20922274.547     1369040.650 7   1066781.16823        25.750           2.906
  23079813.922    -6692712.494 6  -5215090.37721        15.750           0.844
  23215057.922    -4895167.995 6  -3814410.63921        16.500           0.750
  23899292.195    -2263748.336 5  -1575135.72721         9.500           0.469
 91  6  6 17 15 29.9990000  0  4G18G 2G11G16
  20924953.331     1383114.944 7   1077748.10323        25.750           2.875
  23068597.628    -6751655.932 6  -5261020.25121        16.000           0.813
  23207433.917    -4935226.333 6  -3845624.88921        16.000           0.688
  23892205.112    -2301002.712 5  -1604165.09821         9.750           0.438
 91  6  6 17 15 44.9990000  0  4G18G 2G11G16
  20927639.901     1397233.657 7   1088749.64023        25.500           2.906
  23057378.839    -6810609.992 6  -5306958.40521        16.500           0.938
  23199822.097    -4975229.083 6  -3876795.82921        16.000           0.719
  23885127.065    -2338196.238 5  -1633147.05521         9.750           0.438
 91  6  6 17 15 59.9990000  0  4G18G 2G11G16
  20930334.800     1411394.775 7   1099784.22823        26.000           2.844
  23046160.323    -6869571.841 6  -5352902.64221        16.250           0.938
  23192220.948    -5015174.356 6  -3907921.97821        16.000           0.844
  23878064.769    -2375327.212 5  -1662080.29921        10.250           0.406
 91  6  6 17 16 14.9990000  0  4G18G 2G11G16
  20933039.190     1425603.100 7   1110855.59823        26.000           2.781
  23034936.714    -6928536.548 6  -5398849.09021        16.000           0.938
  23184631.878    -5055056.992 6  -3938999.32321        15.750           0.781
  23871008.112    -2412390.700 5  -1690960.94721         9.250           0.500
 91  6  6 17 16 29.9990000  0  4G18G 2G11G16
  20935751.440     1439856.443 7   1121962.05323        26.250           2.938
  23023717.980    -6987505.957 6  -5444799.21521        16.500           0.906
  23177054.003    -5094878.766 6  -3970029.23521        15.750           0.750
  23863966.050    -2449388.453 5  -1719790.36621         9.000           0.500
 91  6  6 17 16 44.9990000  0  4G18G 2G11G16
  20938472.042     1454154.411 7   1133103.27523        26.500           2.875
  23012494.151    -7046480.367 6  -5490753.22121        16.000           0.969
  23169487.628    -5134639.708 6  -4001011.75221        15.750           0.813
  23856942.495    -2486320.756 5  -1748568.77521         9.000           0.438
 91  6  6 17 16 59.9990000  0  4G18G 2G11G16
  20941201.894     1468500.414 7   1144281.91923        26.500           2.906
  23001272.519    -7105455.825 6  -5536708.04321        16.500           0.938
  23161934.894    -5174335.738 6  -4031943.69021        16.000           0.781
  23849925.417    -2523183.784 5  -1777293.21421         8.500           0.406
 91  6  6 17 17 14.9990000  0  4G18G 2G11G16
  20943940.698     1482892.265 7   1155496.29423        26.750           3.094
  22990048.534    -7164433.986 6  -5582664.97421        16.000           0.844
  23154391.917    -5213968.565 6  -4062826.37921        16.000           0.844
  23842921.159    -2559979.302 5  -1805965.03721         8.500           0.375
 91  6  6 17 17 29.9990000  0  4G18G 2G11G16
  20946689.675     1497332.875 7   1166748.65923        27.000           3.031
  22978824.089    -7223411.948 6  -5628621.75921        15.750           0.906
  23146861.847    -5253534.968 6  -4093657.30321        16.250           0.813
  23835936.628    -2596704.341 5  -1834581.94421         9.000           0.438
 91  6  6 17 17 44.9990000  0  4G18G 2G11G16
  20949445.105     1511815.772 7   1178033.98223        26.750           2.969
  22967600.581    -7282395.918 6  -5674583.22321        16.250           0.969
  23139343.105    -5293040.883 6  -4124441.10621        16.000           0.719
  23828957.644    -2633364.762 5  -1863149.01221         9.250           0.438
 91  6  6 17 17 59.9990000  0  4G18G 2G11G16
  20952210.097     1526342.964 7   1189353.82223        27.000           3.000
  22956376.112    -7341383.557 6  -5720547.54021        16.500           1.063
  23131838.480    -5332483.855 6  -4155175.84821        15.750           0.781
  23821993.495    -2669958.666 5  -1891663.72721         8.750           0.438
 91  6  6 17 18 14.9990000  0  4G18G 2G11G16
  20954981.308     1540911.062 7   1200705.52723        27.000           3.188
  22945150.011    -7400378.212 6  -5766517.33321        16.750           0.844
  23124344.120    -5371867.118 6  -4185864.07221        16.000           0.844
  23815042.050    -2706489.144 5  -1920129.03721         8.750           0.500
 91  6  6 17 18 29.9990000  0  4G18G 2G11G16
  20957762.800     1555526.398 7   1212094.04023        27.000           3.094
  22933922.917    -7459373.322 6  -5812487.47821        16.750           0.875
  23116863.276    -5411184.041 6  -4216500.60421        16.000           0.813
  23808102.940    -2742949.740 5  -1948539.88821         8.750           0.406
 91  6  6 17 18 44.9990000  0  4G18G 2G11G16
  20960553.690     1570190.369 7   1223520.45523        27.250           3.125
  22922697.370    -7518366.992 6  -5858456.50121        16.500           0.938
  23109394.214    -5450432.531 6  -4247083.81221        16.000           0.656
  23801180.190    -2779338.703 5  -1976894.91521         8.750           0.406
 91  6  6 17 18 59.9990000  0  4G18G 2G11G16
  20963352.659     1584898.393 7   1234981.20023        27.000           3.156
  22911470.894    -7577363.461 6  -5904427.70221        16.500           0.969
  23101937.378    -5489616.777 6  -4277616.96121        16.250           0.781
  23794267.737    -2815659.973 5  -2005197.69621         9.000           0.406
 91  6  6 17 19 14.9990000  0  5G18G 2G11G16G 6
  20966160.292     1599652.723 7   1246478.01523        27.250           3.188
  22900242.784    -7636360.182 6  -5950399.10121        15.750           0.844
  23094494.206    -5528734.099 6  -4308097.96221        16.250           0.656
  23787371.487    -2851911.065 5  -2033445.30921         9.000           0.375
  24310115.862          -0.60714                         7.250
 91  6  6 17 19 29.9990000  0  5G18G 2G11G16G 6
  20968977.862     1614452.788 7   1258010.47223        27.000           3.125
  22889016.605    -7695357.569 6  -5996371.01721        16.250           0.875
  23087062.300    -5567784.644 6  -4338526.92721        16.000           0.844
  23780485.011    -2888092.642 5  -2061638.74621         9.250           0.375
  24300294.269      -51594.878 5                         7.750
 91  6  6 17 19 44.9990000  0  5G18G 2G11G16G 6
  20971802.636     1629300.936 7   1269580.39723        27.000           3.250
  22877790.651    -7754353.109 6  -6042341.49421        16.250           0.938
  23079645.769    -5606765.673 6  -4368901.73321        16.250           0.813
  23773612.503    -2924202.200 5  -2089776.07421         9.000           0.344
  24290468.144     -103229.942 5                         7.750
 91  6  6 17 19 59.9990000  0  5G18G 2G11G16G 6
  20974637.683     1644198.120 7   1281188.53223        27.000           3.188
  22866564.347    -7813345.515 6  -6088309.53721        16.500           1.063
  23072239.730    -5645675.826 6  -4399221.30021        15.750           0.844
  23766755.558    -2960238.391 5  -2117856.21321         9.000           0.344
  24280638.964     -154904.637 5                         7.500
 91  6  6 17 20 14.9990000  0  5G18G 2G11G16G 6
  20977481.667     1659150.075 7   1292839.34323        26.750           3.281
  22855339.542    -7872328.692 6  -6134270.37121        16.000           0.969
  23064851.800    -5684508.931 6  -4429480.83021        16.250           0.813
  23759913.480    -2996195.047 5  -2145874.39621         9.000           0.313
  24270798.222     -206613.221 4                         7.250
 91  6  6 17 20 29.9990000  0  5G18G 2G11G16G 6
  20980337.987     1674152.050 7   1304529.13223        27.000           3.156
  22844116.722    -7931307.206 6  -6180227.58921        15.750           1.031
  23057474.175    -5723269.304 6  -4459683.69321        16.000           0.844
  23753088.815    -3032076.664 5  -2173834.12621         9.000           0.344
  24260950.339     -258360.252 4        -0.07631         7.250           0.250
 91  6  6 17 20 44.9990000  0  5G18G 2G11G16G 6
  20983202.644     1689204.194 7   1316258.01223        27.000           3.250
  22832894.331    -7990280.484 6  -6226180.70821        16.500           0.969
  23050112.464    -5761956.062 6  -4489829.19321        15.750           0.938
  23746273.112    -3067882.674 5  -2201734.90821         8.750           0.375
  24251092.690     -310145.351 4    -40352.07721         7.000           0.188
 91  6  6 17 20 59.9990000  0  5G18G 2G11G16G 6
  20986076.636     1704310.105 7   1328028.79023        26.750           3.281
  22821674.230    -8049245.086 6  -6272127.08821        16.250           1.000
  23042765.753    -5800565.640 6  -4519914.54921        15.750           0.875
  23739472.214    -3103609.421 5  -2229573.93821         8.750           0.281
  24241229.878     -361965.146 4    -80731.10421         6.750           0.250
 91  6  6 17 21 14.9990000  0  5G18G 2G11G16G 6
  20988963.198     1719478.928 7   1339848.58523        26.750           3.188
  22810457.331    -8108191.238 6  -6318059.07921        16.500           1.125
  23035434.472    -5839088.322 6  -4549932.19421        16.000           0.875
  23732693.276    -3139247.465 5  -2257343.83121         9.000           0.188
  24231367.675     -413810.150 4   -121129.76921         6.750           0.188
 91  6  6 17 21 29.9990000  0  5G18G 2G11G16G 6
  20991863.386     1734720.309 7   1351724.92223        26.750           3.281
  22799244.730    -8167109.070 6  -6363969.01221        16.500           1.031
  23028123.253    -5877514.053 6  -4579874.30121        16.250           0.906
  23725930.315    -3174787.198 5  -2285037.15921         8.750           0.406
  24221499.558     -465670.762 4   -161540.59321         6.750           0.219
 91  6  6 17 21 44.9990000  0  5G18G 2G11G16G 6
  20994775.323     1750019.803 7   1363646.54123        26.750           3.188
  22788035.675    -8226012.562 6  -6409867.75921        16.500           0.969
  23020826.050    -5915856.754 6  -4609751.69821        16.000           0.750
  23719183.042    -3210242.179 5  -2312664.40521         9.250           0.406
  24211629.769     -517561.056 4   -201974.56721         7.250           0.094
 91  6  6 17 21 59.9990000  0  5G18G 2G11G16G 6
  20997695.042     1765364.512 7   1375603.39323        26.750           3.063
  22776826.331    -8284914.578 6  -6455765.37121        16.750           1.063
  23013543.534    -5954129.129 6  -4639574.30821        16.000           0.813
  23712445.323    -3245625.463 5  -2340235.80621         8.750           0.406
  24201741.839     -569494.198 4   -242441.90321         7.250           0.188
 91  6  6 17 22 14.9990000  0  5G18G 2G11G16G 6
  21000624.901     1780760.745 7   1387600.39323        26.250           3.219
  22765620.534    -8343808.444 6  -6501656.62221        17.000           1.094
  23006274.714    -5992324.247 6  -4669336.71321        16.000           0.938
  23705728.808    -3280930.547 5  -2367746.27521         8.750           0.313
  24191851.792     -621463.565 4   -282937.52521         7.000           0.250
 91  6  6 17 22 29.9990000  0  5G18G 2G11G16G 6
  21003560.894     1796194.296 7   1399626.46423        26.000           3.188
  22754412.253    -8402708.118 6  -6547552.40921        17.000           1.125
  22999019.995    -6030455.768 6  -4699049.55421        16.000           0.875
  23699023.659    -3316171.043 5  -2395206.39621         9.000           0.344
  24181959.386     -673483.026 4   -323472.13321         7.000           0.250
 91  6  6 17 22 44.9990000  0  5G18G 2G11G16G 6
  21006509.487     1811680.658 7   1411693.69323        26.250           3.063
  22743205.542    -8461597.998 6  -6593440.56421        17.250           1.125
  22991778.339    -6068508.151 6  -4728700.73321        16.000           0.781
  23692334.136    -3351331.490 5  -2422604.15321         9.250           0.313
  24172048.894     -725537.452 4   -364034.00021         6.750           0.156
 91  6  6 17 22 59.9990000  0  5G18G 2G11G16G 6
  21009465.573     1827218.778 7   1423801.25123        26.250           3.156
  22732000.230    -8520478.799 6  -6639321.63821        17.000           1.031
  22984552.245    -6106482.039 6  -4758290.75121        16.250           0.875
  23685658.159    -3386412.600 5  -2449940.09321         9.500           0.250
  24162140.550     -777627.618 4   -404623.70921         7.250           0.156
 91  6  6 17 23 14.9990000  0  5G18G 2G11G16G 6
  21012431.433     1842806.397 7   1435947.38423        26.250           3.094
  22720798.105    -8579352.252 6  -6685196.99721        17.250           1.188
  22977340.214    -6144378.965 6  -4787820.80921        16.000           0.875
  23678998.261    -3421416.254 5  -2477215.67721         9.750           0.469
  24152217.065     -829755.544 4   -445242.84921         6.750           0.281
 91  6  6 17 23 29.9990000  0  5G18G 2G11G16G 6
  21015407.019     1858440.410 7   1448129.65923        26.750           2.969
  22709594.464    -8638221.216 6  -6731068.84721        17.000           1.125
  22970142.815    -6182201.684 6  -4817293.02321        16.250           0.813
  23672350.644    -3456345.331 5  -2504433.14421         9.500           0.406
  24142285.659     -881924.329 4   -485893.81021         6.500           0.344
 91  6  6 17 23 44.9990000  0  5G18G 2G11G16G 6
  21018391.440     1874122.002 7   1460349.01423        26.750           3.063
  22698393.761    -8697084.375 6  -6776936.18721        16.750           1.125
  22962959.644    -6219948.571 6  -4846706.16021        16.250           0.906
  23665718.730    -3491198.415 5  -2531591.38621         9.750           0.344
  24132355.659     -934132.644 4   -526575.57121         7.000           0.281
 91  6  6 17 23 59.9990000  0  5G18G 2G11G16G 6
  21021383.698     1889849.526 7   1472604.15823        26.750           2.906
  22687192.605    -8755943.341 6  -6822800.25421        17.000           1.094
  22955790.339    -6257621.118 6  -4876061.36621        16.000           0.750
  23659100.792    -3525976.970 5  -2558691.58521        10.000           0.406
  24122411.370     -986382.252 4   -567289.52821         7.250           0.313
 91  6  6 17 24 14.9990000  0  5G18G 2G11G16G 6
  21024385.230     1905624.831 7   1484896.53823        26.750           2.938
  22675993.964    -8814795.825 6  -6868659.27021        17.250           1.125
  22948635.644    -6295216.763 6  -4905356.65221        16.000           0.781
  23652498.386    -3560678.872 5  -2585732.03321        10.000           0.375
  24112461.105    -1038670.884 4   -608033.89021         7.000           0.313
 91  6  6 17 24 29.9990000  0  5G18G 2G11G16G 6
  21027397.480     1921447.858 7   1497226.10223        26.750           2.938
  22664795.206    -8873641.509 6  -6914512.99121        17.000           1.094
  22941496.948    -6332735.330 6  -4934591.87021        16.000           0.813
  23645906.722    -3595304.265 5  -2612712.86721         9.500           0.375
  24102505.081    -1090998.678 4   -648808.76221         7.000           0.219
 91  6  6 17 24 44.9990000  0  5G18G 2G11G16G 6
  21030416.925     1937317.547 7   1509592.02723        26.750           2.875
  22653598.214    -8932481.249 6  -6960362.08321        17.000           1.125
  22934371.128    -6370177.445 6  -4963767.51921        15.750           0.813
  23639333.855    -3629853.640 5  -2639634.47221         9.500           0.344
  24092537.605    -1143366.581 4   -689614.89321         6.750           0.219
 91  6  6 17 24 59.9990000  0  5G18G 2G11G16G 6
  21033447.550     1953239.517 7   1521998.69023        26.750           2.906
  22642404.120    -8991308.879 6  -7006201.73421        17.000           1.125
  22927263.026    -6407536.798 6  -4992878.68021        16.000           0.813
  23632774.503    -3664320.879 5  -2666492.57321         9.500           0.438
  24082567.784    -1195768.618 4   -730447.62621         6.750           0.344
 91  6  6 17 25 14.9990000  0  5G18G 2G11G16G 6
  21036487.855     1969214.054 7   1534446.31423        27.000           2.844
  22631212.315    -9050124.022 6  -7052031.65821        17.000           1.125
  22920169.331    -6444813.018 6  -5021925.05621        16.000           0.969
  23626232.065    -3698705.606 5  -2693285.86421         9.500           0.375
  24072585.503    -1248204.600 4   -771306.81421         7.000           0.313
 91  6  6 17 25 29.9990000  0  5G18G 2G11G16G 6
  21039536.042     1985234.261 7   1546929.51923        27.000           2.906
  22620020.870    -9108933.204 6  -7097856.93721        17.000           1.188
  22913090.073    -6482012.427 6  -5050911.58921        16.000           0.813
  23619705.042    -3733014.450 5  -2720020.05021         9.500           0.375
  24062606.292    -1300681.236 4   -812197.67621         7.000           0.344
 91  6  6 17 25 44.9990000  0  5G18G 2G11G16G 6
  21042593.261     2001300.284 7   1559448.43023        27.250           2.938
  22608831.511    -9167735.852 6  -7143677.12621        17.250           1.063
  22906026.511    -6519134.362 6  -5079837.74721        16.000           0.875
  23613188.917    -3767247.114 5  -2746694.86721         9.750           0.313
  24052607.526    -1353197.991 4   -853119.80921         6.500           0.281
 91  6  6 17 25 59.9990000  0  5G18G 2G11G16G 6
  21045659.636     2017412.611 7   1572003.42523        27.000           2.906
  22597642.972    -9226531.545 6  -7189491.90121        17.250           1.156
  22898977.245    -6556178.261 6  -5108703.09021        16.000           0.688
  23606688.487    -3801402.740 5  -2773309.63121         9.750           0.375
  24042608.050    -1405754.656 4   -894073.00921         7.250           0.406
 91  6  6 17 26 14.9990000  0  5G18G 2G11G16G 6
  21048734.761     2033571.863 7   1584594.98223        26.750           2.906
  22586456.120    -9285319.303 6  -7235300.49521        16.750           1.094
  22891943.409    -6593142.994 6  -5137506.75121        15.750           0.875
  23600204.261    -3835480.691 5  -2799864.39721         9.750           0.375
  24032601.714    -1458350.500 4   -935056.76821         7.000           0.281
 91  6  6 17 26 29.9990000  0  5G18G 2G11G16G 6
  21051817.964     2049780.333 7   1597224.89023        26.750           2.844
  22575272.136    -9344096.283 6  -7281100.68321        17.000           1.094
  22884925.753    -6630025.607 6  -5166246.42121        15.750           0.844
  23593734.292    -3869477.930 5  -2826355.74121         9.750           0.375
  24022581.292    -1510982.836 4   -976068.94221         6.500           0.313
 91  6  6 17 26 44.9990000  0  5G18G 2G11G16G 6
  21054914.292     2066045.600 7   1609899.05323        26.500           2.875
  22564090.167    -9402855.310 6  -7326886.88221        17.000           1.125
  22877922.347    -6666818.702 6  -5194916.34121        15.500           0.906
  23587281.886    -3903387.299 5  -2852778.64021         9.250           0.375
  24012557.792    -1563644.470 4  -1017103.92621         6.500           0.313
 91  6  6 17 26 59.9990000  0  5G18G 2G11G16G 6
  21058019.003     2082362.132 7   1622613.17023        26.750           2.750
  22552909.526    -9461601.296 6  -7372662.92721        16.750           1.125
  22870937.901    -6703527.039 6  -5223520.21121        15.750           0.875
  23580844.448    -3937213.871 5  -2879137.02221         9.500           0.438
  24002535.190    -1616340.509 5  -1058165.75521         7.500           0.375
 91  6  6 17 27 14.9990000  0  5G18G 2G11G16G 6
  21061132.706     2098725.592 7   1635363.84723        26.500           2.938
  22541732.487    -9520338.336 6  -7418432.00121        16.750           1.188
  22863968.151    -6740154.666 6  -5252061.18821        15.750           0.844
  23574423.456    -3970961.499 5  -2905433.89221         9.750           0.375
  23992501.261    -1669075.191 5  -1099257.68321         7.750           0.313
 91  6  6 17 27 29.9990000  0  5G18G 2G11G16G 6
  21064255.292     2115133.411 7   1648149.08723        26.750           2.938
  22530556.214    -9579068.470 6  -7464195.69121        17.000           1.219
  22857013.120    -6776703.329 6  -5280540.63821        16.000           0.875
  23568015.495    -4004632.482 5  -2931671.02921         9.750           0.375
  23982456.183    -1721850.790 5  -1140381.52521         7.750           0.375
 91  6  6 17 27 44.9990000  0  5G18G 2G11G16G 6
  21067386.995     2131589.190 7   1660971.69923        26.500           2.938
  22519382.722    -9637787.866 6  -7509951.01821        17.250           1.156
  22850073.073    -6813169.153 6  -5308955.53821        15.750           0.875
  23561622.339    -4038222.879 5  -2957845.38021        10.000           0.469
  23972405.667    -1774663.556 5  -1181534.28821         7.750           0.313
 91  6  6 17 27 59.9990000  0  5G18G 2G11G16G 6
  21070526.206     2148088.390 7   1673828.14723        26.500           2.813
  22508209.237    -9696500.641 6  -7555701.19021        16.750           1.156
  22843148.690    -6849556.272 6  -5337309.10921        15.750           0.813
  23555244.355    -4071737.375 5  -2983960.58821         9.750           0.406
  23962352.417    -1827518.037 5  -1222719.56321         8.000           0.313
 91  6  6 17 28 14.9990000  0  5G18G 2G11G16G 6
  21073675.534     2164638.215 7   1686724.05323        26.500           2.875
  22497038.417    -9755199.558 6  -7601440.54621        16.750           1.219
  22836240.956    -6885857.164 6  -5365595.48321        15.750           0.875
  23548882.042    -4105168.353 5  -3010010.69921         9.500           0.406
  23952285.050    -1880406.844 5  -1263931.58121         8.000           0.344
 91  6  6 17 28 29.9990000  0  5G18G 2G11G16G 6
  21076834.120     2181237.525 7   1699658.50723        26.250           2.906
  22485871.956    -9813885.575 6  -7647169.86121        16.750           1.188
  22829349.425    -6922072.704 6  -5393815.35121        16.250           0.781
  23542537.565    -4138516.789 5  -3035996.49921         9.500           0.438
  23942209.761    -1933331.098 5  -1305171.23821         8.000           0.188
 91  6  6 17 28 44.9990000  0  5G18G 2G11G16G 6
  21080001.886     2197887.350 7   1712632.33323        26.000           2.813
  22474705.995    -9872557.141 6  -7692887.89721        17.250           1.219
  22822475.956    -6958201.225 6  -5421967.40121        16.250           0.875
  23536207.167    -4171781.252 5  -3061917.35521         9.250           0.406
  23932136.815    -1986289.464 5  -1346437.45821         8.250           0.313
 91  6  6 17 28 59.9990000  0  5G18G 2G11G16G 6
  21083181.019     2214588.536 7   1725646.16623        26.000           2.875
  22463545.386    -9931213.256 6  -7738593.92821        17.750           1.219
  22815616.534    -6994241.561 6  -5450050.75921        16.000           0.906
  23529896.792    -4204960.529 5  -3087771.34421         9.500           0.375
  23922047.472    -2039280.962 5  -1387729.50721         7.500           0.313
 91  6  6 17 29 14.9990000  0  5G18G 2G11G16G 6
  21086366.870     2231327.270 7   1738689.26523        25.750           3.000
  22452384.526    -9989867.223 6  -7784298.26921        17.500           1.219
  22808771.565    -7030207.021 6  -5478075.75321        15.750           0.875
  23523593.495    -4238068.123 5  -3113569.48321         9.000           0.406
  23911958.855    -2092319.288 5  -1429058.04221         8.500           0.219
 91  6  6 17 29 29.9990000  0  5G18G 2G11G16G 6
  21089562.347     2248124.463 7   1751777.91523        25.750           2.938
  22441226.972   -10048498.100 6  -7829984.62121        17.500           1.313
  22801947.534    -7066076.523 6  -5506025.97921        16.000           0.750
  23517312.792    -4271083.271 5  -3139295.56421         9.000           0.250
  23901862.206    -2145383.539 5  -1470406.77821         8.250           0.281
 91  6  6 17 29 44.9990000  0  5G18G 2G11G16G 6
  21092769.175     2264973.359 7   1764906.85223        25.750           2.938
  22430072.378   -10107112.362 6  -7875658.02521        17.750           1.219
  22795138.089    -7101856.429 6  -5533906.40321        16.000           0.781
  23511043.112    -4304012.381 5  -3164954.62621         9.000           0.344
  23891757.276    -2198480.457 5  -1511780.96721         8.000           0.250
 91  6  6 17 29 59.9990000  0  5G18G 2G11G16G 6
  21095983.800     2281867.900 7   1778071.35323        25.750           2.969
  22418920.308   -10165715.757 6  -7921322.97021        17.750           1.250
  22788345.042    -7137552.342 6  -5561721.37121        16.000           0.844
  23504792.706    -4336861.157 5  -3190551.07621         9.250           0.375
  23881643.784    -2251615.839 5  -1553185.13221         7.500           0.219
 91  6  6 17 30 14.9990000  0  5G18G 2G11G16G 6
  21099208.308     2298810.587 7   1791273.36823        25.750           2.813
  22407771.628   -10224305.303 6  -7966977.11621        17.500           1.188
  22781569.347    -7173161.172 6  -5589468.47221        16.250           0.938
  23498557.995    -4369626.682 5  -3216082.66921         9.500           0.313
  23871523.909    -2304786.933 5  -1594617.14321         8.000           0.219
 91  6  6 17 30 29.9990000  0  5G18G 2G11G16G 6
  21102442.487     2315805.830 7   1804516.33823        25.750           2.906
  22396626.769   -10282876.176 6  -8012616.71921        18.000           1.094
  22774809.620    -7208678.098 6  -5617143.96721        16.000           0.844
  23492340.511    -4402304.215 5  -3241545.70521         9.250           0.313
  23861404.628    -2357989.069 5  -1636073.31821         8.250           0.281
 91  6  6 17 30 44.9990000  0  5G18G 2G11G16G 6
  21105686.308     2332849.996 7   1817797.42923        26.000           2.813
  22385484.198   -10341431.836 6  -8058244.47121        18.000           1.313
  22768068.230    -7244106.485 6  -5644750.46421        16.250           0.875
  23486139.144    -4434897.343 5  -3266942.94021         9.250           0.281
  23851269.550    -2411225.895 5  -1677556.52621         8.000           0.188
 91  6  6 17 30 59.9990000  0  5G18G 2G11G16G 6
  21108937.847     2349943.289 7   1831116.80323        25.750           2.813
  22374344.565   -10399971.815 6  -8103859.98321        18.000           1.125
  22761343.292    -7279445.726 6  -5672287.50321        16.000           0.844
  23479951.261    -4467405.995 5  -3292274.37021         9.000           0.406
  23841130.206    -2464497.112 5  -1719066.51421         8.000           0.156
 91  6  6 17 31 14.9990000  0  5G18G 2G11G16G 6
  21112200.565     2367083.723 7   1844472.90623        26.000           2.750
  22363206.440   -10458497.958 6  -8149464.74021        17.750           1.188
  22754635.409    -7314697.407 6  -5699756.31521        15.750           0.938
  23473781.659    -4499831.789 5  -3317541.75121         9.250           0.313
  23830987.011    -2517804.594 5  -1760604.78821         7.750           0.188
 91  6  6 17 31 29.9990000  0  5G18G 2G11G16G 6
  21115472.495     2384278.896 7   1857871.66923        26.000           2.781
  22352073.495   -10517002.457 6  -8195052.61921        17.750           1.188
  22747945.019    -7349853.419 6  -5727150.57421        15.500           0.719
  23467627.987    -4532166.601 5  -3342737.73021         9.750           0.344
  23820840.136    -2571140.468 5  -1802165.20721         7.500           0.188
 91  6  6 17 31 44.9990000  0  5G18G 2G11G16G 6
  21118754.308     2401527.392 7   1871311.97723        26.000           2.750
  22340943.050   -10575486.334 6  -8240624.43421        17.750           1.344
  22741273.175    -7384915.013 6  -5754471.26121        15.500           0.969
  23461489.292    -4564411.728 5  -3367863.84221         9.000           0.344
  23810685.698    -2624506.137 5  -1843748.79721         7.750           0.250
 91  6  6 17 31 59.9990000  0  5G18G 2G11G16G 6
  21122047.136     2418827.617 7   1884792.59123        26.000           2.719
  22329819.573   -10633951.019 6  -8286181.29621        17.750           1.281
  22734619.378    -7419883.262 6  -5781719.21821        16.000           0.750
  23455374.503    -4596568.523 5  -3392921.09521         9.250           0.344
  23800524.495    -2677903.114 5  -1885356.83021         7.750           0.281
 91  6  6 17 32 14.9990000  0  5G18G 2G11G16G 6
  21125365.980     2436264.975 7   1898380.06123        26.250           2.656
  22318713.847   -10692310.812 6  -8331656.42121        17.750           1.281
  22727999.519    -7454672.494 6  -5808827.68521        16.000           0.906
  23449287.878    -4628551.335 5  -3417842.79621         9.500           0.438
  23790374.190    -2731245.826 5  -1926922.55921         7.500           0.188
 91  6  6 17 32 29.9990000  0  5G18G 2G11G16G 6
  21128693.698     2453753.729 7   1912007.57623        26.250           2.656
  22307611.901   -10750651.158 6  -8377116.40021        18.000           1.406
  22721396.730    -7489367.957 6  -5835863.08821        16.000           0.781
  23443219.823    -4660445.701 5  -3442695.59021         9.250           0.438
  23780220.433    -2784619.877 5  -1968512.70021         7.500           0.250
 91  6  6 17 32 44.9990000  0  5G18G 2G11G16G 6
  21132032.940     2471303.037 7   1925682.29023        26.250           2.656
  22296515.714   -10808962.687 6  -8422553.91021        18.000           1.250
  22714813.753    -7523960.282 6  -5862818.11721        16.000           0.781
  23437168.362    -4692242.436 5  -3467472.27321         8.750           0.500
  23770056.573    -2838016.078 4  -2010120.08821         7.250           0.250
 91  6  6 17 32 59.9990000  0  5G18G 2G11G16G 6
  21135377.730     2488881.630 7   1939379.81623        26.000           2.625
  22285418.636   -10867276.155 6  -8467992.93521        18.000           1.188
  22708245.167    -7558480.239 6  -5889716.74421        16.250           0.875
  23431129.862    -4723972.575 5  -3492197.05321         8.750           0.344
  23759883.730    -2891465.582 4  -2051769.04421         6.750           0.188
 91  6  6 17 33 14.9990000  0  5G18G 2G11G16G 6
  21138731.339     2506499.690 7   1953108.09323        26.250           2.656
  22274324.081   -10925580.861 6  -8513425.13521        18.000           1.188
  22701691.269    -7592917.085 6  -5916550.62321        16.250           0.875
  23425106.784    -4755625.245 5  -3516861.50021         8.750           0.438
  23749707.214    -2944957.784 4  -2093451.23321         6.750           0.156
 91  6  6 17 33 29.9990000  0  5G18G 2G11G16G 6
  21142098.308     2524194.396 7   1966896.09823        26.250           2.563
  22263237.526   -10983839.230 6  -8558821.23321        18.250           1.219
  22695160.745    -7627232.896 6  -5943290.19521        16.000           0.750
  23419103.980    -4787162.752 5  -3541436.19821         8.750           0.438
  23739528.823    -2998455.011 4  -2135137.36121         6.750           0.250
 91  6  6 17 33 44.9990000  0  5G18G 2G11G16G 6
  21145478.605     2541956.224 7   1980736.39723        26.250           2.688
  22252157.167   -11042060.850 6  -8604188.70121        18.000           1.188
  22688651.448    -7661437.216 6  -5969942.89121        16.000           0.844
  23413126.222    -4818594.723 5  -3565928.65721         8.750           0.500
  23729344.784    -3051967.107 4  -2176835.04521         7.250           0.313
 91  6  6 17 33 59.9990000  0  5G18G 2G11G16G 6
  21148868.128     2559773.801 7   1994620.13523        26.000           2.656
  22241083.659   -11100257.160 6  -8649536.44321        18.000           1.344
  22682163.214    -7695541.466 6  -5996517.61421        16.000           0.938
  23407160.026    -4849932.749 5  -3590347.92921         8.250           0.344
  23719155.214    -3105505.547 5  -2218553.31121         7.750           0.406
 91  6  6 17 34 14.9990000  0  5G18G 2G11G16G 6
  21152271.401     2577653.990 7   2008552.67223        26.250           2.688
  22230015.589   -11158420.567 6  -8694858.53821        18.500           1.406
  22675693.839    -7729537.865 6  -6023008.29221        16.000           0.875
  23401212.964    -4881169.484 5  -3614688.26421         8.500           0.313
  23708965.737    -3159062.911 5  -2260286.30821         7.500           0.344
 91  6  6 17 34 29.9990000  0  5G18G 2G11G16G 6
  21155678.628     2595557.643 7   2022503.49023        26.250           2.656
  22218947.097   -11216590.151 6  -8740185.45421        18.250           1.313
  22669236.839    -7763465.388 6  -6049445.29921        16.000           0.938
  23395282.198    -4912343.810 5  -3638979.96221         8.750           0.344
  23698758.331    -3212678.402 5  -2302064.59621         8.000           0.344
 91  6  6 17 34 44.9990000  0  5G18G 2G11G16G 6
  21159098.089     2613525.848 7   2036504.60323        26.250           2.594
  22207883.675   -11274724.222 6  -8785484.69221        18.500           1.344
  22662802.792    -7797282.344 6  -6075796.15321        16.250           0.875
  23389371.831    -4943414.134 5  -3663190.64421         9.000           0.281
  23688553.081    -3266310.603 5  -2343855.91221         7.500           0.344
 91  6  6 17 34 59.9990000  0  5G18G 2G11G16G 6
  21162524.417     2631534.277 7   2050537.04823        25.750           2.531
  22196822.448   -11332846.813 6  -8830775.01121        18.000           1.188
  22656383.878    -7831012.636 6  -6102079.50121        16.250           0.938
  23383473.714    -4974404.668 5  -3687339.15921         9.250           0.469
  23678345.519    -3319983.604 5  -2385679.04721         8.000           0.406
 91  6  6 17 35 14.9990000  0  5G18G 2G11G16G 6
  21165962.464     2649601.921 7   2064615.64323        25.750           2.594
  22185768.245   -11390938.928 6  -8876041.56921        18.500           1.250
  22649985.433    -7864637.046 6  -6128280.32621        16.000           0.969
  23377597.378    -5005296.735 5  -3711410.95021        10.000           0.438
  23668121.495    -3373678.619 4  -2427519.30121         7.250           0.375
 91  6  6 17 35 29.9990000  0  5G18G 2G11G16G 6
  21169409.847     2667715.954 7   2078730.39023        26.000           2.625
  22174717.339   -11449013.067 6  -8921294.11321        18.250           1.375
  22643605.089    -7898168.048 6  -6154408.36821        16.250           0.906
  23371732.753    -5036102.666 5  -3735415.61821        10.000           0.313
  23657900.323    -3427408.225 4  -2469386.50521         7.250           0.219
 91  6  6 17 35 44.9990000  0  5G18G 2G11G16G 6
  21172867.261     2685880.510 7   2092884.50323        26.250           2.500
  22163670.683   -11507064.482 6  -8966528.94421        18.250           1.344
  22637241.995    -7931600.760 6  -6180459.81421        16.250           0.875
  23365890.097    -5066817.604 5  -3759349.37121         9.750           0.531
  23647668.128    -3481167.619 5  -2511276.96121         7.500           0.344
 91  6  6 17 35 59.9990000  0  5G18G 2G11G16G 6
  21176331.417     2704088.265 7   2107072.28323        25.750           2.625
  22152627.995   -11565100.668 6  -9011751.91521        18.750           1.250
  22630897.261    -7964942.532 6  -6206440.41121        16.250           1.000
  23360058.917    -5097449.168 5  -3783218.15921         9.250           0.344
  23637432.058    -3534964.594 5  -2553196.65421         7.500           0.281
 91  6  6 17 36 14.9990000  0  5G18G 2G11G16G 6
  21179805.831     2722348.594 7   2121301.02623        25.750           2.625
  22141587.753   -11623111.480 6  -9056955.10321        19.250           1.406
  22624571.987    -7998183.291 6  -6232342.28621        15.750           0.875
  23354248.987    -5127987.346 5  -3807014.16021         9.250           0.281
  23627188.370    -3588789.216 5  -2595137.90221         7.750           0.250
 91  6  6 17 36 29.9990000  0  5G18G 2G11G16G 6
  21183290.925     2740661.749 7   2135570.93823        25.500           2.625
  22130553.886   -11681096.893 6  -9102138.50521        19.000           1.250
  22618266.659    -8031322.840 6  -6258165.29421        16.000           0.875
  23348454.026    -5158431.976 5  -3830737.26721         9.250           0.344
  23616944.886    -3642641.412 5  -2637100.63021         8.250           0.313
 91  6  6 17 36 44.9990000  0  5G18G 2G11G16G 6
  21186786.878     2759028.508 7   2149882.61723        25.500           2.719
  22119524.331   -11739055.486 6  -9147301.00521        18.750           1.313
  22611979.456    -8064359.706 6  -6283908.29021        16.250           0.875
  23342679.558    -5188781.910 5  -3854386.59721         9.250           0.406
  23606690.190    -3696519.952 5  -2679083.88221         8.250           0.188
 91  6  6 17 36 59.9990000  0  5G18G 2G11G16G 6
  21190291.050     2777444.639 7   2164232.77223        25.750           2.750
  22108499.690   -11796991.415 6  -9192445.84421        18.500           1.406
  22605711.011    -8097298.066 6  -6309574.53121        16.000           0.844
  23336917.792    -5219041.373 5  -3877965.40521         9.000           0.375
  23596428.722    -3750429.231 5  -2721091.10821         8.000           0.281
 91  6  6 17 37 14.9980000  0  5G18G 2G11G16G 6
  21193805.537     2795914.894 7   2178625.10323        25.750           2.688
  22097480.568   -11854894.546 6  -9237565.12421        18.500           1.406
  22599463.107    -8130129.321 6  -6335157.31021        16.250           0.938
  23331178.772    -5249202.078 5  -3901467.27821         8.750           0.344
  23586164.873    -3804359.474 5  -2763114.65821         8.250           0.344
 91  6  6 17 37 29.9980000  0  5G18G 2G11G16G 6
  21197331.490     2814438.989 7   2193059.38723        25.250           2.750
  22086465.162   -11912774.669 6  -9282666.47421        18.500           1.406
  22593235.686    -8162859.979 6  -6360661.70321        16.500           0.906
  23325458.725    -5279270.576 5  -3924897.78321         9.500           0.344
  23575899.553    -3858320.238 5  -2805161.97521         9.000           0.375
 91  6  6 17 37 44.9980000  0  5G18G 2G11G16G 6
  21200866.467     2833022.806 7   2207540.20823        25.500           2.563
  22075458.912   -11970620.946 6  -9327741.44922        19.000           1.500
  22587027.951    -8195480.568 6  -6386080.33421        16.250           0.875
  23319758.482    -5309237.633 5  -3948248.75321         9.500           0.531
  23565627.209    -3912300.933 5  -2847224.82121         8.250           0.313
 91  6  6 17 37 59.9980000  0  5G18G 2G11G16G 6
  21204409.576     2851637.042 7   2222044.73223        25.500           2.563
  22064451.068   -12028462.095 6  -9372812.42221        18.500           1.344
  22580835.717    -8228019.795 6  -6411435.55821        16.250           0.969
  23314068.326    -5339132.047 5  -3971543.11521         9.250           0.469
  23555343.232    -3966330.444 5  -2889325.70621         8.500           0.375
 91  6  6 17 38 14.9980000  0  5G18G 2G11G16G 6
  21207959.365     2870287.882 7   2236577.77623        25.750           2.531
  22053446.545   -12086291.545 6  -9417874.29021        18.750           1.344
  22574659.943    -8260470.996 6  -6436722.20721        16.000           0.906
  23308391.943    -5368947.355 5  -3994776.34821         9.250           0.344
  23545057.131    -4020402.335 5  -2931459.62821         9.000           0.313
 91  6  6 17 38 29.9980000  0  5G18G 2G11G16G 6
  21211522.584     2889016.773 7   2251171.64423        25.500           2.563
  22042451.842   -12144067.903 6  -9462894.77821        18.750           1.469
  22568509.545    -8292792.553 6  -6461907.81521        15.750           0.906
  23302745.709    -5398641.740 5  -4017914.84521         9.750           0.438
  23534766.576    -4074475.239 5  -2973594.32821         9.000           0.375
 91  6  6 17 38 44.9980000  0  5G18G 2G11G16G 6
  21215101.498     2907818.574 7   2265822.32423        25.250           2.625
  22031466.732   -12201795.873 6  -9507877.56121        18.750           1.438
  22562382.881    -8324989.128 6  -6486996.05421        16.000           0.844
  23297118.459    -5428220.526 5  -4040963.27021         9.750           0.406
  23524474.467    -4128553.958 5  -3015733.56021         8.500           0.375
 91  6  6 17 38 59.9980000  0  5G18G 2G11G16G 6
  21218690.529     2926684.471 7   2280522.94622        25.250           2.469
  22020489.232   -12259483.993 6  -9552829.29222        19.000           1.531
  22556277.811    -8357069.312 6  -6511993.58221        16.250           0.844
  23291503.857    -5457692.460 5  -4063928.42421         9.250           0.438
  23514180.475    -4182647.337 5  -3057884.22821         8.250           0.281
 91  6  6 17 39 14.9980000  0  5G18G 2G11G16G 6
  21222287.334     2945584.129 7   2295249.87422        25.000           2.406
  22009512.428   -12317162.044 6  -9597773.17921        18.750           1.375
  22550189.803    -8389062.857 6  -6536923.61421        16.000           0.938
  23285914.787    -5487087.273 5  -4086833.48921         9.500           0.469
  23503879.506    -4236785.260 5  -3100069.57321         8.500           0.313
 91  6  6 17 39 29.9980000  0  5G18G 2G11G16G 6
  21225889.147     2964511.205 7   2309998.17223        25.000           2.594
  21998538.889   -12374836.394 6  -9642714.18221        19.250           1.438
  22544117.295    -8420975.764 6  -6561790.81421        16.000           0.906
  23280332.053    -5516411.265 5  -4109683.37721         9.500           0.375
  23493568.967    -4290974.052 5  -3142294.59921         8.750           0.344
 91  6  6 17 39 44.9980000  0  5G18G 2G11G16G 6
  21229501.701     2983492.755 7   2324788.91322        25.000           2.469
  21987569.912   -12432479.782 6  -9687631.05721        19.250           1.469
  22538064.732    -8452780.690 6  -6586573.87421        15.750           0.969
  23274772.490    -5545637.037 5  -4132457.22721         9.750           0.500
  23483248.053    -4345186.499 5  -3184538.04321         8.500           0.406
 91  6  6 17 39 59.9980000  0  5G18G 2G11G16G 6
  21233124.451     3002532.355 7   2339624.89123        25.000           2.563
  21976606.975   -12490088.143 6  -9732520.63721        19.500           1.375
  22532034.451    -8484473.666 6  -6611269.69721        15.750           0.906
  23269231.490    -5574760.576 5  -4155151.42121         9.750           0.438
  23472929.857    -4399418.899 5  -3226797.03621         8.750           0.219
 91  6  6 17 40 14.9980000  0  5G18G 2G11G16G 6
  21236756.732     3021620.751 7   2354498.88822        24.750           2.438
  21965648.990   -12547670.579 6  -9777390.02221        19.500           1.469
  22526022.670    -8516063.740 6  -6635885.33221        16.250           0.906
  23263705.506    -5603791.141 5  -4177772.65421         9.750           0.438
  23462606.381    -4453680.376 5  -3269078.67121         9.000           0.438
 91  6  6 17 40 29.9980000  0  5G18G 2G11G16G 6
  21240396.178     3040748.203 7   2369403.31922        24.500           2.406
  21954694.217   -12605236.253 6  -9822246.34322        19.250           1.531
  22520027.022    -8547560.151 6  -6660427.98621        16.000           1.000
  23258195.865    -5632738.584 5  -4200329.12021         9.750           0.469
  23452273.147    -4507980.384 5  -3311390.35221         8.750           0.250
 91  6  6 17 40 44.9980000  0  5G18G 2G11G16G 6
  21244048.170     3059936.209 7   2384354.93623        24.750           2.500
  21943747.217   -12662763.343 6  -9867072.60121        19.250           1.469
  22514057.256    -8578940.894 6  -6684880.50721        16.000           0.969
  23252709.623    -5661580.818 5  -4222803.60421        10.000           0.406
  23441938.107    -4562297.155 5  -3353715.05821         9.250           0.313
 91  6  6 17 40 59.9980000  0  5G18G 2G11G16G 6
  21247710.537     3079183.289 7   2399352.58022        24.500           2.438
  21932807.186   -12720253.423 6  -9911870.02022        19.500           1.563
  22508107.826    -8610207.362 6  -6709243.99321        16.000           0.906
  23247241.912    -5690319.260 5  -4245197.21021        10.000           0.406
  23431597.014    -4616632.237 5  -3396054.07821         9.000           0.281
 91  6  6 17 41 14.9980000  0  5G18G 2G11G16G 6
  21251384.842     3098491.916 7   2414398.18222        24.500           2.375
  21921874.225   -12777703.436 6  -9956636.21621        19.500           1.438
  22502180.107    -8641356.471 6  -6733516.02821        16.000           0.938
  23241790.115    -5718951.410 5  -4267508.01121         9.750           0.344
  23421254.084    -4670982.817 5  -3438405.19021         9.000           0.281
 91  6  6 17 41 29.9980000  0  5G18G 2G11G16G 6
  21255069.904     3117854.698 7   2429485.99222        24.750           2.375
  21910949.225   -12835120.675 7 -10001376.88121        20.000           1.469
  22496272.998    -8672395.421 6  -6757702.22421        15.750           1.031
  23236363.248    -5747484.050 5  -4289741.23921         9.750           0.469
  23410908.092    -4725356.297 5  -3480774.11621         8.750           0.344
 91  6  6 17 41 44.9980000  0  5G18G 2G11G16G 6
  21258765.873     3137276.652 7   2444619.90922        24.750           2.344
  21900030.334   -12892499.616 7 -10046087.70521        20.000           1.469
  22490388.420    -8703318.653 6  -6781798.25221        16.000           0.875
  23230952.639    -5775912.035 5  -4311892.94221         9.750           0.375
  23400557.131    -4779747.185 5  -3523156.59321         7.750           0.344
 91  6  6 17 41 59.9980000  0  5G18G 2G11G16G 6
  21262471.514     3156750.554 7   2459794.30122        24.750           2.281
  21889116.584   -12949847.193 7 -10090774.07821        20.000           1.469
  22484524.967    -8734133.027 6  -6805809.45121        16.000           0.813
  23225560.342    -5804242.492 5  -4333968.64721        10.000           0.344
  23390202.592    -4834162.630 5  -3565558.19421         7.750           0.406
 91  6  6 17 42 14.9980000  0  5G18G 2G11G16G 6
  21266188.311     3176280.542 7   2475012.39722        24.750           2.375
  21878210.436   -13007158.899 6 -10135432.51021        19.250           1.469
  22478682.795    -8764834.114 6  -6829732.37621        16.250           1.031
  23220191.529    -5832471.215 5  -4355965.54121        10.750           0.500
  23379844.857    -4888598.394 5  -3607975.65621         7.500           0.500
 91  6  6 17 42 29.9980000  0  5G18G 2G11G16G 6
  21269915.912     3195870.090 7   2490276.90722        25.000           2.469
  21867311.561   -13064431.489 6 -10180060.45922        19.500           1.500
  22472863.936    -8795418.347 6  -6853564.24121        16.750           1.000
  23214837.654    -5860594.546 5  -4377879.83821        10.250           0.375
  23369480.811    -4943051.073 5  -3650406.27121         8.000           0.375
 91  6  6 17 42 44.9980000  0  5G18G 2G11G16G 6
  21273655.936     3215524.642 7   2505592.07022        24.500           2.438
  21856422.584   -13121659.013 6 -10224653.28922        19.500           1.531
  22467067.459    -8825879.725 6  -6877300.38021        16.500           1.000
  23209506.162    -5888606.578 5  -4399707.41121        10.250           0.375
  23359115.412    -4997514.919 5  -3692845.59821         8.000           0.469
 91  6  6 17 42 59.9980000  0  5G18G 2G11G16G 6
  21277407.545     3235239.265 7   2520954.03622        25.000           2.281
  21845539.522   -13178845.788 6 -10269214.37121        19.750           1.469
  22461292.139    -8856222.551 6  -6900944.13621        16.250           1.000
  23204197.076    -5916512.111 5  -4421452.01821        10.000           0.406
  23348749.115    -5051994.280 5  -3735297.03321         8.500           0.313
 91  6  6 17 43 14.9980000  0  5G18G 2G11G16G 6
  21281169.897     3255011.911 7   2536361.22022        24.500           2.375
  21834664.264   -13235993.814 6 -10313745.25422        19.750           1.500
  22455541.326    -8886448.842 6  -6924497.09921        16.250           0.969
  23198907.443    -5944313.267 5  -4443115.75221        10.250           0.375
  23338381.779    -5106491.436 5  -3777762.33021         8.750           0.281
 91  6  6 17 43 29.9980000  0  5G18G 2G11G16G 6
  21284942.272     3274828.632 7   2551802.74022        24.750           2.375
  21823796.272   -13293116.677 7 -10358256.54022        20.000           1.500
  22449808.022    -8916572.080 6  -6947969.75021        16.250           0.906
  23193635.303    -5972023.327 5  -4464708.02321        10.500           0.438
  23328002.928    -5161019.898 5  -3820252.04021         8.000           0.313
 91  6  6 17 43 44.9980000  0  5G18G 2G11G16G 6
  21288734.842     3294762.265 7   2567335.36822        24.750           2.438
  21812943.475   -13350141.306 6 -10402691.27422        19.750           1.531
  22444109.162    -8946519.069 6  -6971305.06621        16.500           1.094
  23188390.303    -5999569.449 5  -4486172.56021        10.250           0.344
  23317638.467    -5215506.808 5  -3862709.33521         8.000           0.344
 91  6  6 17 43 59.9980000  0  5G18G 2G11G16G 6
  21292534.240     3314725.877 7   2582891.35222        24.500           2.406
  21802093.373   -13407153.992 6 -10447116.70122        19.500           1.594
  22438428.592    -8976376.246 6  -6994570.39821        16.500           1.125
  23183164.678    -6027038.184 5  -4507576.76721        10.750           0.438
  23307258.553    -5270038.736 5  -3905201.70321         7.750           0.344
 91  6  6 17 44 14.9980000  0  5G18G 2G11G16G 6
  21296344.795     3334751.776 7   2598495.87722        24.750           2.375
  21791254.217   -13464122.380 6 -10491507.60922        19.500           1.500
  22432768.764    -9006111.211 6  -7017740.50121        16.000           1.063
  23177955.217    -6054397.204 5  -4528895.51821        10.750           0.313
  23296877.365    -5324583.380 5  -3947704.00521         7.500           0.438
 91  6  6 17 44 29.9980000  0  5G18G 2G11G16G 6
  21300161.936     3354814.107 7   2614128.78922        24.250           2.406
  21780416.459   -13521072.097 6 -10535883.96822        19.750           1.531
  22427128.928    -9035749.393 6  -7040835.18221        16.000           1.031
  23172768.451    -6081672.261 5  -4550148.81121        10.500           0.344
  23286490.709    -5379166.276 5  -3990236.08321         7.750           0.375
 91  6  6 17 44 44.9980000  0  5G18G 2G11G16G 6
  21303989.865     3374926.812 7   2629800.94922        24.250           2.344
  21769585.975   -13577988.962 6 -10580234.73122        19.750           1.625
  22421511.279    -9065276.629 6  -7063843.41921        16.250           1.031
  23167596.443    -6108849.104 5  -4571325.59021        10.750           0.438
  23276099.303    -5433773.546 5  -4032787.16121         8.250           0.500
 91  6  6 17 44 59.9980000  0  5G18G 2G11G16G 6
  21307828.842     3395102.102 7   2645521.87922        24.250           2.250
  21758761.834   -13634860.381 6 -10624550.08322        19.500           1.656
  22415915.311    -9094680.188 6  -7086755.27621        16.500           1.125
  23162447.857    -6135915.448 5  -4592416.25921        10.750           0.500
  23265706.576    -5488392.614 5  -4075347.45221         8.000           0.531
 91  6  6 17 45 14.9980000  0  5G18G 2G11G16G 6
  21311679.217     3415336.458 7   2661288.83622        24.000           2.344
  21747949.068   -13691689.513 6 -10668832.48322        19.750           1.688
  22410343.467    -9123963.256 6  -7109573.25721        16.500           0.969
  23157315.459    -6162874.307 5  -4613423.17921        10.750           0.469
  23255309.092    -5543026.761 5  -4117919.46421         8.750           0.531
 91  6  6 17 45 29.9980000  0  5G18G 2G11G16G 6
  21315539.795     3435622.397 7   2677095.98922        24.000           2.250
  21737141.717   -13748483.502 7 -10713087.49822        20.000           1.563
  22404792.006    -9153132.982 6  -7132302.90421        16.750           0.969
  23152208.170    -6189733.252 5  -4634352.24121        11.250           0.344
  23244906.615    -5597683.298 5  -4160508.96521         8.750           0.500
 91  6  6 17 45 44.9980000  0  5G18G 2G11G16G 6
  21319411.623     3455967.611 7   2692949.32422        23.750           2.250
  21726341.600   -13805234.295 7 -10757308.85622        20.000           1.625
  22399264.803    -9182181.253 6  -7154937.91421        16.250           0.969
  23147114.420    -6216484.214 5  -4655197.65521        11.000           0.313
  23234506.443    -5652354.295 5  -4203109.70321         9.500           0.500
 91  6  6 17 45 59.9980000  0  5G18G 2G11G16G 6
  21323295.295     3476377.293 7   2708852.89922        23.750           2.375
  21715551.615   -13861936.556 6 -10801492.40022        19.750           1.625
  22393760.451    -9211102.656 6  -7177474.07021        16.250           1.063
  23142043.272    -6243121.862 5  -4675954.27221        10.750           0.469
  23224099.795    -5707034.443 5  -4245717.58121         9.250           0.438
 91  6  6 17 46 14.9980000  0  5G18G 2G11G16G 6
  21327191.568     3496849.312 7   2724805.05522        24.250           2.250
  21704770.568   -13918592.204 7 -10845639.61822        20.000           1.719
  22388281.834    -9239898.889 6  -7199912.68121        16.500           0.906
  23136997.459    -6269648.155 5  -4696624.13121        10.750           0.500
  23213691.092    -5761725.692 5  -4288334.10821         8.750           0.344
 91  6  6 17 46 29.9980000  0  5G18G 2G11G16G 6
  21331099.404     3517384.300 7   2740806.27322        24.250           2.250
  21693998.967   -13975200.283 7 -10889749.77522        20.250           1.656
  22382825.818    -9268569.084 6  -7222253.08321        16.500           1.031
  23131973.498    -6296062.304 5  -4717206.60021        10.500           0.563
  23203281.725    -5816427.331 5  -4330958.73321         8.500           0.438
 91  6  6 17 46 44.9980000  0  5G18G 2G11G16G 6
  21335018.889     3537981.923 7   2756856.29522        24.000           2.219
  21683235.272   -14031760.508 7 -10933822.63622        20.500           1.656
  22377394.529    -9297112.878 6  -7244494.98821        16.500           1.031
  23126964.295    -6322364.034 5  -4737701.47321        10.500           0.500
  23192871.897    -5871139.128 5  -4373591.27421         8.750           0.438
 91  6  6 17 46 59.9980000  0  5G18G 2G11G16G 6
  21338951.865     3558650.593 7   2772961.68422        23.750           2.156
  21672483.701   -14088264.643 7 -10977851.78722        20.500           1.656
  22371987.639    -9325521.893 6  -7266631.87121        16.500           1.094
  23121985.576    -6348545.316 5  -4758102.48821        10.500           0.531
  23182461.240    -5925852.930 5  -4416225.36121         9.000           0.344
 91  6  6 17 47 14.9980000  0  5G18G 2G11G16G 6
  21342897.818     3579384.435 7   2789117.84722        23.750           2.188
  21661739.842   -14144718.116 7 -11021841.46922        20.000           1.719
  22366606.342    -9353801.809 6  -7288668.16521        16.500           1.000
  23117024.240    -6374611.777 5  -4778414.02721        10.750           0.469
  23172045.928    -5980574.316 5  -4458865.38021         9.000           0.375
 91  6  6 17 47 29.9980000  0  5G18G 2G11G16G 6
  21346853.389     3600176.267 7   2805319.19522        23.250           2.219
  21651006.818   -14201127.730 7 -11065796.97022        20.250           1.813
  22361247.522    -9381959.178 6  -7310608.95621        16.500           0.938
  23112086.607    -6400570.152 5  -4798641.35121        11.000           0.375
  23161630.092    -6035310.132 5  -4501516.64421         8.750           0.375
 91  6  6 17 47 44.9980000  0  5G18G 2G11G16G 6
  21350811.647     3620976.139 7   2821526.81422        23.750           2.188
  21640271.303   -14257542.949 7 -11109756.84122        20.000           1.781
  22355904.818    -9410043.446 6  -7332492.79421        16.500           1.031
  23107156.600    -6426470.188 5  -4818823.20621        11.250           0.469
  23151204.123    -6090110.051 5  -4544217.83221         9.250           0.500
 91  6  6 17 47 59.9980000  0  5G18G 2G11G16G 6
  21354777.139     3641805.565 7   2837757.46122        23.750           2.125
  21629537.990   -14313942.039 7 -11153704.14122        20.000           1.813
  22350577.412    -9438032.919 6  -7354302.75921        16.500           1.031
  23102240.631    -6452290.254 5  -4838943.25621        11.250           0.500
  23140764.225    -6144952.307 5  -4586952.03821         9.000           0.469
 91  6  6 17 48 14.9980000  0  5G18G 2G11G16G 6
  21358751.412     3662695.297 7   2854035.09922        23.500           2.125
  21618813.537   -14370294.242 6 -11197614.91122        19.750           1.844
  22345274.631    -9465896.810 6  -7376014.86121        16.000           1.063
  23097350.107    -6477999.649 5  -4858976.56521        11.250           0.469
  23130326.826    -6199806.385 5  -4629695.44521         9.500           0.313
 91  6  6 17 48 29.9980000  0  5G18G 2G11G16G 6
  21362739.147     3683651.382 7   2870364.44622        23.250           2.156
  21608102.904   -14426593.004 7 -11241484.03222        20.250           1.813
  22339998.951    -9493628.500 6  -7397623.95521        16.250           1.000
  23092478.732    -6503591.863 5  -4878918.58721        11.250           0.438
  23119889.654    -6254665.815 5  -4672443.01721         9.750           0.406
 91  6  6 17 48 44.9980000  0  5G18G 2G11G16G 6
  21366738.029     3704666.614 7   2886739.87622        23.000           2.156
  21597396.998   -14482845.172 7 -11285316.84822        20.250           1.781
  22334744.943    -9521234.890 6  -7419135.41021        16.500           1.000
  23087633.397    -6529074.146 5  -4898774.91721        11.250           0.406
  23109447.436    -6309537.483 5  -4715200.14521         9.750           0.281
 91  6  6 17 48 59.9980000  0  5G18G 2G11G16G 6
  21370748.201     3725737.805 7   2903158.90622        23.250           2.250
  21586700.553   -14539053.461 7 -11329115.46522        20.250           1.719
  22329514.303    -9548718.595 6  -7440551.26621        16.500           1.094
  23082803.795    -6554449.146 5  -4918547.67221        11.750           0.281
  23099002.897    -6364424.193 5  -4757968.96721         9.500           0.375
 91  6  6 17 49 14.9980000  0  5G18G 2G11G16G 6
  21374770.647     3746871.004 7   2919626.26122        23.750           2.313
  21576014.100   -14595211.664 7 -11372875.06522        20.000           1.781
  22324310.350    -9576073.459 6  -7461866.72721        16.500           1.000
  23077994.459    -6579710.682 5  -4938232.01621        11.500           0.438
  23088558.350    -6419319.981 5  -4800744.88121         9.250           0.375
 91  6  6 17 49 29.9980000  0  5G18G 2G11G16G 6
  21378802.982     3768064.996 7   2936140.98322        23.250           2.281
  21565337.107   -14651320.855 7 -11416596.46322        20.500           1.750
  22319127.881    -9603300.399 6  -7483082.51021        16.500           1.063
  23073211.545    -6604860.038 5  -4957828.93221        11.250           0.438
  23078109.662    -6474225.892 5  -4843528.67821         9.000           0.344
 91  6  6 17 49 44.9980000  0  5G18G 2G11G16G 6
  21382847.740     3789319.026 7   2952702.48422        23.500           2.250
  21554668.568   -14707381.686 7 -11460280.18922        20.000           1.844
  22313971.857    -9630399.885 6  -7504198.97121        16.750           1.031
  23068446.818    -6629898.014 5  -4977339.09021        11.000           0.344
  23067657.701    -6529142.641 5  -4886320.92521         9.000           0.375
 91  6  6 17 49 59.9980000  0  5G18G 2G11G16G 6
  21386903.873     3810633.138 7   2969310.80222        23.500           2.156
  21544009.545   -14763393.489 7 -11503925.70622        20.000           1.719
  22308839.381    -9657371.428 6  -7525215.73521        16.750           1.063
  23063700.178    -6654824.200 5  -4996762.10521        10.500           0.469
  23057203.787    -6584069.718 5  -4929121.23121         9.000           0.313
 91  6  6 17 50 14.9980000  0  5G18G 2G11G16G 6
  21390970.904     3832006.969 7   2985965.65722        23.750           2.156
  21533360.654   -14819356.405 7 -11547533.12622        20.250           1.656
  22303730.881    -9684215.013 6  -7546132.79321        16.500           1.000
  23058980.193    -6679638.385 5  -5016097.85421        11.000           0.438
  23046751.389    -6639007.280 5  -4971929.68821         8.500           0.313
 91  6  6 17 50 29.9980000  0  5G18G 2G11G16G 6
  21395050.045     3853441.879 7   3002668.10622        23.500           2.188
  21522721.545   -14875268.999 7 -11591101.33122        20.250           1.813
  22298647.045    -9710929.174 6  -7566949.00321        16.250           1.000
  23054281.943    -6704339.423 5  -5035345.44321        11.000           0.500
  23036294.537    -6693953.852 5  -5014745.18021         9.250           0.313
 91  6  6 17 50 44.9980000  0  5G18G 2G11G16G 6
  21399139.326     3874934.806 7   3019415.75722        23.250           2.281
  21512090.701   -14931133.863 7 -11634632.35022        20.250           1.781
  22293588.490    -9737516.561 6  -7587666.42721        16.250           1.000
  23049598.014    -6728930.158 5  -5054507.07421        10.500           0.469
  23025836.334    -6748912.329 5  -5057569.93521         9.500           0.250
 91  6  6 17 50 59.9980000  0  5G18G 2G11G16G 6
  21403241.490     3896489.080 7   3036211.21822        23.500           2.188
  21501468.779   -14986947.421 6 -11678123.39622        19.750           1.844
  22288551.928    -9763973.603 6  -7608282.27621        16.500           0.969
  23044943.412    -6753407.140 5  -5073580.08021        10.250           0.469
  23015376.889    -6803879.176 5  -5100401.25921         9.250           0.250
 91  6  6 17 51 14.9980000  0  5G18G 2G11G16G 6
  21407353.061     3918094.365 7   3053046.42522        23.500           2.250
  21490855.373   -15042719.303 7 -11721581.97122        20.250           1.719
  22283542.303    -9790309.916 6  -7628804.05321        16.500           1.031
  23040304.037    -6777780.093 5  -5092572.00921         9.750           0.406
  23004914.482    -6858864.141 5  -5143246.64621         9.750           0.344
 91  6  6 17 51 29.9980000  0  5G18G 2G11G16G 6
  21411474.787     3939752.138 7   3069922.53022        23.750           2.063
  21480250.998   -15098447.732 7 -11765006.68122        20.250           1.813
  22278551.857    -9816523.732 6  -7649230.37221        16.250           0.969
  23035685.834    -6802047.489 5  -5111481.70321        10.000           0.500
  22994446.045    -6913865.618 5  -5186104.92421         9.750           0.281
 91  6  6 17 51 44.9980000  0  5G18G 2G11G16G 6
  21415606.022     3961462.057 7   3086839.27122        23.250           2.250
  21469654.420   -15154133.174 7 -11808397.90022        20.500           1.750
  22273589.475    -9842615.362 6  -7669561.49221        16.500           1.031
  23031089.162    -6826209.790 5  -5130309.48421        10.000           0.531
  22983980.209    -6968884.050 5  -5228976.40621         9.500           0.438
 91  6  6 17 51 59.9980000  0  5G18G 2G11G16G 6
  21419747.647     3983223.204 7   3103795.92822        23.500           2.063
  21459066.334   -15209776.138 7 -11851756.02422        20.000           1.688
  22268645.701    -9868585.379 6  -7689797.84221        16.500           1.063
  23026509.100    -6850267.461 5  -5149055.75621        10.250           0.563
  22973503.772    -7023920.167 5  -5271861.66921         9.000           0.313
 91  6  6 17 52 14.9980000  0  5G18G 2G11G16G 6
  21423897.107     4005036.221 7   3120793.00322        23.500           2.000
  21448485.553   -15265375.408 7 -11895080.09722        20.250           1.719
  22263727.537    -9894432.604 6  -7709938.50721        16.250           1.000
  23021952.615    -6874219.603 5  -5167719.78421        10.000           0.375
  22963029.537    -7078972.787 5  -5314759.79821         9.250           0.375
 91  6  6 17 52 29.9980000  0  5G18G 2G11G16G 6
  21428057.545     4026898.878 7   3137828.76722        23.250           2.188
  21437913.154   -15320933.136 7 -11938371.80522        20.250           1.719
  22258832.068    -9920159.062 6  -7729985.07321        16.500           1.000
  23017412.740    -6898068.506 5  -5186303.37421        10.000           0.531
  22952547.482    -7134044.053 5  -5357672.45821         9.250           0.344
 91  6  6 17 52 44.9980000  0  5G18G 2G11G16G 6
  21432227.842     4048811.115 7   3154903.16022        23.250           2.094
  21427349.287   -15376449.156 7 -11981631.00922        20.250           1.719
  22253959.365    -9945764.564 6  -7749937.38621        16.500           1.000
  23012896.123    -6921814.135 5  -5204806.48521        10.250           0.438
  22942062.725    -7189133.862 5  -5400599.55221         9.250           0.406
 91  6  6 17 52 59.9980000  0  5G18G 2G11G16G 6
  21436407.912     4070771.943 7   3172015.41222        23.250           2.094
  21416793.193   -15431923.944 7 -12024858.08722        20.750           1.656
  22249109.115    -9971249.704 6  -7769795.90621        16.500           1.031
  23008396.084    -6945457.033 5  -5223229.54021        10.000           0.469
  22931578.123    -7244242.896 5  -5443541.64221         9.000           0.375
 91  6  6 17 53 14.9980000  0  5G18G 2G11G16G 6
  21440595.170     4092784.042 7   3189167.61922        22.750           2.031
  21406244.639   -15487354.732 7 -12068050.87622        20.250           1.750
  22244283.389    -9996611.628 6  -7789558.42421        16.750           1.063
  23003919.717    -6968994.477 5  -5241570.44121        10.500           0.375
  22921088.186    -7299368.467 5  -5486496.59421         9.000           0.344
 91  6  6 17 53 29.9980000  0  5G18G 2G11G16G 6
  21444793.982     4114845.457 7   3206358.24622        23.000           2.000
  21395702.756   -15542743.389 7 -12111210.83722        20.250           1.938
  22239481.178   -10021852.213 6  -7809226.38521        16.750           1.000
  22999458.936    -6992428.426 5  -5259830.68421        10.250           0.438
  22910594.732    -7354512.434 5  -5529465.86821         9.750           0.281
 91  6  6 17 53 44.9980000  0  5G18G 2G11G16G 6
  21449001.584     4136954.094 7   3223585.67922        23.000           2.000
  21385171.670   -15598091.530 7 -12154339.22122        20.500           1.875
  22234699.928   -10046973.044 6  -7828801.03221        16.750           1.031
  22995018.350    -7015760.746 5  -5278011.73921        10.000           0.438
  22900098.514    -7409676.476 5  -5572450.83221        10.000           0.281
 91  6  6 17 53 59.9980000  0  5G18G 2G11G16G 6
  21453217.881     4159110.627 7   3240850.42422        23.000           2.125
  21374648.006   -15653398.167 7                        20.500
  22229943.436   -10071973.022 6  -7848281.51021        17.000           1.031
  22990596.553    -7038990.498 5  -5296112.87621        10.250           0.438
  22889595.404    -7464859.652 5                        10.250
 91  6  6 17 54 14.9980000  0  5G18G 2G11G16G 6
  21457443.053     4181312.654 7   3258150.63222        22.750           1.969
  21364130.482   -15708665.286 7                        20.750
  22225207.904   -10096854.169 6  -7867669.40221        16.500           1.000
  22986196.115    -7062119.930 5  -5314135.82821        10.250           0.375
  22879092.561    -7520064.019 5                        10.750
 91  6  6 17 54 29.9980000  0  5G18G 2G11G16G 6
  21461675.811     4203564.950 7   3275490.00222        22.250           1.906
  21353621.756   -15763887.665 7                        21.000
  22220497.178   -10121611.276 6  -7886960.63121        16.500           0.906
  22981814.397    -7085144.007 5  -5332076.69721        10.750           0.469
  22868582.975    -7575284.617 5                        10.750
 91  6  6 17 54 44.9980000  0  5G18G 2G11G16G 6
  21465920.982     4225870.526 7   3292870.88522        22.500           1.938
  21343121.998   -15819062.072 7                        20.500
  22215809.951   -10146241.145 6  -7906152.71021        16.500           0.969
  22977452.881    -7108059.679 5  -5349933.08921        10.250           0.531
  22858071.803    -7630518.260 5                        10.250
 91  6  6 17 54 59.9980000  0  5G18G 2G11G16G 6
  21470176.818     4248229.728 7   3310293.56122        22.750           2.000
  21332632.826   -15874188.139 7 -12369479.29322        20.750           1.969
  22211146.225   -10170743.377 6  -7925245.34221        16.500           0.875
  22973115.006    -7130866.597 5  -5367704.74321        10.500           0.531
  22847560.482    -7685764.510 5  -5787584.26821        10.250           0.531
 91  6  6 17 55 14.9980000  0  5G18G 2G11G16G 6
  21474441.803     4270640.876 7   3327756.71022        22.500           1.906
  21322151.678   -15929267.069 7 -12412397.90922        20.750           1.844
  22206506.951   -10195119.265 6  -7944239.51221        16.500           0.938
  22968793.795    -7153566.007 5  -5385392.62121        10.500           0.438
  22837045.990    -7741024.813 5  -5830644.22221        10.250           0.438
 91  6  6 17 55 29.9970000  0  5G18G 2G11G16G 6
  21478717.603     4293108.415 7   3345263.80022        22.500           1.875
  21311680.813   -15984288.912 7 -12455272.03622        21.000           1.844
  22201895.774   -10219360.836 6  -7963129.03721        16.750           1.094
  22964497.524    -7176150.372 5  -5402990.86221        10.250           0.406
  22826530.743    -7796289.222 5  -5873707.39021        10.250           0.375
 91  6  6 17 55 44.9970000  0  5G18G 2G11G16G 6
  21483001.173     4315619.746 7   3362805.00822        22.250           1.906
  21301216.853   -16039276.286 7 -12498119.31122        21.000           1.906
  22197303.610   -10243486.586 6  -7981928.30121        16.750           1.156
  22960220.048    -7198638.162 5  -5420513.83421        10.750           0.469
  22816003.712    -7851580.431 5  -5916791.41321        10.250           0.500
 91  6  6 17 55 59.9970000  0  5G18G 2G11G16G 6
  21487295.095     4338183.853 7   3380387.34422        22.250           1.906
  21290762.407   -16094214.858 7 -12540928.54822        21.000           1.906
  22192737.985   -10267484.291 6  -8000627.79321        16.750           1.063
  22955959.774    -7221017.238 5  -5437952.60421        11.250           0.469
  22805483.313    -7906884.193 5  -5959885.21421        10.250           0.438
 91  6  6 17 56 14.9970000  0  5G18G 2G11G16G 6
  21491599.360     4360803.558 7   3398013.00422        22.250           1.844
  21280318.181   -16149101.401 7 -12583697.24322        21.250           1.938
  22188196.462   -10291350.762 6  -8019225.02521        16.750           1.000
  22951722.353    -7243284.423 5  -5455303.68421        11.000           0.531
  22794956.048    -7962197.443 5  -6002986.44521        10.250           0.438
 91  6  6 17 56 29.9970000  0  5G18G 2G11G16G 6
  21495912.915     4383474.877 7   3415678.88022        22.250           1.844
  21269882.454   -16203939.484 7 -12626428.18322        21.250           1.969
  22183679.642   -10315089.611 6  -8037722.81121        16.750           0.969
  22947506.009    -7265443.742 5  -5472570.71421        11.000           0.375
  22784428.681    -8017523.836 5  -6046097.88321        10.250           0.469
 91  6  6 17 56 44.9970000  0  5G18G 2G11G16G 6
  21500235.938     4406189.552 7   3433378.54122        21.750           1.813
  21259455.704   -16258737.172 7 -12669127.64522        21.000           2.125
  22179184.188   -10338708.797 6  -8056127.35421        16.500           0.906
  22943309.142    -7287503.356 5  -5489760.04521        11.500           0.375
  22773896.610    -8072871.329 5  -6089225.78821        11.000           0.438
 91  6  6 17 56 59.9970000  0  5G18G 2G11G16G 6
  21504566.579     4428953.482 7   3451116.58022        21.250           1.750
  21249034.954   -16313488.417 7 -12711790.92222        21.000           2.000
  22174712.923   -10362202.275 6  -8074433.94321        16.750           0.938
  22939130.821    -7309457.222 5  -5506866.98521        11.500           0.469
  22763362.509    -8128234.062 5  -6132365.54421        11.000           0.594
 91  6  6 17 57 14.9970000  0  5G18G 2G11G16G 6
  21508908.673     4451767.618 7   3468893.73722        21.250           1.781
  21238625.095   -16368192.077 7 -12754417.12222        21.000           2.000
  22170267.313   -10385568.816 6  -8092641.62421        16.500           1.063
  22934973.345    -7331304.246 5  -5523890.67321        11.500           0.438
  22752822.368    -8183610.820 5  -6175516.24621        10.500           0.500
 91  6  6 17 57 29.9970000  0  5G18G 2G11G16G 6
  21513259.962     4474629.776 7   3486708.31822        21.750           1.750
  21228226.017   -16422850.039 7 -12797007.70822        21.250           1.906
  22165845.368   -10408810.357 6  -8110751.90421        16.750           1.094
  22930834.556    -7353046.675 5  -5540832.84521        10.750           0.344
  22742280.040    -8239003.620 5  -6218679.44921        10.250           0.438
 91  6  6 17 57 44.9970000  0  5G18G 2G11G16G 6
  21517620.360     4497543.883 7   3504563.37822        22.000           1.844
  21217833.907   -16477457.815 7 -12839559.19322        21.250           2.031
  22161446.509   -10431922.469 6  -8128761.32921        16.500           1.094
  22926718.524    -7374680.185 5  -5557690.16321        10.750           0.344
  22731738.782    -8294408.082 5  -6261851.72221         9.750           0.531
 91  6  6 17 57 59.9970000  0  5G18G 2G11G16G 6
  21521989.688     4520507.619 7   3522457.10722        21.750           1.750
  21207451.478   -16532017.398 7 -12882073.13122        21.500           2.000
  22157072.173   -10454907.163 6  -8146671.47221        16.750           0.969
  22922621.345    -7396206.807 5  -5574464.19621        10.750           0.313
  22721191.228    -8349826.260 5  -6305034.69621         9.500           0.406
 91  6  6 17 58 14.9970000  0  5G18G 2G11G16G 6
  21526369.587     4543523.589 7   3540391.54222        22.000           1.781
  21197079.767   -16586525.664 7 -12924547.07122        21.500           1.938
  22152723.204   -10477761.501 6  -8164480.03321        16.750           0.938
  22918547.017    -7417623.589 5  -5591152.61221        10.750           0.438
  22710644.087    -8405255.214 5  -6348226.06221        10.000           0.375
 91  6  6 17 58 29.9970000  0  5G18G 2G11G16G 6
  21530759.298     4566587.338 7   3558363.20922        21.750           1.875
  21186715.173   -16640986.972 7 -12966984.42222        21.500           2.031
  22148397.634   -10500489.705 6  -8182190.31021        16.500           0.906
  22914490.306    -7438934.997 5  -5607758.94421        10.750           0.344
  22700095.118    -8460699.260 5  -6391429.19321        10.250           0.531
 91  6  6 17 58 44.9970000  0  5G18G 2G11G16G 6
  21535157.626     4589698.204 7   3576371.58322        21.750           1.813
  21176360.313   -16695401.811 7 -13009385.56122        21.750           2.031
  22144097.009   -10523092.366 6  -8199802.75421        16.500           0.969
  22910456.274    -7460141.654 5  -5624283.62521        10.750           0.344
  22689542.376    -8516158.997 5  -6434644.55821        10.500           0.469
 91  6  6 17 58 59.9970000  0  5G18G 2G11G16G 6
  21539565.001     4612860.460 7   3594420.00722        21.750           1.844
  21166015.978   -16749765.909 7 -13051747.17022        21.750           2.000
  22139820.728   -10545565.061 6  -8217313.92821        16.750           0.938
  22906441.251    -7481239.327 5  -5640723.40121        10.000           0.438
  22678982.860    -8571630.076 5  -6477868.74521        10.000           0.469
 91  6  6 17 59 14.9970000  0  5G18G 2G11G16G 6
  21543982.103     4636074.398 7   3612508.69822        21.750           1.813
  21155680.149   -16804078.261 7 -13094068.45922        21.500           1.906
  22135569.360   -10567906.841 6  -8234723.09821        16.750           1.000
  22902445.704    -7502227.391 5  -5657077.78321        10.250           0.438
  22668428.235    -8627111.599 5  -6521101.04721        10.000           0.500
 91  6  6 17 59 29.9970000  0  5G18G 2G11G16G 6
  21548409.282     4659335.640 7   3630634.25422        21.750           1.875
  21145353.329   -16858343.076 7 -13136352.71122        21.750           2.063
  22131342.806   -10590121.873 6  -8252033.49921        17.000           0.969
  22898474.235    -7523110.226 5  -5673350.13821        10.000           0.469
  22657867.501    -8682607.897 5  -6564344.90421        10.250           0.531
 91  6  6 17 59 44.9970000  0  5G18G 2G11G16G 6
  21552845.048     4682646.876 7   3648798.76222        21.250           1.781
  21135037.040   -16912557.441 7 -13178597.64422        22.000           1.969
  22127140.063   -10612207.398 6  -8269242.98921        16.750           0.906
  22894519.181    -7543885.189 5  -5689538.46721        10.250           0.375
  22647304.087    -8738116.149 5  -6607598.06821         9.750           0.500
 91  6  6 17 59 59.9970000  0  5G18G 2G11G16G 6
  21557291.423     4706011.488 7   3667004.86622        21.500           1.813
  21124730.978   -16966717.559 7 -13220800.30922        22.000           2.063
  22122962.024   -10634159.651 6  -8286348.62321        17.000           1.031
  22890588.681    -7564548.217 5  -5705639.56221        10.500           0.344
  22636738.649    -8793632.663 5  -6650857.65321         9.750           0.531
 91  6  6 18  0 14.9970000  0  5G18G 2G11G16G 6
  21561747.493     4729429.473 7   3685252.56022        21.000           1.781
  21114435.618   -17020822.975 7 -13262960.34922        22.000           2.125
  22118808.837   -10655978.201 6  -8303350.08421        16.750           0.969
  22886675.626    -7585099.408 5  -5721653.50221        10.000           0.375
  22626173.142    -8849156.999 5  -6694123.33621        10.250           0.500
 91  6  6 18  0 29.9970000  0  5G18G 2G11G16G 6
  21566213.821     4752900.797 7   3703541.81122        21.250           1.875
  21104149.837   -17074873.501 7 -13305077.62322        22.000           2.000
  22114684.470   -10677662.729 6  -8320247.10921        17.000           1.031
  22882789.126    -7605538.537 5  -5737580.12121        10.250           0.375
  22615605.618    -8904688.922 5  -6737394.95221        10.000           0.438
 91  6  6 18  0 44.9970000  0  5G18G 2G11G16G 6
  21570691.345     4776427.961 7   3721874.57522        21.250           1.750
  21093875.134   -17128866.516 7 -13347150.08122        21.500           2.000
  22110583.782   -10699210.650 6  -8337037.68721        17.000           0.906
  22878919.563    -7625863.039 5  -5753417.42721        10.000           0.375
  22605037.423    -8960225.911 5  -6780670.49721        10.750           0.500
 91  6  6 18  0 59.9970000  0  5G18G 2G11G16G 6
  21575177.423     4800009.202 7   3740249.47422        21.500           1.750
  21083610.931   -17182803.151 7 -13389178.60622        21.750           2.125
  22106508.681   -10720623.140 6  -8353722.73221        16.750           0.938
  22875074.509    -7646074.209 5  -5769166.42121         9.750           0.406
  22594467.563    -9015769.166 5  -6823950.93921        10.750           0.469
 91  6  6 18  1 14.9970000  0  5G18G 2G11G16G 6
  21579676.524     4823644.781 7   3758666.71722        21.750           1.719
  21073358.157   -17236683.218 7 -13431163.05122        22.000           2.281
  22102458.743   -10741900.058 6  -8370302.13121        16.750           0.938
  22871251.532    -7666172.181 5  -5784827.22221         9.750           0.281
  22583897.220    -9071318.557 5  -6867236.15821        10.500           0.563
 91  6  6 18  1 29.9970000  0  5G18G 2G11G16G 6
  21584184.821     4847334.706 7   3777126.30822        21.250           1.688
  21063115.845   -17290506.336 7 -13473103.12522        22.250           2.219
  22098435.931   -10763041.108 6  -8386775.66721        16.500           0.969
  22867447.188    -7686156.715 5  -5800399.59921        10.000           0.375
  22573327.134    -9126873.763 5  -6910525.90421        10.500           0.563
 91  6  6 18  1 44.9970000  0  5G18G 2G11G16G 6
  21588703.704     4871080.940 7   3795629.77222        20.750           1.719
  21052884.845   -17344270.154 7 -13514996.99522        22.000           2.125
  22094439.376   -10784043.956 6  -8403141.50821        16.500           0.938
  22863664.978    -7706025.429 5  -5815881.76121        10.000           0.375
  22562755.220    -9182432.491 5  -6953818.39921        11.000           0.406
 91  6  6 18  1 59.9970000  0  5G18G 2G11G16G 6
  21593231.415     4894879.183 7   3814173.76222        20.750           1.750
  21042664.353   -17397978.528 7 -13556847.65122        22.000           2.125
  22090468.329   -10804912.457 6  -8419402.66621        16.500           0.938
  22859904.243    -7725782.403 5  -5831276.81921        10.250           0.406
  22552178.853    -9237998.691 5  -6997116.70421        11.250           0.594
 91  6  6 18  2 14.9970000  0  5G18G 2G11G16G 6
  21597770.790     4918731.962 7   3832760.24422        20.750           1.750
  21032455.142   -17451628.714 7 -13598652.97422        21.500           2.000
  22086525.056   -10825643.970 6  -8435557.08121        16.750           1.000
  22856167.946    -7745425.378 5  -5846583.06921        10.250           0.406
  22541603.103    -9293569.696 5  -7040418.76221        11.500           0.656
 91  6  6 18  2 29.9970000  0  5G18G 2G11G16G 6
  21602321.712     4942643.063 7   3851392.17822        21.000           1.656
  21022256.892   -17505216.694 7 -13640409.82822        22.000           2.125
  22082606.134   -10846234.473 6  -8451601.62721        16.750           1.000
  22852453.329    -7764950.173 5  -5861797.21821        10.250           0.344
  22531029.368    -9349141.509 5  -7083721.45421        11.250           0.563
 91  6  6 18  2 44.9970000  0  5G18G 2G11G16G 6
  21606898.329     4966697.032 7   3870135.43922        20.750           1.656
  21012088.337   -17558657.674 7 -13682052.13322        22.000           2.031
  22078729.720   -10866599.135 6  -8467470.18421        16.500           0.906
  22848775.556    -7784272.276 5  -5876853.43421        10.000           0.438
  22520470.212    -9404629.337 5  -7126958.70921        11.000           0.594
 91  6  6 18  2 59.9970000  0  5G18G 2G11G16G 6
  21611485.157     4990799.099 7   3888916.17422        21.000           1.531
  21001929.501   -17612046.068 7 -13723653.45922        22.250           2.156
  22074880.024   -10886832.486 6  -8483236.42121        16.500           0.938
  22845118.524    -7803486.281 5  -5891825.41521        10.000           0.375
  22509907.063    -9460127.810 5  -7170204.23721        11.000           0.438
 91  6  6 18  3 14.9970000  0  5G18G 2G11G16G 6
  21616080.188     5014942.728 7   3907729.29522        21.000           1.625
  20991777.298   -17665388.161 7 -13765218.70722        22.000           2.125
  22071052.712   -10906940.765 6  -8498905.20021        16.500           0.969
  22841483.649    -7822598.696 5  -5906718.24321        10.000           0.469
  22499347.142    -9515642.960 5  -7213462.78421        11.250           0.594
 91  6  6 18  3 29.9970000  0  5G18G 2G11G16G 6
  21620682.376     5039132.203 7   3926578.14722        20.500           1.594
  20981636.196   -17718679.469 7 -13806744.38022        22.250           2.094
  22067252.040   -10926919.543 6  -8514473.07221        16.750           1.000
  22837866.024    -7841604.943 5  -5921528.32021         9.750           0.344
  22488778.290    -9571170.540 5  -7256730.99421        11.250           0.531
 91  6  6 18  3 44.9970000  0  5G18G 2G11G16G 6
  21625294.642     5063367.075 7   3945462.36622        20.250           1.531
  20971505.681   -17771919.886 7 -13848230.39922        22.750           2.156
  22063473.673   -10946768.955 6  -8529940.13721        16.750           0.969
  22834269.009    -7860505.338 5  -5936255.92721        10.250           0.438
  22478211.360    -9626710.579 5  -7300008.94121        10.750           0.531
 91  6  6 18  3 59.9970000  0  5G18G 2G11G16G 6
  21629911.704     5087631.239 7   3964369.41222        20.250           1.656
  20961381.134   -17825125.218 7 -13889689.07822        22.750           2.188
  22059718.306   -10966504.726 6  -8545318.65221        16.750           0.875
  22830689.274    -7879315.852 5  -5950913.51621        10.000           0.469
  22467633.063    -9682278.776 5  -7343308.81021        10.750           0.594
 91  6  6 18  4 14.9970000  0  5G18G 2G11G16G 6
  21634536.735     5111933.353 6   3983306.03722        19.750           1.563
  20951264.813   -17878286.724 7 -13931113.60322        22.750           2.250
  22055984.540   -10986118.140 6  -8560601.82521        16.500           0.844
  22827128.196    -7898027.959 5  -5965494.40021        10.250           0.313
  22457057.931    -9737866.512 5  -7386623.92921        10.750           0.531
 91  6  6 18  4 29.9970000  0  5G18G 2G11G16G 6
  21639168.392     5136273.992 7   4002272.66722        20.000           1.625
  20941156.462   -17931403.580 7 -13972503.33822        22.500           2.125
  22052277.696   -11005608.384 6  -8575789.01621        16.750           0.938
  22823586.915    -7916640.942 5  -5979998.07021        10.000           0.406
  22446473.149    -9793472.926 5  -7429953.57621        10.750           0.500
 91  6  6 18  4 44.9970000  0  5G18G 2G11G16G 6
  21643806.267     5160648.102 7   4021265.37922        20.250           1.625
  20931055.876   -17984480.503 7 -14013861.95822        22.500           2.156
  22048591.149   -11024980.114 6  -8590883.86921        16.750           1.000
  22820063.884    -7935159.560 5  -5994428.18521        10.000           0.375
  22435890.134    -9849102.818 5  -7473301.52421        11.000           0.531
 91  6  6 18  4 59.9970000  0  5G18G 2G11G16G 6
  21648449.188     5185044.769 7   4040275.67322        20.250           1.531
  20920962.235   -18037527.961 7 -14055197.61622        23.000           2.219
  22044925.860   -11044243.940 6  -8605894.63921        16.500           0.906
  22816555.431    -7953594.295 5  -6008792.95321         9.750           0.344
  22425298.181    -9904766.699 5  -7516675.97521        11.250           0.406
 91  6  6 18  5 14.9970000  0  5G18G 2G11G16G 6
  21653098.806     5209476.548 7   4059313.32222        20.000           1.500
  20910875.665   -18090533.166 7 -14096500.34722        23.000           2.250
  22041283.079   -11063387.010 6  -8620811.31021        16.500           0.844
  22813064.634    -7971932.410 5  -6023082.42521         9.750           0.438
  22414700.626    -9960451.728 5  -7560066.89321        11.250           0.594
 91  6  6 18  5 29.9970000  0  5G18G 2G11G16G 6
  21657753.907     5233941.821 7   4078377.07722        20.000           1.531
  20900796.563   -18143497.360 7 -14137771.12022        23.250           2.188
  22037662.751   -11082410.866 6  -8635635.09321        16.500           0.844
  22809595.017    -7990175.975 5  -6037298.21721         9.500           0.406
  22404098.649   -10016159.452 5  -7603475.49821        11.250           0.500
 91  6  6 18  5 44.9970000  0  5G18G 2G11G16G 6
  21662415.454     5258433.599 6   4097461.48122        19.750           1.594
  20890724.829   -18196427.034 7 -14179014.99722        23.000           2.313
  22034064.532   -11101321.953 6  -8650371.00121        16.750           0.875
  22806139.431    -8008331.390 5  -6051445.32621         9.250           0.406
  22393492.884   -10071896.297 5  -7646906.78721        11.000           0.469
 91  6  6 18  5 59.9970000  0  5G18G 2G11G16G 6
  21667080.798     5282951.979 6   4116566.61122        19.750           1.625
  20880658.462   -18249322.096 7 -14220231.90822        23.250           2.344
  22030487.493   -11120120.157 6  -8665018.94721        17.000           0.875
  22802702.345    -8026399.005 5  -6065524.03721         9.250           0.438
  22382882.001   -10127662.047 5  -7690360.61721        10.750           0.531
 91  6  6 18  6 14.9970000  0  5G18G 2G11G16G 6
  21671750.892     5307492.151 6   4135688.72822        19.750           1.563
  20870599.126   -18302187.279 7 -14261425.52822        23.500           2.375
  22026930.321   -11138810.127 6  -8679582.55821        16.750           0.906
  22799280.813    -8044383.152 5  -6079538.19821        10.000           0.563
  22372264.017   -10183461.361 5  -7733840.58521        11.250           0.469
 91  6  6 18  6 29.9970000  0  5G18G 2G11G16G 6
  21676426.298     5332060.476 6   4154832.77922        19.750           1.594
  20860545.673   -18355015.673 7 -14302590.48222        23.250           2.250
  22023395.017   -11157385.205 6  -8694056.64821        17.000           0.938
  22795871.884    -8062277.304 5  -6093481.72021         9.500           0.469
  22361641.259   -10239287.588 5  -7777341.52121        11.750           0.531
 91  6  6 18  6 44.9970000  0  5G18G 2G11G16G 6
  21681105.040     5356647.722 6   4173991.57422        19.500           1.594
  20850497.462   -18407816.305 7 -14343733.79922        23.000           2.250
  22019880.478   -11175854.532 6  -8708448.32421        16.750           0.938
  22792484.845    -8080091.060 5  -6107362.60421         9.250           0.438
  22351011.438   -10295149.775 6  -7820870.48521        12.000           0.563
 91  6  6 18  6 59.9970000  0  5G18G 2G11G16G 6
  21685790.540     5381272.079 6   4193179.28621        19.000           1.469
  20840459.751   -18460570.405 7 -14384840.85622        23.000           2.281
  22016390.962   -11194199.373 6  -8722743.00421        16.750           1.063
  22789111.806    -8097805.807 5  -6121166.33421         9.000           0.500
  22340378.431   -10351029.318 6  -7864412.97221        12.750           0.563
 91  6  6 18  7 14.9970000  0  5G18G 2G11G16G 6
  21690484.751     5405937.566 6   4212399.03921        19.250           1.469
  20830430.517   -18513273.724 7 -14425908.34922        23.250           2.313
  22012922.954   -11212415.580 6  -8736937.45621        16.500           1.063
  22785763.290    -8115417.101 5  -6134889.96521         8.500           0.406
  22329742.399   -10406922.035 6  -7907965.72721        12.500           0.531
 91  6  6 18  7 29.9970000  0  5G18G 2G11G16G 6
  21695186.087     5430645.355 6   4231651.76821        19.000           1.469
  20820411.782   -18565925.000 7 -14466935.28722        23.750           2.438
  22009482.517   -11230501.882 6  -8751030.67421        16.500           0.844
  22782427.978    -8132924.261 5  -6148531.95121         8.750           0.438
  22319102.360   -10462826.623 5  -7951527.73521        11.750           0.625
 91  6  6 18  7 44.9970000  0  5G18G 2G11G16G 6
  21699897.438     5455400.851 6   4250941.66521        18.750           1.469
  20810403.720   -18618518.762 7 -14507917.40622        23.500           2.438
  22006065.306   -11248452.720 6  -8765018.33721        16.500           0.844
  22779116.259    -8150321.445 5  -6162088.24421         9.500           0.375
  22308461.251   -10518737.403 5  -7995094.56521        11.500           0.531
 91  6  6 18  7 59.9970000  0  5G18G 2G11G16G 6
  21704616.345     5480197.970 6   4270263.99422        19.000           1.500
  20800404.774   -18671060.363 7 -14548858.88222        23.000           2.375
  22002675.860   -11266273.456 6  -8778904.63121        16.750           0.969
  22775828.915    -8167614.285 5  -6175563.21821         9.750           0.500
  22297818.470   -10574659.903 5  -8038670.52221        11.750           0.563
 91  6  6 18  8 14.9970000  0  5G18G 2G11G16G 6
  21709340.993     5505024.551 6   4289609.28022        19.250           1.500
  20790413.915   -18723561.717 7 -14589768.99422        23.000           2.344
  21999306.524   -11283976.188 6  -8792698.97321        16.500           0.906
  22772554.681    -8184815.115 5  -6188966.48321         9.750           0.438
  22287175.337   -10630606.044 5  -8082264.90221        11.750           0.625
 91  6  6 18  8 29.9970000  0  5G18G 2G11G16G 6
  21714071.337     5529884.496 6   4308980.56421        19.000           1.406
  20780431.915   -18776018.612 7 -14630644.46722        23.250           2.406
  21995959.306   -11301556.903 6  -8806398.23621        16.250           0.875
  22769300.298    -8201919.926 5  -6202294.96021        10.000           0.375
  22276526.735   -10686571.811 6  -8125874.57121        12.000           0.563
 91  6  6 18  8 44.9970000  0  5G18G 2G11G16G 6
  21718808.938     5554779.557 6   4328379.21321        18.750           1.375
  20770459.173   -18828429.104 7 -14671483.77122        23.500           2.406
  21992637.673   -11319013.750 6  -8820000.97821        16.250           0.938
  22766065.399    -8218927.325 5  -6215547.50921         9.500           0.500
  22265870.368   -10742555.226 6  -8169497.99021        12.000           0.656
 91  6  6 18  8 59.9970000  0  5G18G 2G11G16G 6
  21723556.313     5579727.814 6   4347819.31021        18.500           1.406
  20760496.688   -18880774.603 7 -14712272.43922        23.250           2.375
  21989344.446   -11336328.153 6  -8833492.72621        16.250           0.938
  22762847.798    -8235818.530 5  -6228709.54121         9.000           0.469
  22255218.267   -10798537.779 5  -8213120.74521        11.500           0.531
 91  6  6 18  9 14.9970000  0  5G18G 2G11G16G 6
  21728313.970     5604727.194 6   4367299.24621        18.750           1.375
  20750547.431   -18933057.041 7 -14753011.97223        23.000           2.500
  21986077.212   -11353501.943 6  -8846874.89821        16.500           1.000
  22759657.610    -8252595.207 5  -6241782.30221         9.250           0.438
  22244564.915   -10854521.253 5  -8256744.20921        11.500           0.563
 91  6  6 18  9 29.9970000  0  5G18G 2G11G16G 6
  21733078.095     5629765.536 6   4386809.54222        18.250           1.500
  20740609.079   -18985288.506 7 -14793711.78022        23.250           2.469
  21982832.228   -11370547.282 6  -8860156.98721        16.500           1.031
  22756483.813    -8269269.994 5  -6254775.68821         9.000           0.438
  22233909.618   -10910517.765 6  -8300377.83421        12.000           0.719
 91  6  6 18  9 44.9970000  0  5G18G 2G11G16G 6
  21737850.149     5654839.086 6   4406347.26021        18.500           1.406
  20730678.220   -19037472.327 7 -14834374.46022        23.500           2.469
  21979612.790   -11387467.583 6  -8873341.64021        16.250           0.969
  22753329.978    -8285846.120 5  -6267692.17921         8.750           0.375
  22223251.001   -10966530.701 5  -8344024.26321        11.750           0.594
 91  6  6 18  9 59.9970000  0  5G18G 2G11G16G 6
  21742628.454     5679943.864 6   4425909.32221        18.500           1.438
  20720757.376   -19089611.997 7 -14875002.73722        23.250           2.469
  21976415.556   -11404266.576 6  -8886431.75521        16.750           0.969
  22750192.095    -8302327.785 5  -6280535.07921         9.250           0.375
  22212585.228   -11022563.641 5  -8387686.28221        11.500           0.594
 91  6  6 18 10 14.9970000  0  5G18G 2G11G16G 6
  21747411.657     5705080.905 6   4445496.52021        18.500           1.313
  20710842.681   -19141706.270 7 -14915595.64322        23.000           2.406
  21973241.806   -11420943.144 6  -8899426.49021        16.500           0.781
  22747076.204    -8318713.889 5  -6293303.50321         9.000           0.313
  22201921.212   -11078615.487 5  -8431363.02621        11.500           0.688
 91  6  6 18 10 29.9970000  0  5G18G 2G11G16G 6
  21752197.063     5730233.957 6   4465096.19722        18.500           1.531
  20700935.688   -19193771.219 7 -14956165.70222        23.500           2.438
  21970088.267   -11437513.286 6  -8912338.28921        16.250           0.938
  22743972.345    -8335020.283 5  -6306009.82921         9.250           0.406
  22191247.126   -11134702.092 5  -8475066.85521        11.500           0.563
 91  6  6 18 10 44.9970000  0  5G18G 2G11G16G 6
  21756988.790     5755414.264 6   4484717.10921        18.750           1.281
  20691035.673   -19245795.279 7 -14996703.90122        23.500           2.438
  21966957.329   -11453965.363 6  -8925158.08621        16.250           0.969
  22740885.587    -8351235.731 5  -6318645.29021         9.250           0.375
  22180569.610   -11190811.931 5  -8518788.78121        11.500           0.625
 91  6  6 18 10 59.9970000  0  5G18G 2G11G16G 6
  21761786.892     5780624.584 6   4504361.40521        19.000           1.313
  20681144.118   -19297775.459 7 -15037207.90323        23.500           2.563
  21963850.813   -11470296.537 6  -8937883.68021        16.250           0.969
  22737823.017    -8367357.671 5  -6331207.87721         9.250           0.406
  22169889.978   -11246942.011 5  -8562526.49521        11.750           0.594
 91  6  6 18 11 14.9970000  0  5G18G 2G11G16G 6
  21766590.118     5805868.878 6   4524032.19021        19.000           1.406
  20671261.728   -19349707.344 7 -15077674.27822        23.500           2.438
  21960766.220   -11486502.688 6  -8950511.84621        16.500           0.969
  22734769.548    -8383381.939 5  -6343694.86521         8.500           0.375
  22159206.071   -11303088.180 5  -8606276.73521        11.750           0.594
 91  6  6 18 11 29.9970000  0  5G18G 2G11G16G 6
  21771401.423     5831145.822 6   4543728.40121        18.750           1.344
  20661389.040   -19401591.899 7 -15118103.77323        23.250           2.500
  21957707.173   -11502584.659 6  -8963043.25421        16.500           0.969
  22731740.399    -8399309.657 5  -6356106.11621         8.750           0.344
  22148517.728   -11359251.228 6  -8650040.13821        12.000           0.531
 91  6  6 18 11 44.9970000  0  5G18G 2G11G16G 6
  21776219.384     5856463.610 6   4563456.44221        19.000           1.375
  20651525.751   -19453421.037 7 -15158490.08722        23.000           2.469
  21954671.001   -11518534.235 6  -8975471.49421        16.250           0.844
  22728732.407    -8415132.426 5  -6368435.57421         9.250           0.406
  22137828.728   -11415423.030 6  -8693810.34321        12.500           0.625
 91  6  6 18 11 59.9970000  0  5G18G 2G11G16G 6
  21781043.790     5881817.090 6   4583212.30121        18.500           1.344
  20641672.946   -19505199.304 7 -15198836.76123        23.250           2.531
  21951660.407   -11534356.461 6                        16.250
  22725735.712    -8430855.390 5                         9.000
  22127137.017   -11471608.150 6  -8737590.95121        12.000           0.531
 91  6  6 18 12 14.9960000  0  5G18G 2G11G16G 6
  21785874.895     5907205.141 6   4602995.09521        18.250           1.344
  20631830.973   -19556922.317 7 -15239140.38023        23.500           2.500
  21948674.941   -11550049.247 6                        16.500
  22722764.340    -8446476.953 5                         9.000
  22116443.215   -11527802.190 6  -8781378.50021        12.000           0.594
 91  6  6 18 12 29.9960000  0  5G18G 2G11G16G 6
  21790712.106     5932622.777 6   4622800.94221        18.000           1.281
  20621995.402   -19608605.061 7 -15279412.62123        23.750           2.500
  21945709.496   -11565622.973 6                        16.500
  22719812.340    -8462007.274 5                         9.000
  22105748.371   -11584020.625 6  -8825185.06021        12.250           0.625
 91  6  6 18 12 44.9960000  0  5G18G 2G11G16G 6
  21795556.770     5958079.436 6   4642637.18921        18.250           1.313
  20612171.199   -19660232.706 7 -15319641.93023        23.500           2.531
  21942771.598   -11581065.194 6                        16.500
  22716869.934    -8477434.014 5                         8.750
  22095047.887   -11640248.299 6  -8868998.80421        12.750           0.500
 91  6  6 18 12 59.9960000  0  5G18G 2G11G16G 6
  21800407.715     5983575.497 6   4662504.14321        18.250           1.250
  20602356.145   -19711804.754 7 -15359827.91823        23.500           2.500
  21939859.543   -11596375.382 6                        16.250
  22713957.652    -8492756.960 5                         9.500
  22084346.231   -11696484.629 6  -8912819.31521        12.750           0.719
 91  6  6 18 13 14.9960000  0  5G18G 2G11G16G 6
  21805264.059     6009096.139 6   4682390.25421        17.750           1.281
  20592551.356   -19763335.698 7 -15399981.87723        23.500           2.563
  21936967.731   -11611568.216 6                        16.500
  22711057.434    -8507990.937 5                         9.500
  22073638.895   -11752744.145 6  -8956657.87721        12.500           0.531
 91  6  6 18 13 29.9960000  0  5G18G 2G11G16G 6
  21810125.840     6034648.719 6   4702301.24521        17.500           1.313
  20582754.481   -19814817.994 7 -15440097.92622        23.500           2.469
  21934100.496   -11626636.173 6                        16.500
  22708179.293    -8523128.595 5                         9.250
  22062929.496   -11809019.415 6  -9000508.72221        12.500           0.656
 91  6  6 18 13 44.9960000  0  5G18G 2G11G16G 6
  21814994.285     6060230.953 6   4722235.34221        17.750           1.344
  20572967.121   -19866253.204 7 -15480177.28722        23.500           2.469
  21931256.301   -11641581.234 6  -9071352.26021        16.250           0.844
  22705318.949    -8538171.607 5  -6398619.15021         9.500           0.344
  22052216.332   -11865312.018 6  -9044373.06521        12.500           0.656
 91  6  6 18 13 59.9960000  0  5G18G 2G11G16G 6
  21819870.254     6085851.491 6   4742199.28521        17.250           1.219
  20563189.082   -19917632.560 7 -15520213.13023        23.750           2.563
  21928437.668   -11656394.511 6  -9082895.07021        16.500           0.938
  22702475.059    -8553111.384 5  -6410260.60021         9.500           0.375
  22041503.387   -11921613.210 6  -9088244.10821        12.250           0.656
 91  6  6 18 14 14.9960000  0  5G18G 2G11G16G 6
  21824752.551     6111504.665 6   4762188.66121        17.500           1.094
  20553421.316   -19968961.568 7 -15560209.72923        24.000           2.594
  21925643.121   -11671081.452 6  -9094339.44121        16.500           0.875
  22699650.098    -8567953.765 5  -6421826.12621         9.500           0.281
  22030789.285   -11977928.440 6  -9132126.07721        12.500           0.688
 91  6  6 18 14 29.9960000  0  5G18G 2G11G16G 6
  21829639.090     6137191.290 6   4782204.10421        17.750           1.125
  20543663.652   -20020238.971 7 -15600166.13723        24.000           2.594
  21922871.512   -11685641.023 6  -9105684.55421        16.250           1.063
  22696845.270    -8582697.660 5  -6433314.94021         9.500           0.313
  22020069.371   -12034256.444 6  -9176018.00821        12.250           0.688
 91  6  6 18 14 44.9960000  0  5G18G 2G11G16G 6
  21834534.535     6162911.143 6   4802245.43821        18.000           1.281
  20533915.645   -20071464.744 7 -15640082.30023        23.500           2.594
  21920124.613   -11700073.246 6  -9116930.44821        16.500           1.063
  22694051.285    -8597343.185 5  -6444727.07221         9.000           0.281
  22009346.113   -12090597.271 6  -9219919.93021        12.250           0.688
 91  6  6 18 14 59.9960000  0  5G18G 2G11G16G 6
  21839437.176     6188668.950 6   4822316.35121        18.250           1.188
  20524178.020   -20122633.933 7 -15679954.37523        23.750           2.656
  21917405.934   -11714373.364 6  -9128073.38121        16.500           0.938
  22691288.527    -8611885.818 5  -6456059.55021         9.250           0.344
  21998624.316   -12146945.951 6  -9263827.96521        12.000           0.656
 91  6  6 18 15 14.9960000  0  5G18G 2G11G16G 6
  21844345.051     6214460.260 6   4842413.37421        18.000           1.125
  20514451.129   -20173750.882 7 -15719785.74323        23.750           2.594
  21914708.184   -11728545.775 6  -9139116.82221        16.250           0.969
  22688540.387    -8626329.985 5  -6467314.77821         9.500           0.281
  21987898.254   -12203306.784 6  -9307745.47821        12.000           0.719
 91  6  6 18 15 29.9960000  0  5G18G 2G11G16G 6
  21849259.629     6240290.119 6   4862540.42821        17.500           1.313
  20504735.418   -20224810.090 7 -15759572.11323        24.250           2.563
  21912034.785   -11742585.031 6  -9150056.49621        16.000           0.781
  22685812.488    -8640670.352 5  -6478489.13821         9.000           0.375
  21977172.738   -12259674.315 6  -9351668.19721        12.500           0.750
 91  6  6 18 15 44.9960000  0  5G18G 2G11G16G 6
  21854181.699     6266154.927 6   4882694.71321        17.500           1.188
  20495028.957   -20275814.819 7 -15799316.03623        24.000           2.625
  21909389.652   -11756494.481 6  -9160895.02821        16.250           0.844
  22683101.496    -8654910.227 5  -6489585.18721         9.250           0.406
  21966444.504   -12316051.710 6  -9395598.62121        12.750           0.625
 91  6  6 18 15 59.9960000  0  5G18G 2G11G16G 6
  21859110.426     6292059.055 6   4902879.63721        17.750           1.313
  20485334.762   -20326760.340 7 -15839013.82722        23.500           2.469
  21906766.152   -11770269.562 6  -9171628.85321        16.250           0.969
  22680413.371    -8669045.108 5  -6500599.42721         9.250           0.344
  21955715.027   -12372434.302 6  -9439533.09221        13.000           0.563
 91  6  6 18 16 14.9960000  0  5G18G 2G11G16G 6
  21864046.973     6317998.772 6   4923092.29921        17.250           1.250
  20475651.215   -20377650.095 7 -15878668.15723        24.000           2.594
  21904170.520   -11783913.936 6  -9182260.82921        16.250           0.875
  22677739.902    -8683078.714 5  -6511534.75421         9.500           0.406
  21944984.082   -12428825.720 6  -9483474.43921        13.000           0.719
 91  6  6 18 16 29.9960000  0  5G18G 2G11G16G 6
  21868991.613     6343977.753 6   4943335.54421        17.250           1.281
  20465978.098   -20428480.282 7 -15918276.07523        24.000           2.594
  21901601.137   -11797423.532 6  -9192787.78221        16.250           0.844
  22675089.559    -8697007.614 5  -6522388.48221         9.500           0.344
  21934254.231   -12485221.989 6  -9527419.56021        13.000           0.656
 91  6  6 18 16 44.9960000  0  5G18G 2G11G16G 6
  21873941.848     6369992.446 6   4963606.62121        17.500           1.250
  20456316.504   -20479253.962 7 -15957839.96023        23.750           2.625
  21899054.223   -11810801.720 6  -9203212.34721        16.250           0.844
  22672460.863    -8710835.115 5  -6533163.20321         9.750           0.406
  21923519.465   -12541626.226 6  -9571370.90321        13.250           0.688
 91  6  6 18 16 59.9960000  0  5G18G 2G11G16G 6
  21878899.098     6396042.210 6   4983905.02421        17.500           1.406
  20446664.551   -20529971.592 7 -15997360.17323        23.500           2.656
  21896532.801   -11824049.153 6  -9213535.02321        16.500           0.844
  22669848.426    -8724561.520 5  -6543859.17221        10.000           0.313
  21912784.559   -12598038.841 6  -9615328.76921        13.500           0.719
 91  6  6 18 17 14.9960000  0  5G18G 2G11G16G 6
  21883861.832     6422126.577 6   5004230.39121        17.250           1.281
  20437023.199   -20580633.503 7 -16036836.96123        23.500           2.656
  21894037.371   -11837166.138 6  -9223756.04621        16.750           0.844
  22667253.895    -8738187.612 5  -6554477.45321         9.500           0.219
  21902048.699   -12654460.143 6  -9659293.41121        13.250           0.594
 91  6  6 18 17 29.9960000  0  5G18G 2G11G16G 6
  21888833.723     6448249.495 6   5024585.79321        17.000           1.250
  20427395.684   -20631235.413 7 -16076266.99923        24.000           2.688
  21891568.246   -11850148.540 6  -9233872.20721        16.500           0.813
  22664680.934    -8751709.356 5  -6565013.93521         9.500           0.406
  21891311.199   -12710885.818 6  -9703261.46021        13.000           0.656
 91  6  6 18 17 44.9960000  0  5G18G 2G11G16G 6
  21893809.535     6474404.757 6   5044966.40121        16.500           1.188
  20417776.043   -20681783.126 7 -16115654.80123        23.750           2.625
  21889121.473   -11863002.293 6  -9243888.10921        16.250           0.875
  22662125.770    -8765132.752 5  -6575473.73721        10.250           0.313
  21880569.246   -12767321.742 6  -9747237.47121        12.500           0.625
 91  6  6 18 17 59.9960000  0  5G18G 2G11G16G 6
  21898794.520     6500594.875 6   5065374.17721        16.250           1.063
  20408167.668   -20732273.788 7 -16154998.14823        23.750           2.656
  21886700.637   -11875724.559 6  -9253801.55621        16.250           0.844
  22659591.832    -8778455.040 5  -6585855.28221        10.500           0.344
  21869830.441   -12823765.001 6  -9791219.21521        13.000           0.750
 91  6  6 18 18 14.9960000  0  5G18G 2G11G16G 6
  21903786.035     6526822.281 6   5085810.99221        16.500           1.000
  20398571.496   -20782704.612 7 -16194294.87623        23.750           2.750
  21884304.004   -11888312.845 6  -9263610.61521        16.250           0.781
  22657077.566    -8791673.846 5  -6596155.71721        10.250           0.313
  21859086.988   -12880212.855 6  -9835204.53521        12.750           0.719
 91  6  6 18 18 29.9960000  0  5G18G 2G11G16G 6
  21908781.801     6553074.185 6   5106266.91221        16.500           1.063
  20388984.551   -20833088.422 7 -16233554.96323        24.000           2.594
  21881932.113   -11900779.909 6  -9273325.21121        16.500           0.906
  22654577.832    -8804802.139 5  -6606385.60921         9.750           0.406
  21848341.527   -12936678.062 6  -9879203.37621        12.750           0.750
 91  6  6 18 18 44.9960000  0  5G18G 2G11G16G 6
  21913781.496     6579347.841 6   5126739.78121        16.750           1.094
  20379404.676   -20883427.564 7 -16272780.24223        24.250           2.625
  21879581.738   -11913128.214 6  -9282947.26421        16.250           0.813
  22652098.738    -8817842.219 5  -6616546.75221        10.000           0.375
  21837594.059   -12993162.914 6  -9923217.52821        13.000           0.594
 91  6  6 18 18 59.9960000  0  5G18G 2G11G16G 6
  21918787.238     6605655.465 6   5147239.10821        16.500           1.125
  20369836.066   -20933709.280 7 -16311960.78223        24.250           2.750
  21877258.270   -11925345.235 6  -9292467.02421        16.250           0.906
  22649634.106    -8830781.881 5  -6626629.65521        10.500           0.375
  21826844.074   -13049654.815 6  -9967237.17621        12.750           0.625
 91  6  6 18 19 14.9960000  0  5G18G 2G11G16G 6
  21923802.262     6632004.747 6   5167770.90521        17.000           1.031
  20360279.981   -20983925.707 7 -16351090.44123        23.750           2.750
  21874960.481   -11937423.142 6  -9301878.37721        16.000           1.000
  22647193.934    -8843613.467 5  -6636628.32521        10.500           0.313
  21816093.238   -13106145.777 6 -10011256.07921        12.750           0.750
 91  6  6 18 19 29.9960000  0  5G18G 2G11G16G 6
  21928823.395     6658397.609 6   5188336.65621        16.750           1.000
  20350737.488   -21034074.839 7 -16390167.66423        24.250           2.750
  21872687.512   -11949360.100 6  -9311179.91021        16.250           0.938
  22644772.762    -8856335.328 5  -6646541.52221        10.500           0.344
  21805344.121   -13162633.774 6 -10055272.68121        12.750           0.656
 91  6  6 18 19 44.9960000  0  5G18G 2G11G16G 6
  21933853.863     6684827.316 6   5208931.11621        16.500           0.969
  20341205.613   -21084162.932 7 -16429197.32823        24.000           2.781
  21870443.832   -11961162.420 6  -9320376.52621        16.000           0.875
  22642372.457    -8868953.652 5  -6656374.03121        10.500           0.344
  21794594.684   -13219125.178 6 -10099291.94621        13.000           0.719
 91  6  6 18 19 59.9960000  0  5G18G 2G11G16G 6
  21938888.957     6711291.124 6   5229552.14721        16.000           0.938
  20331684.738   -21134192.389 7 -16468181.29423        24.000           2.563
  21868219.902   -11972832.740 6  -9329470.28221        16.000           0.844
  22639991.598    -8881471.026 5  -6666127.88021        10.750           0.375
  21783845.293   -13275622.319 6 -10143315.67621        13.250           0.750
 91  6  6 18 20 14.9960000  0  5G18G 2G11G16G 6
  21943932.043     6737787.311 6   5250198.41021        15.750           1.031
  20322175.434   -21184164.789 7 -16507120.81023        24.000           2.688
  21866026.231   -11984372.630 6  -9338462.40621        16.000           0.906
  22637628.184    -8893889.186 5  -6675804.42321        11.000           0.406
  21773094.027   -13332126.735 6 -10187345.06321        13.500           0.813
 91  6  6 18 20 29.9960000  0  5G18G 2G11G16G 6
  21948979.965     6764316.438 6   5270870.33821        16.000           0.938
  20312677.606   -21234079.315 7 -16546015.22323        24.000           2.719
  21863853.504   -11995781.312 6  -9347352.29921        16.000           0.906
  22635283.262    -8906207.808 5  -6685403.40721        10.500           0.344
  21762339.590   -13388637.533 6 -10231379.43821        14.000           0.906
 91  6  6 18 20 44.9960000  0  5G18G 2G11G16G 6
  21954036.098     6790882.132 6   5291570.76721        15.750           0.969
  20303191.543   -21283931.986 7 -16584861.43523        24.500           2.563
  21861708.996   -12007054.978 6  -9356136.97821        16.250           0.844
  22632955.660    -8918423.138 5  -6694921.89421        10.250           0.469
  21751585.629   -13445150.630 6 -10275415.59821        13.250           0.750
 91  6  6 18 20 59.9960000  0  5G18G 2G11G16G 6
  21959096.910     6817480.929 6   5312296.97921        15.500           1.000
  20293714.941   -21333726.145 7 -16623662.05423        24.250           2.719
  21859589.559   -12018197.019 6  -9364819.08121        16.000           0.906
  22630651.793    -8930538.504 5  -6704362.49921        10.750           0.375
  21740829.918   -13501669.428 6 -10319456.21321        13.250           0.750
 91  6  6 18 21 14.9960000  0  5G18G 2G11G16G 6
  21964164.668     6844113.702 6   5333049.66621        15.750           1.000
  20284251.129   -21383460.378 7 -16662415.97523        24.250           2.719
  21857494.027   -12029206.341 6  -9373397.78021        15.750           0.844
  22628365.324    -8942552.817 5  -6713724.33721        10.500           0.438
  21730072.356   -13558192.550 6 -10363500.18821        13.500           0.781
 91  6  6 18 21 29.9960000  0  5G18G 2G11G16G 6
  21969240.488     6870780.620 6   5353828.96521        16.000           0.938
  20274798.004   -21433134.161 7 -16701122.79723        24.250           2.750
  21855423.199   -12040082.599 6  -9381872.78421        16.000           0.844
  22626100.793    -8954465.971 5  -6723007.39621        10.750           0.406
  21719318.176   -13614719.540 6 -10407547.18421        13.250           0.781
 91  6  6 18 21 44.9960000  0  5G18G 2G11G16G 6
  21974320.738     6897477.525 6   5374631.62521        15.750           1.063
  20265356.316   -21482751.729 7 -16739785.81823        24.250           2.750
  21853376.926   -12050829.944 6  -9390247.34821        15.750           0.906
  22623851.184    -8966282.240 5  -6732214.91521        10.750           0.344
  21708558.379   -13671254.371 6 -10451600.28021        13.000           0.813
 91  6  6 18 21 59.9960000  0  5G18G 2G11G16G 6
  21979407.566     6924209.315 6   5395461.47821        15.500           1.125
  20255925.527   -21532307.725 7 -16778400.85523        24.500           2.750
  21851358.066   -12061443.258 6  -9398517.46421        16.250           0.875
  22621620.332    -8977996.790 5  -6741343.19421        10.250           0.344
  21697799.559   -13727791.919 6 -10495655.49721        12.750           0.813
 91  6  6 18 22 14.9960000  0  5G18G 2G11G16G 6
  21984499.340     6950970.782 6   5416314.44021        15.250           1.063
  20246507.020   -21581806.795 7 -16816971.53523        24.750           2.750
  21849363.559   -12071927.429 6  -9406686.94921        16.000           0.813
  22619409.449    -8989614.213 5  -6750395.77321        10.250           0.406
  21687036.996   -13784336.819 6 -10539716.44321        12.500           0.688
 91  6  6 18 22 29.9960000  0  5G18G 2G11G16G 6
  21989597.223     6977759.695 6   5437188.79421        15.000           1.000
  20237097.707   -21631251.358 7 -16855499.74323        24.500           2.813
  21847392.848   -12082284.912 6  -9414757.71821        16.000           0.875
  22617213.746    -9001137.201 5  -6759374.79021        10.250           0.375
  21676277.520   -13840891.389 6 -10583784.91721        12.750           0.719
 91  6  6 18 22 44.9960000  0  5G18G 2G11G16G 6
  21994700.199     7004580.248 6   5458087.80321        15.000           0.969
  20227700.426   -21680636.711 7 -16893981.80723        25.000           2.781
  21845444.949   -12092511.134 6  -9422726.20821        15.750           0.906
  22615045.746    -9012561.402 5  -6768276.82121        10.750           0.406
  21665515.543   -13897450.864 6 -10627857.22121        12.750           0.719
 91  6  6 18 22 59.9960000  0  5G18G 2G11G16G 6
  21999811.223     7031432.569 6   5479011.56721        15.000           1.000
  20218314.004   -21729962.390 7 -16932417.38223        25.250           2.844
  21843525.551   -12102605.605 6  -9430592.03421        15.750           0.875
  22612890.840    -9023886.447 5  -6777101.57621        10.500           0.375
  21654749.402   -13954014.642 6 -10671932.87821        12.750           0.750
 91  6  6 18 23 14.9960000  0  5G18G 2G11G16G 6
  22004928.137     7058320.214 6   5499962.85021        15.000           1.063
  20208939.441   -21779224.875 7 -16970803.71623        24.750           2.688
  21841631.481   -12112564.903 6  -9438352.54421        15.750           0.813
  22610750.098    -9035108.900 5  -6785846.42321        10.750           0.406
  21643986.238   -14010579.223 6 -10716009.16221        12.500           0.750
 91  6  6 18 23 29.9960000  0  5G18G 2G11G16G 6
  22010050.231     7085237.276 6   5520937.06321        15.250           1.094
  20199575.926   -21828429.364 7 -17009144.85223        24.750           2.750
  21839760.066   -12122394.648 6  -9446012.08821        16.000           0.781
  22608635.785    -9046234.681 5  -6794515.90321        10.250           0.469
  21633222.082   -14067150.000 6 -10760090.26021        13.000           0.719
 91  6  6 18 23 44.9960000  0  5G18G 2G11G16G 6
  22015176.926     7112177.690 6   5541929.47121        15.250           0.938
  20190222.488   -21877581.894 7 -17047445.50523        24.750           2.813
  21837912.723   -12132100.817 6  -9453575.34121        15.750           0.625
  22606534.535    -9057269.621 5  -6803114.62921        10.250           0.500
  21622455.309   -14123732.781 6 -10804180.72321        13.250           0.625
 91  6  6 18 23 59.9960000  0  5G18G 2G11G16G 6
  22020309.215     7139149.006 6   5562945.96721        14.750           0.969
  20180880.410   -21926674.729 7 -17085699.63523        25.000           2.688
  21836092.879   -12141675.697 6  -9461036.28321        16.000           0.750
  22604457.035    -9068206.008 5  -6811636.54521        10.250           0.563
  21611686.949   -14180319.722 6 -10848274.42321        13.000           0.688
 91  6  6 18 24 14.9960000  0  5G18G 2G11G16G 6
  22025447.629     7166148.164 6   5583984.13421        15.000           1.094
  20171548.699   -21975710.236 7 -17123909.10423        24.750           2.656
  21834292.418   -12151122.052 6  -9468397.08721        15.750           0.688
  22602390.590    -9079046.797 5  -6820083.98721        10.250           0.469
  21600915.785   -14236913.243 6 -10892373.26121        13.250           0.875
 91  6  6 18 24 29.9960000  0  5G18G 2G11G16G 6
  22030592.160     7193180.370 6   5605048.06121        15.000           1.000
  20162230.215   -22024683.090 7 -17162069.74823        24.750           2.656
  21832521.926   -12160434.608 6  -9475653.63221        15.750           0.688
  22600349.520    -9089786.840 5  -6828452.91621        10.500           0.469
  21590146.410   -14293508.115 6 -10936473.13721        13.500           0.813
 91  6  6 18 24 44.9960000  0  5G18G 2G11G16G 6
  22035742.231     7220243.281 6   5626135.91621        15.250           1.000
  20152922.863   -22073595.352 7 -17200183.17023        24.750           2.656
  21830773.184   -12169615.615 6  -9482807.67021        16.000           0.844
  22598322.606    -9100428.617 5  -6836745.25521        10.250           0.438
  21579376.863   -14350106.277 6 -10980575.59021        13.750           0.844
 91  6  6 18 24 59.9960000  0  5G18G 2G11G16G 6
  22040897.699     7247336.569 6   5647247.44621        15.250           0.906
  20143626.246   -22122447.150 7 -17238249.48523        25.000           2.750
  21829052.293   -12178665.395 6  -9489859.44521        16.000           0.813
  22596314.324    -9110972.251 5  -6844961.14521         9.750           0.500
  21568606.371   -14406707.905 6 -11024680.72921        13.750           0.938
 91  6  6 18 25 14.9960000  0  5G18G 2G11G16G 6
  22046058.223     7274455.772 6   5668379.16321        15.000           0.969
  20134340.856   -22171242.444 7 -17276271.77023        24.750           2.594
  21827355.926   -12187588.012 6  -9496812.15321        15.750           0.688
  22594333.723    -9121421.999 5  -6853103.86021        10.500           0.438
  21557833.777   -14463316.875 6 -11068791.60021        13.750           0.781
 91  6  6 18 25 29.9960000  0  5G18G 2G11G16G 6
  22051225.035     7301610.008 6   5689538.18921        15.000           0.875
  20125067.324   -22219972.222 7 -17314242.99823        25.000           2.625
  21825681.441   -12196374.495 6  -9503658.76721        15.500           0.813
  22592359.731    -9131769.052 5  -6861166.55721        10.000           0.500
  21547062.066   -14519924.099 6 -11112901.11421        13.750           0.719
 91  6  6 18 25 44.9960000  0  5G18G 2G11G16G 6
  22056401.176     7328806.987 6   5710730.51221        15.000           0.781
  20115808.059   -22268628.375 7 -17352156.86323        24.750           2.656
  21824035.856   -12205016.825 6  -9510393.05821        15.750           0.719
  22590411.699    -9142005.608 5  -6869143.16821        10.250           0.469
  21536291.613   -14576521.347 6 -11157002.85021        13.500           0.906
 91  6  6 18 25 59.9960000  0  5G18G 2G11G16G 6
  22061581.731     7356029.080 6   5731942.40621        15.250           0.906
  20106560.512   -22317228.094 7 -17390026.74823        24.750           2.688
  21822417.316   -12213532.406 6  -9517028.58321        16.250           0.719
  22588482.895    -9152149.167 5  -6877047.31221        10.250           0.313
  21525520.137   -14633125.916 6 -11201110.28721        13.250           0.813
 91  6  6 18 26 14.9960000  0  5G18G 2G11G16G 6
  22066765.324     7383271.855 6   5753170.41521        15.500           0.781
  20097322.481   -22365775.568 7 -17427855.92823        24.750           2.719
  21820820.715   -12221925.529 6  -9523568.68221        16.250           0.688
  22586567.238    -9162204.051 5  -6884882.34021        10.500           0.438
  21514744.426   -14689741.799 6 -11245226.53421        13.250           0.844
 91  6  6 18 26 29.9960000  0  5G18G 2G11G16G 6
  22071957.856     7410544.665 6   5774421.83021        15.250           0.813
  20088095.488   -22414261.051 7 -17465636.80923        25.000           2.625
  21819248.481   -12230186.766 6  -9530006.00921        15.750           0.750
  22584673.918    -9172160.914 5  -6892640.99121        10.250           0.344
  21503972.543   -14746359.515 6 -11289344.21721        13.500           0.813
 91  6  6 18 26 44.9960000  0  5G18G 2G11G16G 6
  22077148.410     7437832.933 6   5795685.29921        14.750           0.750
  20078878.106   -22462699.032 7 -17503380.66823        25.000           2.719
  21817699.434   -12238330.688 6                        15.750
  22582794.512    -9182034.363 5  -6900334.64721         9.750           0.313
  21493196.426   -14802993.322 6 -11333474.43221        13.250           0.813
 91  6  6 18 26 59.9960000  0  5G18G 2G11G16G 6
  22082343.035     7465131.804 6   5816957.02621        14.500           0.688
  20069668.520   -22511094.170 7 -17541091.13823        25.000           2.688
  21816169.527   -12246362.001 6                        16.000
  22580933.176    -9191829.206 5  -6907967.55721         9.250           0.406
  21482413.848   -14859647.749 6 -11377620.71621        13.750           0.875
 91  6  6 18 27 14.9960000  0  5G18G 2G11G16G 6
  22087544.379     7492463.868 6   5838254.61021        14.750           0.781
  20060472.840   -22559423.657 7 -17578750.46323        25.000           2.688
  21814668.395   -12254258.089 6                        16.250
  22579090.332    -9201522.736 5  -6915521.03921         9.000           0.250
  21471634.348   -14916299.943 6 -11421765.25421        13.500           0.844
 91  6  6 18 27 29.9960000  0  5G18G 2G11G16G 6
  22092752.652     7519831.345 6   5859579.78221        14.750           0.906
  20051288.566   -22607684.834 7 -17616356.56123        25.000           2.781
  21813190.309   -12262016.467 6        -0.41631        16.000           0.625
  22577266.371    -9211113.002 5  -6922994.03621         9.000           0.313
  21460854.434   -14972947.238 6 -11465905.98921        13.750           0.813
 91  6  6 18 27 44.9950000  0  5G18G 2G11G16G 6
  22097962.718     7547215.435 6   5880917.90021        14.500           0.719
  20042114.890   -22655891.226 7 -17653919.96323        25.000           2.688
  21811739.101   -12269653.454 6     -5951.32821        16.000           0.719
  22575455.546    -9220616.031 5  -6930399.06521         9.000           0.406
  21450072.187   -15029602.551 6 -11510052.97121        13.750           0.750
 91  6  6 18 27 59.9950000  0  5G18G 2G11G16G 6
  22103179.054     7574624.613 6   5902275.56921        14.500           0.844
  20032951.874   -22704044.078 7 -17691441.64323        25.000           2.656
  21810309.741   -12277165.046 6    -11804.52221        16.000           0.688
  22573660.429    -9230028.226 5  -6937733.29021         8.500           0.313
  21439288.733   -15086268.197 6 -11554207.99821        14.000           0.938
 91  6  6 18 28 14.9950000  0  5G18G 2G11G16G 6
  22108405.476     7602079.901 6   5923669.16521        14.500           0.938
  20023803.366   -22752116.847 7 -17728900.92923        25.000           2.750
  21808906.398   -12284527.698 6    -17541.66021        15.750           0.719
  22571892.788    -9239326.071 5  -6944978.41421         8.250           0.344
  21428510.085   -15142917.267 6 -11598350.10121        13.750           0.875
 91  6  6 18 28 29.9950000  0  5G18G 2G11G16G 6
  22113634.523     7629566.917 6   5945087.48021        14.250           0.906
  20014668.577   -22800124.006 7 -17766309.08523        25.250           2.750
  21807532.765   -12291755.907 6    -23174.04121        15.750           0.688
  22570141.616    -9248524.165 5  -6952145.86121         8.250           0.344
  21417730.249   -15199563.994 6 -11642490.39021        13.750           0.906
 91  6  6 18 28 44.9950000  0  5G18G 2G11G16G 6
  22118870.171     7657080.550 6   5966526.55021        14.000           0.875
  20005545.062   -22848070.181 7 -17803669.72023        25.250           2.875
  21806180.905   -12298854.558 6    -28705.45821        16.000           0.656
  22568410.827    -9257627.447 5  -6959239.37921         8.250           0.344
  21406949.976   -15256213.088 6 -11686632.51521        13.500           0.875
 91  6  6 18 28 59.9950000  0  5G18G 2G11G16G 6
  22124112.062     7684622.621 6   5987987.75621        14.250           0.938
  19996432.382   -22895953.268 7 -17840981.20323        25.000           2.875
  21804856.452   -12305821.717 6    -34134.43021        15.750           0.594
  22566698.648    -9266633.968 5  -6966257.52621         8.750           0.250
  21396171.296   -15312862.337 6 -11730774.77021        14.000           1.000
 91  6  6 18 29 14.9950000  0  5G18G 2G11G16G 6
  22129357.218     7712190.431 6   6009469.03421        14.000           0.938
  19987332.858   -22943775.634 7 -17878245.36423        25.000           2.875
  21803552.101   -12312659.874 6    -39462.86721        15.500           0.750
  22564998.108    -9275546.312 5  -6973202.27121         8.250           0.375
  21385388.983   -15369514.006 6 -11774918.90321        13.750           0.969
 91  6  6 18 29 29.9950000  0  5G18G 2G11G16G 6
  22134609.898     7739787.229 6   6030972.88921        13.750           0.750
  19978244.788   -22991534.018 7 -17915459.67023        25.250           2.719
  21802278.999   -12319365.890 6    -44688.35021        15.250           0.625
  22563326.171    -9284361.371 5  -6980071.73121         8.500           0.344
  21374608.874   -15426164.825 6 -11819062.39021        13.750           1.000
 91  6  6 18 29 44.9950000  0  5G18G 2G11G16G 6
  22139865.741     7767407.514 6   6052495.05721        13.500           0.750
  19969166.944   -23039233.600 7 -17952628.15423        25.250           2.938
  21801025.233   -12325945.110 6    -49815.02821        15.500           0.750
  22561664.351    -9293084.724 5  -6986869.19621         8.250           0.375
  21363828.046   -15482819.878 6 -11863209.15721        13.750           0.938
 91  6  6 18 29 59.9950000  0  5G18G 2G11G16G 6
  22145126.577     7795054.774 6   6074038.24321        13.500           0.781
  19960102.483   -23086870.639 7 -17989747.89923        25.250           2.844
  21799798.523   -12332393.826 6    -54840.00821        15.500           0.719
  22560019.241    -9301712.703 4  -6993592.34921         7.250           0.406
  21353048.155   -15539475.318 6 -11907356.23421        13.750           0.938
 91  6  6 18 30 14.9950000  0  5G18G 2G11G16G 6
  22150391.913     7822725.122 6   6095599.41421        13.500           0.750
  19951048.616   -23134448.465 7 -18026821.51123        25.000           2.938
  21798596.257   -12338715.712 6    -59766.17421        15.500           0.750
  22558399.108    -9310248.859 5  -7000243.98621         7.750           0.469
  21342264.976   -15596134.402 6 -11951506.15221        13.500           0.938
 91  6  6 18 30 29.9950000  0  5G18G 2G11G16G 6
  22155662.999     7850423.591 6   6117182.49921        13.750           0.781
  19942007.280   -23181962.023 7 -18063845.04523        25.250           2.906
  21797419.374   -12344905.798 6    -64589.62221        15.250           0.625
  22556791.210    -9318688.499 5  -7006820.40021         7.750           0.406
  21331484.976   -15652792.063 6 -11995654.95521        13.750           0.875
 91  6  6 18 30 44.9950000  0  5G18G 2G11G16G 6
  22160937.812     7878142.107 6   6138781.19421        14.000           0.781
  19932976.124   -23229419.236 7 -18100824.68023        24.750           2.813
  21796263.835   -12350972.062 6    -69316.60921        15.000           0.719
  22555199.733    -9327039.759 5  -7013327.95521         8.250           0.469
  21320700.273   -15709456.168 6 -12039808.79621        14.250           0.781
 91  6  6 18 30 59.9950000  0  5G18G 2G11G16G 6
  22166217.913     7905886.421 6   6160400.00121        13.750           0.813
  19923957.257   -23276813.987 7 -18137755.63623        25.250           2.938
  21795134.429   -12356908.766 6    -73942.62421        15.000           0.625
  22553629.577    -9335296.816 5  -7019762.08721         8.250           0.344
  21309919.905   -15766120.596 6 -12083962.88121        14.250           0.844
 91  6  6 18 31 14.9950000  0  5G18G 2G11G16G 6
  22171500.444     7933650.953 6   6182034.55521        13.500           0.844
  19914949.062   -23324151.398 7 -18174641.91523        25.500           2.906
  21794028.444   -12362721.165 6    -78471.77321        14.750           0.563
  22552077.187    -9343465.213 5  -7026127.65121         8.500           0.406
  21299134.101   -15822790.429 6 -12128121.17021        14.250           0.906
 91  6  6 18 31 29.9950000  0  5G18G 2G11G16G 6
  22176788.163     7961435.956 6   6203685.06021        13.750           0.844
  19905952.890   -23371430.808 7 -18211482.99223        25.750           2.969
  21792946.194   -12368408.707 6    -82903.64021        15.000           0.656
  22550538.773    -9351544.375 5  -7032423.16021         8.250           0.406
  21288348.866   -15879464.889 6 -12172283.07421        14.000           0.688
 91  6  6 18 31 44.9950000  0  5G18G 2G11G16G 6
  22182080.468     7989243.529 6   6225353.15521        13.500           0.750
  19896966.648   -23418649.912 7 -18248277.07923        25.500           3.000
  21791889.054   -12373969.460 6    -87236.71321        15.500           0.625
  22549018.023    -9359532.520 5  -7038648.26521         8.250           0.344
  21277564.655   -15936141.730 6 -12216446.83421        14.000           0.844
 91  6  6 18 31 59.9950000  0  5G18G 2G11G16G 6
  22187379.616     8017080.267 6   6247043.97421        13.500           0.844
  19887993.929   -23465801.935 7 -18285018.89623        25.500           2.875
  21790855.640   -12379396.597 6    -91465.66221        16.000           0.719
  22547518.937    -9367423.094 5  -7044796.82421         8.250           0.406
  21266778.351   -15992814.056 6 -12260607.07121        14.250           0.781
 91  6  6 18 32 14.9950000  0  5G18G 2G11G16G 6
  22192680.671     8044947.184 6   6268758.30821        12.750           0.781
  19879034.804   -23512885.539 7 -18321707.39823        25.250           3.000
  21789848.179   -12384689.179 6    -95589.76721        15.750           0.781
  22546035.585    -9375215.127 5  -7050869.11621         8.750           0.344
  21255996.929   -16049480.758 6 -12304762.93421        14.500           0.813
 91  6  6 18 32 29.9950000  0  5G18G 2G11G16G 6
  22197988.663     8072837.656 6   6290490.99021        12.250           0.813
  19870086.382   -23559907.130 7 -18358347.58123        25.750           3.031
  21788864.023   -12389853.597 6    -99614.00421        15.750           0.719
  22544567.358    -9382914.826 5  -7056868.94221         8.500           0.313
  21245212.640   -16106147.715 6 -12348918.98921        14.250           0.781
 91  6  6 18 32 44.9950000  0  5G18G 2G11G16G 6
  22203299.968     8100750.524 6   6312241.11521        12.500           0.719
  19861149.569   -23606867.680 7 -18394940.19523        25.750           3.031
  21787907.562   -12394890.886 6   -103539.18421        15.250           0.750
  22543121.499    -9390523.599 5  -7062798.42621         8.750           0.281
  21234428.843   -16162815.959 6 -12393076.06021        14.000           1.000
 91  6  6 18 32 59.9950000  0  5G18G 2G11G16G 6
  22208617.780     8128693.463 6   6334014.70321        12.750           0.656
  19852227.429   -23653759.346 7 -18431479.13323        26.000           3.125
  21786973.773   -12399793.345 6   -107359.29721        15.500           0.750
  22541689.171    -9398033.672 5  -7068650.50421         8.500           0.313
  21223646.194   -16219477.520 6 -12437227.90421        14.250           1.000
 91  6  6 18 33 14.9950000  0  5G18G 2G11G16G 6
  22213939.171     8156658.113 6   6355805.18821        12.000           0.688
  19843315.624   -23700590.265 7 -18467970.73223        25.750           3.156
  21786062.968   -12404569.281 6   -111080.82321        15.500           0.750
  22540279.077    -9405453.435 5  -7074432.18321         9.000           0.250
  21212864.999   -16276140.406 6 -12481380.78721        14.500           0.969
 91  6  6 18 33 29.9950000  0  5G18G 2G11G16G 6
  22219264.140     8184644.524 6   6377612.63221        12.500           0.656
  19834416.444   -23747359.882 7 -18504414.57623        26.250           3.063
  21785181.007   -12409218.337 6   -114703.48421        15.000           0.750
  22538885.460    -9412782.762 5  -7080143.41121         8.750           0.313
  21202081.491   -16332803.993 6 -12525534.22221        14.750           0.906
 91  6  6 18 33 44.9950000  0  5G18G 2G11G16G 6
  22224594.327     8212653.507 6   6399437.66021        12.750           0.531
  19825526.952   -23794067.170 7 -18540809.84523        26.000           3.125
  21784318.694   -12413739.788 6   -118226.71321        15.250           0.750
  22537506.218    -9420020.642 5  -7085783.91521         8.500           0.344
  21191299.265   -16389467.373 6 -12569687.49821        14.500           0.906
 91  6  6 18 33 59.9950000  0  5G18G 2G11G16G 6
  22229927.101     8240682.509 6   6421278.29621        13.000           0.594
  19816650.288   -23840714.253 7 -18577158.20623        26.000           3.094
  21783485.124   -12418136.016 6   -121652.35921        15.500           0.750
  22536148.319    -9427169.766 5  -7091354.71021         7.500           0.219
  21180515.687   -16446132.647 6 -12613842.25421        14.500           1.000
 91  6  6 18 34 14.9950000  0  5G18G 2G11G16G 6
  22235267.921     8268740.084 6   6443141.19121        12.500           0.656
  19807787.054   -23887292.556 7 -18613452.96823        26.000           3.031
  21782671.851   -12422398.654 6   -124973.91921        15.500           0.750
  22534803.437    -9434221.850 5  -7096849.92421         7.750           0.250
  21169734.671   -16502791.145 6 -12657991.71621        14.750           1.063
 91  6  6 18 34 29.9950000  0  5G18G 2G11G16G 6
  22240609.749     8296816.114 6   6465018.46621        12.250           0.594
  19798934.718   -23933811.638 7 -18649701.58023        26.250           3.250
  21781884.562   -12426537.354 6   -128198.89921        15.500           0.656
  22533481.351    -9441186.497 5  -7102276.96121         8.500           0.188
  21158951.288   -16559452.359 6 -12702143.30521        14.750           0.938
 91  6  6 18 34 44.9950000  0  5G18G 2G11G16G 6
  22245956.616     8324914.177 6   6486912.90821        12.000           0.594
  19790094.499   -23980268.028 7 -18685901.34123        26.500           3.094
  21781122.585   -12430548.768 6   -131324.69321        15.500           0.719
  22532170.593    -9448060.602 5  -7107633.50021         8.250           0.344
  21148169.968   -16616112.680 6 -12746294.19321        15.000           0.906
 91  6  6 18 34 59.9950000  0  5G18G 2G11G16G 6
  22251308.476     8353036.620 5   6508826.35521        11.750           0.594
  19781266.983   -24026659.033 7 -18722050.15823        26.250           3.156
  21780383.968   -12434430.392 6   -134349.35821        15.500           0.656
  22530884.351    -9454841.677 5  -7112918.03821         8.250           0.250
  21137387.851   -16672769.292 6 -12790442.19321        14.750           0.813
 91  6  6 18 35 14.9950000  0  5G18G 2G11G16G 6
  22256665.390     8381178.823 6   6530755.19521        12.000           0.563
  19772450.921   -24072988.542 7 -18758151.06023        26.250           3.156
  21779667.835   -12438186.490 6   -137276.20721        15.750           0.719
  22529605.304    -9461534.162 5  -7118133.03221         8.500           0.250
  21126606.390   -16729426.168 6 -12834590.39121        14.250           0.813
 91  6  6 18 35 29.9950000  0  5G18G 2G11G16G 6
  22262025.116     8409343.672 6   6552701.68621        12.500           0.750
  19763646.694   -24119253.662 7 -18794201.78423        26.250           3.219
  21778977.171   -12441814.107 6   -140102.93921        15.750           0.719
  22528354.210    -9468135.292 5  -7123277.30821         8.500           0.281
  21115826.858   -16786080.219 6 -12878736.39821        14.250           0.938
 91  6  6 18 35 44.9950000  0  5G18G 2G11G16G 6
  22267388.374     8437525.045 6   6574661.04221        12.250           0.656
  19754853.155   -24165460.262 7 -18830206.90423        26.500           3.188
  21778311.023   -12445319.453 6   -142834.39521        15.750           0.719
  22527109.976    -9474651.450 5  -7128354.93421         8.000           0.375
  21105044.030   -16842737.307 6 -12922884.76221        14.250           0.906
 91  6  6 18 35 59.9950000  0  5G18G 2G11G16G 6
  22272756.210     8465729.973 6   6596638.74821        12.500           0.688
  19746073.140   -24211601.106 7 -18866160.79023        26.250           3.188
  21777667.327   -12448695.374 6   -145464.99521        15.250           0.594
  22525888.655    -9481075.147 5  -7133360.48121         8.000           0.219
  21094263.640   -16899390.072 6 -12967029.76221        14.250           1.063
 91  6  6 18 36 14.9950000  0  5G18G 2G11G16G 6
  22278126.601     8493959.396 6   6618635.55221        12.250           0.656
  19737304.882   -24257675.294 7 -18902062.74023        26.250           3.219
  21777050.233   -12451941.046 6   -147994.11021        15.750           0.594
  22524685.523    -9487405.473 5                         8.500
  21083483.515   -16956037.414 6 -13011170.52121        14.500           0.875
 91  6  6 18 36 29.9950000  0  5G18G 2G11G16G 6
  22283503.890     8522209.399 6   6640648.38021        12.250           0.656
  19728550.632   -24303686.341 7 -18937915.48523        26.500           3.250
  21776457.007   -12455060.260 6   -150424.68321        16.000           0.594
  22523499.702    -9493646.545 5                         9.000
  21072705.249   -17012682.815 6 -13055309.79021        15.000           0.938
 91  6  6 18 36 44.9950000  0  5G18G 2G11G16G 6
  22288883.694     8550484.832 6   6662681.02521        12.250           0.688
  19719807.710   -24349628.714 7 -18973714.71023        26.500           3.250
  21775887.874   -12458047.677 6   -152752.54721        15.750           0.656
  22522328.476    -9499793.231 5                         8.000
  21061926.866   -17069320.693 6 -13099443.18521        15.250           0.938
 91  6  6 18 36 59.9950000  0  5G18G 2G11G16G 6
  22294268.702     8578783.012 6   6684731.40621        12.750           0.750
  19711077.757   -24395504.853 7 -19009462.33723        26.250           3.250
  21775344.062   -12460906.044 6   -154979.86521        15.750           0.625
  22521177.351    -9505848.464 5        -0.13231         8.250           0.250
  21051151.069   -17125953.549 6 -13143572.67621        15.000           1.031
 91  6  6 18 37 14.9950000  0  5G18G 2G11G16G 6
  22299656.944     8607095.602 6   6706793.00721        13.500           0.781
  19702358.718   -24441322.865 7 -19045164.66623        26.250           3.219
  21774824.030   -12463643.792 6   -157113.19521        15.500           0.625
  22520038.851    -9511820.483 5     -4653.75321         7.750           0.281
  21040372.773   -17182589.345 6 -13187704.44221        14.750           0.969
 91  6  6 18 37 29.9950000  0  5G18G 2G11G16G 6
  22305047.882     8635427.815 6   6728869.90721        13.000           0.688
  19693652.710   -24487077.429 7 -19080817.55823        26.250           3.188
  21774328.038   -12466255.585 6   -159148.37421        15.750           0.594
  22518923.038    -9517704.028 5     -9238.40821         9.000           0.188
  21029596.546   -17239222.778 6 -13231834.38021        15.000           1.063
 91  6  6 18 37 44.9950000  0  5G18G 2G11G16G 6
  22310444.429     8663778.665 6   6750961.32021        12.750           0.750
  19684956.569   -24532769.407 7 -19116421.67623        26.250           3.250
  21773852.218   -12468742.399 6   -161086.17321        15.250           0.719
  22517818.437    -9523500.262 5    -13755.01421         9.000           0.281
  21018819.741   -17295854.462 6 -13275962.95021        14.750           1.031
 91  6  6 18 37 59.9950000  0  5G18G 2G11G16G 6
  22315842.843     8692149.441 6   6773068.27221        12.500           0.656
  19676274.210   -24578397.238 7 -19151975.82023        26.250           3.219
  21773405.155   -12471103.025 6   -162925.63321        15.500           0.625
  22516731.788    -9529208.106 5    -18202.76821         9.250           0.344
  21008042.444   -17352482.813 6 -13320088.91921        14.750           0.906
 91  6  6 18 38 14.9950000  0  5G18G 2G11G16G 6
  22321245.819     8720537.484 6   6795188.66821        12.000           0.625
  19667602.960   -24623963.136 7 -19187481.69323        26.250           3.219
  21772978.577   -12473339.751 6   -164668.55521        15.500           0.594
  22515663.523    -9534829.959 5    -22583.99321         8.750           0.281
  20997266.773   -17409109.837 6 -13364213.86721        14.500           0.969
 91  6  6 18 38 29.9950000  0  5G18G 2G11G16G 6
  22326648.991     8748942.122 6   6817321.98821        12.000           0.625
  19658943.796   -24669467.778 7 -19222939.83323        26.500           3.250
  21772575.288   -12475453.415 6   -166315.58721        15.500           0.656
  22514609.530    -9540366.592 5    -26898.32121         8.500           0.281
  20986492.046   -17465736.296 6 -13408338.35821        14.750           0.938
 91  6  6 18 38 44.9950000  0  5G18G 2G11G16G 6
  22332058.148     8777363.294 5   6839468.20321        11.750           0.719
  19650296.179   -24714910.669 7 -19258349.85823        26.250           3.344
  21772198.710   -12477443.941 6   -167866.65721        15.250           0.688
  22513569.773    -9545817.844 5    -31146.13321         8.250           0.250
  20975716.702   -17522361.557 6 -13452461.91821        14.750           1.000
 91  6  6 18 38 59.9950000  0  5G18G 2G11G16G 6
  22337469.882     8805801.047 5   6861627.32421        11.750           0.750
  19641660.757   -24760291.474 7 -19293711.49823        26.500           3.344
  21771842.890   -12479311.077 6   -169321.58221        15.250           0.531
  22512550.069    -9551183.696 5    -35327.38221         8.500           0.250
  20964941.312   -17578985.248 6 -13496584.26821        14.500           1.031
 91  6  6 18 39 14.9950000  0  5G18G 2G11G16G 6
  22342884.577     8834258.362 6   6883801.69221        12.250           0.719
  19633036.741   -24805606.921 7 -19329022.22323        26.250           3.313
  21771510.913   -12481051.661 6   -170677.90321        15.250           0.563
  22511545.851    -9556461.076 5    -39439.70121         8.750           0.156
  20954166.663   -17635603.957 6 -13540702.72721        14.500           0.938
 91  6  6 18 39 29.9950000  0  5G18G 2G11G16G 6
  22348302.827     8862732.862 5   6905989.45521        11.750           0.750
  19624425.812   -24850859.293 7 -19364283.79223        26.250           3.281
  21771203.905   -12482668.242 6   -171937.58521        15.000           0.625
  22510557.796    -9561652.717 5    -43485.20321         8.750           0.188
  20943393.718   -17692219.822 6 -13584818.96521        15.250           1.000
 91  6  6 18 39 44.9950000  0  5G18G 2G11G16G 6
  22353725.358     8891222.689 5   6928189.17121        11.750           0.719
  19615826.577   -24896050.263 7 -19399497.51923        26.000           3.188
  21770919.273   -12484162.656 6   -173102.08321        15.000           0.594
  22509585.593    -9566760.235 5    -47465.18921         8.250           0.313
  20932619.858   -17748834.444 6 -13628934.24921        15.500           0.906
 91  6  6 18 39 59.9950000  0  5G18G 2G11G16G 6
  22359149.530     8919730.755 5   6950403.07921        11.500           0.594
  19607239.538   -24941176.444 7 -19434660.74723        26.000           3.250
  21770657.749   -12485531.658 6   -174168.85021        14.500           0.625
  22508629.171    -9571780.413 5    -51377.10921         8.750           0.250
  20921848.218   -17805444.356 6 -13673045.85821        15.500           1.094
 91  6  6 18 40 14.9950000  0  5G18G 2G11G16G 6
  22364576.827     8948253.914 5   6972628.76021        11.250           0.563
  19598663.624   -24986240.790 7 -19469775.80723        26.250           3.313
  21770422.960   -12486778.526 6   -175140.46321        14.750           0.563
  22507691.757    -9576716.994 5    -55224.38821         9.000           0.281
  20911076.265   -17862052.411 6 -13717156.01421        15.500           1.000
 91  6  6 18 40 29.9950000  0  5G18G 2G11G16G 6
  22370010.108     8976791.057 5   6994865.32421        11.000           0.625
  19590100.468   -25031244.088 7 -19504843.29423        26.250           3.188
  21770206.296   -12487904.355 6   -176017.74721        14.750           0.594
  22506769.155    -9581570.957 5    -59006.72821         9.000           0.250
  20900302.937   -17918659.456 6 -13761265.39521        15.250           0.875
 91  6  6 18 40 44.9950000  0  5G18G 2G11G16G 6
  22375441.702     9005343.589 5   7017113.88521        11.250           0.531
  19581547.702   -25076185.041 7 -19539862.19723        26.000           3.219
  21770017.882   -12488907.774 6   -176799.64021        14.750           0.594
  22505860.444    -9586340.931 5    -62724.17721         8.750           0.219
  20889531.710   -17975263.732 6 -13805372.60821        15.000           0.969
 91  6  6 18 40 59.9950000  0  5G18G 2G11G16G 6
  22380879.327     9033913.486 5   7039375.97721        11.500           0.531
  19573008.335   -25121060.975 7 -19574830.43823        25.750           3.219
  21769848.788   -12489786.400 6   -177484.30221        14.500           0.563
  22504970.390    -9591024.702 5    -66373.93521         8.500           0.250
  20878762.093   -18031862.725 6 -13849475.70221        15.500           1.094
 91  6  6 18 41 14.9950000  0  5G18G 2G11G16G 6
  22386320.023     9062497.907 5   7061649.38721        11.250           0.500
  19564480.171   -25165874.710 7 -19609750.21723        25.750           3.219
  21769705.765   -12490543.324 6   -178074.12621        14.750           0.563
  22504095.241    -9595625.245 5    -69958.85121         7.750           0.250
  20867992.241   -18088459.219 6 -13893576.85521        15.500           1.000
 91  6  6 18 41 29.9950000  0  5G18G 2G11G16G 6
  22391762.538     9091098.060 5   7083935.05821        11.500           0.438
  19555965.108   -25210624.540 7 -19644620.19323        26.000           3.188
  21769583.976   -12491176.882 6   -178567.81221        15.000           0.656
  22503235.280    -9600141.453 5    -73478.56021         8.250           0.219
  20857222.444   -18145051.282 6 -13937674.56221        15.000           1.000
 91  6  6 18 41 44.9950000  0  5G18G 2G11G16G 6
  22397207.319     9119713.662 5   7106232.77221        11.500           0.469
  19547461.655   -25255310.676 7 -19679440.53723        25.500           3.156
  21769487.515   -12491687.624 6   -178965.80921        14.750           0.594
  22502389.757    -9604573.867 5    -76932.46221         7.750           0.313
  20846455.046   -18201639.055 6 -13981768.91821        15.250           1.031
 91  6  6 18 41 59.9950000  0  5G18G 2G11G16G 6
  22402657.233     9148345.558 5   7128543.17721        11.250           0.406
  19538970.444   -25299931.853 7 -19714210.27123        25.500           3.156
  21769414.749   -12492074.492 6   -179267.27021        15.250           0.563
  22501563.280    -9608921.158 5    -80320.06521         7.500           0.281
  20835687.077   -18258221.127 6 -14025858.83221        15.500           1.063
 91  6  6 18 42 14.9950000  0  5G18G 2G11G16G 6
  22408107.694     9176993.030 5   7150865.72921        11.250           0.406
  19530491.507   -25344488.437 7 -19748929.66923        25.250           3.188
  21769365.023   -12492338.244 6   -179472.79621        15.250           0.688
  22500752.491    -9613184.149 5    -83641.94421         7.750           0.281
  20824922.257   -18314798.023 6 -14069944.71021        15.500           1.031
 91  6  6 18 42 29.9950000  0  5G18G 2G11G16G 6
  22413562.241     9205656.904 5   7173201.05621        11.250           0.531
  19522024.733   -25388979.812 7 -19783598.24923        25.250           3.156
  21769334.898   -12492478.270 6                        15.250
  22499953.327    -9617362.368 5    -86898.30221         7.750           0.250
  20814155.562   -18371368.808 6 -14114025.83021        15.750           1.031
 91  6  6 18 42 44.9940000  0  5G18G 2G11G16G 6
  22419018.713     9234331.860 5   7195545.00821        11.250           0.469
  19513570.275   -25433405.982 7 -19818216.02923        25.250           3.156
  21769331.643   -12492497.703 6                        15.000
  22499182.104    -9621458.766 5    -90090.37921         8.250           0.344
  20803391.627   -18427932.520 6 -14158101.44021        15.750           1.063
 91  6  6 18 42 59.9940000  0  5G18G 2G11G16G 6
  22424478.697     9263026.900 5   7217904.61721        11.750           0.438
  19505129.111   -25477767.421 7 -19852783.37023        25.250           3.250
  21769354.650   -12492391.332 6                        15.000
  22498417.682    -9625468.719 5    -93215.09421         8.250           0.375
  20792629.182   -18484491.178 6 -14202173.10621        15.750           1.063
 91  6  6 18 43 14.9940000  0  5G18G 2G11G16G 6
  22429941.869     9291734.609 5   7240274.09921        11.750           0.625
  19496700.033   -25522066.314 7 -19887301.96623        25.500           3.219
  21769396.471   -12492164.581 6                        15.000
  22497665.729    -9629397.530 5    -96276.58821         7.750           0.344
  20781867.377   -18541046.173 6 -14246241.92321        15.750           1.063
 91  6  6 18 43 29.9940000  0  5G18G 2G11G16G 6
  22435408.432     9320456.243 6   7262654.42021        12.000           0.563
  19488282.377   -25566301.294 7 -19921770.77423        25.000           3.125
  21769463.385   -12491816.287 6                        14.750
  22496938.166    -9633243.959 5    -99273.89521         7.750           0.281
  20771106.596   -18597595.985 6 -14290306.70421        15.750           1.031
 91  6  6 18 43 44.9940000  0  5G18G 2G11G16G 6
  22440875.424     9349188.341 5   7285042.90221        11.750           0.594
  19479875.143   -25610475.366 7 -19956192.11523        24.750           3.188
  21769551.744   -12491349.741 6   -178702.61421        14.750           0.594
  22496218.447    -9637011.541 5   -102209.77021         7.500           0.313
  20760345.807   -18654143.549 6 -14334369.72821        15.750           0.969
 91  6  6 18 43 59.9940000  0  5G18G 2G11G16G 6
  22446345.283     9377933.909 5   7307441.87921        11.000           0.500
  19471481.627   -25654585.214 7 -19990563.41323        25.000           3.125
  21769662.650   -12490761.726 6   -178244.42221        14.750           0.563
  22495517.682    -9640697.069 5   -105081.70721         7.750           0.406
  20749586.799   -18710685.365 6 -14378428.27021        16.000           1.188
 91  6  6 18 44 14.9940000  0  5G18G 2G11G16G 6
  22451817.916     9406693.336 5   7329851.65621        10.750           0.469
  19463100.768   -25698630.456 7 -20024884.36423        25.250           3.063
  21769799.080   -12490052.123 6   -177691.50521        14.750           0.656
  22494834.291    -9644300.393 5   -107889.57221         7.500           0.313
  20738827.525   -18767220.951 6 -14422481.95821        16.000           1.094
 91  6  6 18 44 29.9940000  0  5G18G 2G11G16G 6
  22457292.424     9435466.226 5   7352271.93221        10.750           0.469
  19454731.299   -25742611.205 7 -20059155.06223        25.000           3.219
  21769955.877   -12489221.309 6   -177044.12421        14.750           0.563
  22494163.861    -9647822.110 5   -110633.85621         8.250           0.281
  20728069.971   -18823750.381 6 -14466530.84821        15.750           1.000
 91  6  6 18 44 44.9940000  0  5G18G 2G11G16G 6
  22462771.213     9464253.473 5   7374703.39521        10.750           0.500
  19446374.291   -25786526.226 7 -20093374.54123        24.750           3.156
  21770138.369   -12488268.193 6   -176301.44321        14.750           0.594
  22493509.400    -9651260.804 5   -113313.94821         9.000           0.375
  20717314.252   -18880272.253 6 -14510573.85621        15.500           0.938
 91  6  6 18 44 59.9940000  0  5G18G 2G11G16G 6
  22468251.877     9493050.996 5   7397142.85021        11.000           0.500
  19438030.330   -25830379.065 7 -20127545.57223        25.250           3.094
  21770341.854   -12487196.700 6   -175466.51921        14.500           0.531
  22492872.346    -9654620.637 5   -115932.06421         9.000           0.250
  20706559.393   -18936790.072 6 -14554613.69921        16.000           1.000
 91  6  6 18 45 14.9940000  0  5G18G 2G11G16G 6
  22473734.729     9521860.353 5   7419591.53821        11.500           0.594
  19429697.861   -25874168.348 7 -20161667.07723        25.250           3.125
  21770568.627   -12486005.336 6   -174538.19121        15.000           0.563
  22492249.072    -9657900.507 5   -118487.90221         8.250           0.344
  20695806.291   -18993302.194 6 -14598649.11321        16.000           1.156
 91  6  6 18 45 29.9940000  0  5G18G 2G11G16G 6
  22479219.572     9550683.134 5   7442050.67421        11.000           0.750
  19421376.361   -25917892.009 7 -20195737.45023        25.000           3.188
  21770819.658   -12484692.529 6   -173515.22821        15.000           0.625
  22491630.627    -9661098.989 4   -120980.32221         7.250           0.375
  20685053.861   -19049806.600 6 -14642678.50421        16.250           1.063
 91  6  6 18 45 44.9940000  0  5G18G 2G11G16G 6
  22484705.510     9579515.732 5   7464517.45221        10.500           0.750
  19413067.971   -25961553.316 7 -20229759.24023        24.500           3.125
  21771092.049   -12483261.660 6   -172400.27421        15.250           0.625
  22491042.057    -9664219.373 5   -123411.87721         8.000           0.313
  20674302.447   -19106306.354 6 -14686704.27321        16.000           1.219
 91  6  6 18 45 59.9940000  0  5G18G 2G11G16G 6
  22490195.400     9608362.701 5   7486995.42521        10.500           0.719
  19404771.822   -26005147.755 7 -20263728.92723        25.250           3.156
  21771386.768   -12481708.427 6   -171189.96921        15.000           0.594
  22490460.135    -9667257.038 4   -125778.98121         7.250           0.344
  20663551.940   -19162796.843 6 -14730722.82221        15.750           1.125
 91  6  6 18 46 14.9940000  0  5G18G 2G11G16G 6
  22495686.604     9637217.559 5   7509479.55621        10.250           0.688
  19396488.760   -26048681.248 7 -20297651.12523        25.500           3.156
  21771704.174   -12480039.025 6   -169889.14221        14.750           0.500
  22489905.174    -9670218.387 5   -128086.63221         7.500           0.406
  20652802.940   -19219283.901 6 -14774738.70221        16.250           1.156
 91  6  6 18 46 29.9940000  0  5G18G 2G11G16G 6
  22501180.947     9666087.357 5   7531975.32721        10.250           0.594
  19388216.846   -26092146.497 7 -20331520.13723        25.000           3.094
  21772045.143   -12478246.399 6   -168492.29721        14.750           0.500
  22489352.611    -9673096.647 4   -130329.52721         7.000           0.313
  20642055.924   -19275760.104 6 -14818746.11821        16.500           1.031
 91  6  6 18 46 44.9940000  0  5G18G 2G11G16G 6
  22506677.065     9694970.398 5   7554481.41221         9.750           0.563
  19379958.533   -26135545.129 7 -20365337.24823        25.250           3.156
  21772410.572   -12476332.361 6   -167000.84821        14.500           0.594
  22488816.041    -9675893.684 4   -132509.13321         6.500           0.406
  20631310.908   -19332226.940 6 -14862746.23021        16.500           1.125
 91  6  6 18 46 59.9940000  0  5G18G 2G11G16G 6
  22512176.315     9723865.696 5   7576997.05821         9.750           0.438
  19371712.729   -26178878.061 7 -20399103.15523        25.750           3.125
  21772795.330   -12474297.987 6   -165415.63121        14.000           0.500
  22488302.877    -9678610.441 4   -134626.21121         7.250           0.406
  20620567.635   -19388685.217 6 -14906739.68721        16.500           1.125
 91  6  6 18 47 14.9940000  0  5G18G 2G11G16G 6
  22517676.580     9752772.924 5   7599522.00121         9.500           0.438
  19363478.908   -26222144.970 7 -20432817.62123        25.500           3.188
  21773206.635   -12472143.197 6   -163736.59321        14.250           0.625
  22487803.854    -9681246.874 5   -136680.66221         7.500           0.375
  20609825.033   -19445134.570 6 -14950726.18421        16.000           1.156
 91  6  6 18 47 29.9940000  0  5G18G 2G11G16G 6
  22523179.361     9781687.010 5   7622052.27721         9.750           0.531
  19355256.721   -26265350.656 7 -20466484.38123        25.250           3.188
  21773638.533   -12469873.101 6   -161967.69821        14.250           0.625
  22487315.307    -9683808.137 5   -138676.56421         7.750           0.344
  20599083.752   -19501579.628 6 -14994709.33121        16.250           1.219
 91  6  6 18 47 44.9940000  0  5G18G 2G11G16G 6
  22528685.057     9810614.855 5   7644593.27721        10.000           0.438
  19347048.158   -26308488.099 7 -20500097.96723        25.250           3.219
  21774093.697   -12467480.896 6   -160103.65721        14.000           0.563
  22486847.549    -9686287.675 5   -140608.78721         8.500           0.281
  20588345.713   -19558013.177 6 -15038683.50821        16.500           1.156
 91  6  6 18 47 59.9940000  0  5G18G 2G11G16G 6
  22534191.799     9839553.589 5   7667142.77721        10.250           0.469
  19338852.557   -26351559.879 7 -20533660.38723        25.750           3.219
  21774571.283   -12464969.339 6   -158146.61121        14.000           0.563
  22486384.791    -9688688.528 5   -142479.65621         8.000           0.281
  20577607.057   -19614437.788 6 -15082650.72221        16.250           1.156
 91  6  6 18 48 14.9940000  0  5G18G 2G11G16G 6
  22539701.158     9868502.201 5   7689699.96221        10.250           0.469
  19330667.885   -26394566.888 7 -20567172.33123        25.000           3.188
  21775073.768   -12462339.689 6   -156097.55621        13.750           0.438
  22485942.236    -9691011.431 5   -144289.81521         8.000           0.250
  20566872.830   -19670854.255 6 -15126611.60021        16.500           1.219
 91  6  6 18 48 29.9940000  0  5G18G 2G11G16G 6
  22545211.377     9897458.619 5   7712263.23621        10.250           0.406
  19322495.815   -26437511.026 7 -20600635.29423        25.500           3.156
  21775596.424   -12459593.921 6   -153958.00521        13.750           0.656
  22485515.369    -9693258.323 5   -146040.72021         8.250           0.219
  20556137.815   -19727264.193 6 -15170567.38121        16.500           1.156
 91  6  6 18 48 44.9940000  0  5G18G 2G11G16G 6
  22550722.096     9926425.051 5   7734834.29821        10.000           0.469
  19314335.940   -26480389.633 7 -20634047.18623        25.750           3.094
  21776139.893   -12456729.567 6   -151726.05921        14.000           0.531
  22485106.322    -9695427.299 5   -147730.94821         9.000           0.094
  20545404.658   -19783664.852 6 -15214515.93221        16.250           1.219
 91  6  6 18 48 59.9940000  0  5G18G 2G11G16G 6
  22556236.572     9955403.060 5   7757414.39221        10.250           0.313
  19306190.502   -26523200.962 7 -20667406.65323        25.750           3.094
  21776707.752   -12453745.209 6   -149400.59821        14.250           0.438
  22484708.877    -9697516.955 5   -149359.33821         9.500           0.156
  20534673.940   -19840054.503 6 -15258455.90821        16.250           1.281
 91  6  6 18 49 14.9940000  0  5G18G 2G11G16G 6
  22561754.307     9984392.162 5   7780003.12621        11.250           0.438
  19298055.650   -26565945.260 7 -20700713.89323        25.250           3.125
  21777299.158   -12450641.281 6   -146981.96521        14.000           0.500
  22484326.291    -9699527.867 5   -150926.38221         9.500           0.188
  20523944.385   -19896433.207 6 -15302387.35121        16.500           1.219
 91  6  6 18 49 29.9940000  0  5G18G 2G11G16G 6
  22567273.924    10013390.345 6   7802598.93921        12.000           0.313
  19289934.471   -26608624.398 7 -20733970.35823        25.250           3.188
  21777912.385   -12447419.841 6   -144471.76421        14.250           0.563
  22483958.393    -9701461.828 5   -152433.50421         9.500           0.188
  20513218.330   -19952802.662 6 -15346311.59321        16.250           1.313
 91  6  6 18 49 44.9940000  0  5G18G 2G11G16G 6
  22572791.916    10042395.600 6   7825200.27521        12.000           0.375
  19281824.650   -26651240.106 7 -20767177.40123        25.750           3.313
  21778546.955   -12444082.938 6   -141871.59021        14.000           0.500
  22483601.260    -9703321.130 5   -153882.36721         9.500           0.094
  20502492.674   -20009164.351 6 -15390229.78321        16.500           1.250
 91  6  6 18 49 59.9940000  0  4G18G 2G11G 6
  22578313.994    10071409.325 6   7847808.20821        12.000           0.219
  19273728.135   -26693790.368 7 -20800333.44023        25.500           3.156
  21779204.361   -12440628.972 6   -139180.20021        13.750           0.500
  20491770.424   -20065516.457 6 -15434140.50321        16.500           1.281
 91  6  6 18 50 14.9940000  0  4G18G 2G11G 6
  22583835.893    10100430.792 5   7870422.18521        10.750           0.156
  19265643.065   -26736275.623 7 -20833438.82423        25.750           3.188
  21779883.150   -12437058.533 6   -136398.05921        13.500           0.500
  20481048.018   -20121859.121 6 -15478043.86721        16.500           1.125
 91  6  6 18 50 29.9940000  0  4G18G 2G11G 6
  22589361.838    10129463.806 5   7893045.11821        10.250           0.313
  19257571.775   -26778692.162 7 -20866490.66423        26.000           3.281
  21780585.463   -12433367.996 6   -133522.32821        13.750           0.438
  20470329.502   -20178188.505 6 -15521936.88221        16.500           1.313
 91  6  6 18 50 44.9940000  0  4G18G 2G11G 6
  22594886.869    10158500.598 5   7915671.04521         9.500           0.250
  19249511.908   -26821047.801 7 -20899495.04423        26.000           3.375
  21781309.752   -12429565.362 6   -130559.24321        14.000           0.563
  20459610.697   -20234512.159 6 -15565825.43021        16.750           1.250
 91  6  6 18 50 59.9940000  0  4G18G 2G11G 6
  22600411.838    10187544.563 5   7938302.52621         8.750           0.406
  19241463.736   -26863338.649 7 -20932448.94123        26.000           3.344
  21782054.588   -12425647.081 6   -127506.06721        14.000           0.531
  20448895.525   -20290826.071 6 -15609706.39321        16.750           1.250
 91  6  6 18 51 14.9940000  0  4G18G 2G11G 6
  22605940.877    10216596.174 5   7960939.97021         8.250           0.438
  19233428.697   -26905563.824 7 -20965351.66823        26.000           3.344
  21782822.057   -12421612.491 6   -124362.23721        14.000           0.500
  20438181.361   -20347129.470 6 -15653579.16421        16.750           1.313
 91  6  6 18 51 29.9940000  0  4G18G 2G11G 6
  22611472.604    10245655.694 5   7983583.55621         9.500           0.438
  19225405.736   -26947722.788 7 -20998202.79923        26.000           3.313
  21783614.166   -12417461.390 6   -121127.64321        14.000           0.563
  20427468.924   -20403421.528 6 -15697443.09021        16.750           1.313
 91  6  6 18 51 44.9940000  0  4G18G 2G11G 6
  22617003.315    10274723.049 5   8006233.26521         9.000           0.500
  19217396.205   -26989815.366 7 -21031002.20023        26.250           3.281
  21784425.393   -12413193.731 6   -117802.21921        13.750           0.531
  20416759.002   -20459701.976 6 -15741297.97721        16.750           1.281
 91  6  6 18 51 59.9940000  0  4G18G 2G11G 6
  22622537.283    10303797.168 5   8028888.22321         8.750           0.500
  19209398.916   -27031842.560 7 -21063750.65423        25.750           3.344
  21785259.721   -12408810.604 6   -114386.81121        13.750           0.531
  20406051.135   -20515971.576 6 -15785144.41521        16.750           1.188
 91  6  6 18 52 14.9940000  0  3G 2G11G 6
  19201413.533   -27073805.053 7 -21096448.69423        26.250           3.313
  21786114.557   -12404312.914 6   -110882.13621        13.500           0.500
  20395345.057   -20572230.764 6 -15828982.72821        16.750           1.250
 91  6  6 18 52 29.9940000  0  3G 2G11G 6
  19193441.565   -27115699.003 7 -21129093.32523        26.500           3.219
  21786993.854   -12399697.208 6   -107285.50521        13.750           0.500
  20384642.807   -20628475.790 6 -15872810.01421        17.000           1.344
 91  6  6 18 52 44.9940000  0  3G 2G11G 6
  19185482.041   -27157527.344 7 -21161686.82423        26.500           3.469
  21787893.065   -12394966.660 6   -103599.37621        14.000           0.531
  20373941.760   -20684709.433 6 -15916628.42921        17.000           1.219
 91  6  6 18 52 59.9940000  0  3G 2G11G 6
  19177534.369   -27199291.984 7 -21194230.69423        26.250           3.219
  21788815.291   -12390123.568 6    -99825.56321        13.750           0.500
  20363242.143   -20740933.484 6 -15960439.36321        17.000           1.094
 91  6  6 18 53 14.9940000  0  3G 2G11G 6
  19169599.205   -27240989.614 7 -21226722.34423        26.500           3.281
  21789759.815   -12385164.780 6    -95961.60221        13.500           0.531
  20352547.721   -20797144.360 6 -16004240.04121        17.000           1.250
 91  6  6 18 53 29.9940000  0  3G 2G11G 6
  19161676.174   -27282628.024 7 -21259167.84823        26.750           3.375
  21790724.440   -12380098.331 6    -92013.74921        13.500           0.563
  20341849.799   -20853349.841 6 -16048036.51621        16.750           1.219
 91  6  6 18 53 44.9940000  0  3G 2G11G 6
  19153764.400   -27324200.092 7 -21291561.65623        26.500           3.438
  21791709.697   -12374917.304 6    -87976.61421        13.500           0.375
  20331157.463   -20909542.661 6 -16091823.11521        17.000           1.281
 91  6  6 18 53 59.9940000  0  3G 2G11G 6
  19145866.877   -27365705.037 7 -21323903.16423        26.750           3.375
  21792716.604   -12369621.084 6    -83849.70721        13.500           0.469
  20320464.986   -20965721.753 6 -16135599.02321        17.000           1.250
 91  6  6 18 54 14.9940000  0  3G 2G11G 6
  19137981.104   -27407145.213 7 -21356194.20123        26.750           3.281
  21793745.736   -12364212.290 6    -79635.09421        13.250           0.563
  20309777.900   -21021889.414 6 -16179366.02121        17.250           1.281
 91  6  6 18 54 29.9940000  0  3G 2G11G 6
  19130107.408   -27448519.953 7 -21388434.25323        26.750           3.313
  21794796.940   -12358690.680 6    -75332.56621        13.250           0.438
  20299093.096   -21078044.961 6 -16223123.58321        17.250           1.375
 91  6  6 18 54 44.9940000  0  3G 2G11G 6
  19122246.182   -27489833.833 7 -21420626.87923        26.500           3.344
  21795867.674   -12353060.985 6    -70945.82021        13.250           0.438
  20288406.869   -21134192.663 6 -16266875.02721        16.750           1.375
 91  6  6 18 54 59.9940000  0  3G 2G11G 6
  19114395.635   -27531086.273 7 -21452771.63423        27.000           3.438
  21796961.197   -12347322.756 6    -66474.49721        13.500           0.594
  20277724.705   -21190331.709 6 -16310619.72821        17.000           1.250
 91  6  6 18 55 14.9940000  0  3G 2G11G 6
  19106558.127   -27572272.122 7 -21484864.50023        27.000           3.375
  21798074.596   -12341471.104 6    -61914.79821        13.250           0.563
  20267044.619   -21246456.832 6 -16354353.57721        17.250           1.313
 91  6  6 18 55 29.9940000  0  3G 2G11G 6
  19098733.986   -27613393.787 7 -21516907.35023        26.750           3.313
  21799207.611   -12335509.021 6    -57269.04621        13.500           0.594
  20256365.041   -21302570.509 6 -16398078.51721        17.000           1.313
 91  6  6 18 55 44.9940000  0  3G 2G11G 6
  19090920.549   -27654450.235 7 -21548899.38723        26.500           3.281
  21800365.135   -12329435.403 6    -52536.39521        13.500           0.594
  20245689.861   -21358671.515 6 -16441793.57821        17.250           1.344
 91  6  6 18 55 59.9940000  0  3G 2G11G 6
  19083119.018   -27695443.696 7 -21580842.33623        26.000           3.250
  21801541.135   -12323252.791 6    -47718.79921        13.250           0.500
  20235017.330   -21414761.791 6 -16485500.28021        17.250           1.250
 91  6  6 18 56 14.9940000  0  3G 2G11G 6
  19075331.018   -27736373.812 7 -21612735.92923        26.250           3.313
  21802739.291   -12316961.118 6    -42816.22421        13.500           0.500
  20224344.955   -21470840.954 6 -16529198.32121        17.000           1.344
 91  6  6 18 56 29.9940000  0  3G 2G11G 6
  19067554.643   -27777236.105 7 -21644576.67423        26.250           3.281
  21803955.721   -12310556.010 6    -37825.26421        12.750           0.531
  20213678.111   -21526904.161 6 -16572883.92821        17.500           1.313
 91  6  6 18 56 44.9940000  0  3G 2G11G 6
  19059791.666   -27818034.138 7 -21676367.34823        26.250           3.281
  21805196.666   -12304041.390 6    -32748.96721        13.000           0.500
  20203011.182   -21582954.896 6 -16616559.81321        17.250           1.438
 91  6  6 18 56 59.9940000  0  3G 2G11G 6
  19052040.815   -27858764.690 7 -21708105.43923        26.500           3.281
  21806458.674   -12297414.316 6    -27585.03921        12.750           0.500
  20192346.666   -21638989.902 6 -16660223.44221        17.500           1.406
 91  6  6 18 57 14.9940000  0  3G 2G11G 6
  19044302.346   -27899429.011 7 -21739791.92023        26.250           3.219
  21807738.752   -12290676.241 6    -22334.60621        12.250           0.438
  20181687.721   -21695010.335 6 -16703875.71921        17.500           1.344
 91  6  6 18 57 29.9930000  0  4G19G 2G11G 6
  19805060.536          -0.43416                        16.250
  19036577.317   -27940022.865 7 -21771423.49023        26.500           3.281
  21809042.817   -12283826.437 6    -16997.11621        12.250           0.438
  20171030.216   -21751010.677 6 -16747512.34121        17.750           1.344
 91  6  6 18 57 44.9930000  0  4G19G 2G11G 6
  19804738.357       -1678.557 6                        17.250
  19028865.208   -27980554.212 7 -21803006.36023        26.500           3.219
  21810367.669   -12276866.761 6    -11574.01521        12.500           0.531
  20160376.286   -21807000.705 6 -16791140.91721        17.750           1.344
 91  6  6 18 57 59.9930000  0  4G19G 2G11G 6
  19804432.388       -3291.889 6        -0.23632        16.750           2.031
  19021165.755   -28021013.469 7 -21834533.04823        26.750           3.281
  21811713.114   -12269791.014 6     -6060.47121        12.250           0.344
  20149726.021   -21862969.726 6 -16834753.13221        17.750           1.250
 91  6  6 18 58 14.9930000  0  4G19G 2G11G 6
  19804134.786       -4845.695 6     -1211.02822        17.250           2.094
  19013479.302   -28061405.993 7 -21866007.74023        26.750           3.344
  21813082.935   -12262604.610 6      -460.68921        12.750           0.406
  20139079.239   -21918922.826 6 -16878352.93821        17.750           1.313
 91  6  6 18 58 29.9930000  0  4G19G 2G11G 6
  19803852.810       -6344.413 6     -2378.89322        16.500           2.094
  19005804.521   -28101736.231 7 -21897433.89723        26.750           3.313
  21814469.302   -12255312.424 6      5221.50121        12.750           0.406
  20128434.169   -21974864.308 6 -16921943.69421        17.750           1.438
 91  6  6 18 58 44.9930000  0  4G19G 2G11G 6
  19803576.247       -7783.517 6     -3500.30022        17.500           2.094
  18998142.685   -28141999.659 7 -21928807.99323        26.750           3.313
  21815877.591   -12247910.221 6     10989.44521        12.250           0.375
  20117791.411   -22030789.584 6 -16965521.81721        17.750           1.406
 91  6  6 18 58 59.9930000  0  4G19G 2G11G 6
  19803315.357       -9159.457 6     -4572.49222        17.000           2.125
  18990494.419   -28182192.674 7 -21960127.22123        27.000           3.250
  21817307.247   -12240394.650 6     16845.71721        12.250           0.375
  20107152.255   -22086694.910 6 -17009084.39721        17.500           1.375
 91  6  6 18 59 14.9930000  0  4G19G 2G11G 6
  19803063.646      -10478.644 6     -5600.45822        17.500           2.031
  18982858.091   -28222321.851 7 -21991396.70623        27.000           3.219
  21818758.310   -12232772.630 6     22784.93721        12.500           0.438
  20096516.911   -22142586.745 6 -17052636.46321        17.500           1.469
 91  6  6 18 59 29.9930000  0  4G19G 2G11G 6
  19802825.411      -11740.243 6     -6583.54722        16.500           2.000
  18975234.583   -28262386.292 7 -22022615.74923        27.500           3.375
  21820228.380   -12225043.469 6     28807.62021        12.500           0.344
  20085883.489   -22198464.059 6 -17096177.21321        17.500           1.406
 91  6  6 18 59 44.9930000  0  4G19G 2G11G 6
  19802595.950      -12940.541 6     -7518.87622        17.250           2.031
  18967623.083   -28302382.470 7 -22053781.59623        27.250           3.313
  21821721.661   -12217203.876 6     34916.38721        12.750           0.281
  20075254.286   -22254323.067 6 -17139703.70321        17.500           1.344
 91  6  6 18 59 59.9930000  0  4G19G 2G11G 6
  19802379.560      -14084.143 6     -8410.02222        16.500           1.969
  18960023.927   -28342314.996 7 -22084897.84423        27.000           3.188
  21823232.661   -12209258.617 6     41107.47421        13.000           0.375
  20064626.091   -22310168.084 6 -17183219.28421        17.500           1.469
 91  6  6 19  0 14.9930000  0  4G19G 2G11G 6
  19802172.278      -15170.573 6     -9256.61922        17.500           1.938
  18952436.911   -28382183.490 7 -22115964.20123        27.000           3.188
  21824765.950   -12201207.673 6     47380.92921        12.750           0.344
  20054003.505   -22365998.796 6 -17226723.72321        17.500           1.438
 91  6  6 19  0 29.9930000  0  4G19G 2G11G 6
  19801978.442      -16196.663 6    -10056.20022        16.750           2.000
  18944863.521   -28421984.893 7 -22146978.27823        27.000           3.219
  21826317.802   -12193048.237 6     53738.91121        12.750           0.469
  20043381.521   -22421811.852 6 -17270214.40521        17.500           1.406
 91  6  6 19  0 44.9930000  0  4G19G 2G11G 6
  19801791.669      -17167.287 6    -10812.56122        17.500           1.875
  18937300.857   -28461724.145 7 -22177943.92523        27.000           3.281
  21827890.458   -12184785.558 6     60177.34021        12.500           0.375
  20032763.380   -22477612.176 6 -17313695.16821        17.500           1.469
 91  6  6 19  0 59.9930000  0  4G19G 2G11G 6
  19801619.114      -18073.679 6    -11518.86322        17.250           1.813
  18929752.786   -28501392.461 7 -22208854.29623        27.000           3.250
  21829485.341   -12176411.209 6     66702.78921        13.000           0.438
  20022150.185   -22533390.632 6 -17357158.89021        17.500           1.469
 91  6  6 19  1 14.9930000  0  4G19G 2G11G 6
  19801457.942      -18921.409 6    -12179.46322        17.250           1.969
  18922216.286   -28540995.732 7 -22239713.98423        27.250           3.344
  21831097.521   -12167931.069 6     73310.66021        12.500           0.469
  20011537.857   -22589152.916 6 -17400610.00322        17.250           1.500
 91  6  6 19  1 29.9930000  0  4G19G 2G11G 6
  19801306.278      -19720.971 6    -12802.52522        16.500           1.813
  18914689.880   -28580544.426 7 -22270531.14323        27.250           3.313
  21832729.630   -12159356.063 6     79992.45721        12.250           0.531
  20000929.114   -22644909.405 6 -17444056.60221        17.500           1.375
 91  6  6 19  1 44.9930000  0  4G19G 2G11G 6
  19801163.942      -20464.920 6    -13382.25722        16.750           1.906
  18907176.911   -28620031.046 7 -22301299.93523        27.250           3.281
  21834381.966   -12150678.956 5     86753.81921        11.750           0.406
  19990320.442   -22700652.431 6 -17487492.71021        17.750           1.469
 91  6  6 19  1 59.9930000  0  4G19G 2G11G 6
  19801035.521      -21150.601 6    -13916.58722        16.250           1.875
  18899674.450   -28659453.158 7 -22332018.45623        27.500           3.281
  21836052.232   -12141897.382 5     93596.57721        11.500           0.469
  19979715.575   -22756379.313 6 -17530916.24322        17.500           1.500
 91  6  6 19  2 14.9930000  0  4G19G 2G11G 6
  19800914.255      -21778.163 6    -14405.63022        17.000           1.781
  18892185.560   -28698810.717 7 -22362686.68123        27.500           3.188
  21837743.341   -12133011.731 5    100520.42821        11.250           0.438
  19969114.864   -22812089.954 6 -17574327.11621        17.750           1.406
 91  6  6 19  2 29.9930000  0  4G19G 2G11G 6
  19800807.286      -22347.901 6    -14849.61622        16.250           1.875
  18884707.489   -28738103.997 7 -22393304.81723        27.500           3.156
  21839453.232   -12124022.588 5    107524.91621        11.250           0.406
  19958516.763   -22867784.500 6 -17617725.45221        18.000           1.469
 91  6  6 19  2 44.9930000  0  4G19G 2G11G 6
  19800708.841      -22858.557 6    -15247.56522        17.000           1.781
  18877242.575   -28777332.188 7 -22423872.23423        27.750           3.250
  21841183.607   -12114929.238 5    114610.61721        11.000           0.313
  19947921.021   -22923461.825 6 -17661110.36821        17.500           1.469
 91  6  6 19  2 59.9930000  0  4G19G 2G11G 6
  19800625.536      -23312.373 6    -15601.22122        16.250           1.688
  18869790.380   -28816497.504 7 -22454390.66223        27.750           3.219
  21842933.380   -12105734.222 5    121775.54621        11.000           0.406
  19937329.810   -22979123.977 6 -17704483.46321        17.750           1.438
 91  6  6 19  3 14.9930000  0  4G19G 2G11G 6
  19800546.177      -23707.279 6    -15908.97222        16.750           1.813
  18862350.450   -28855597.919 7 -22484858.51523        27.750           3.219
  21844703.028   -12096435.615 5    129021.17621        11.000           0.344
  19926739.849   -23034768.718 6 -17747842.99621        17.750           1.438
 91  6  6 19  3 29.9930000  0  4G19G 2G11G 6
  19800484.489      -24045.466 6    -16172.52922        16.250           1.813
  18854921.067   -28894635.633 7 -22515277.50823        27.750           3.281
  21846490.833   -12087036.023 5    136345.51321        11.000           0.344
  19916154.966   -23090398.163 6 -17791190.60922        17.500           1.531
 91  6  6 19  3 44.9930000  0  4G19G 2G11G 6
  19800429.989      -24323.720 6    -16389.38422        16.750           1.875
  18847505.028   -28933607.351 8 -22545645.07923        28.000           3.188
  21848300.419   -12077532.537 5    143750.81121        11.500           0.438
  19905571.153   -23146009.046 6 -17834523.75421        17.250           1.469
 91  6  6 19  3 59.9930000  0  4G19G 2G11G 6
  19800390.122      -24542.356 6    -16559.78322        16.250           1.813
  18840101.739   -28972513.691 8 -22575961.70523        28.250           3.250
  21850128.192   -12067925.994 5    151236.40121        11.500           0.406
  19894992.622   -23201601.637 6 -17877842.65021        17.500           1.469
 91  6  6 19  4 14.9930000  0  4G19G 2G11G 6
  19800357.771      -24699.677 6                        16.750
  18832710.716   -29011352.974 8 -22606226.07423        28.000           3.344
  21851976.575   -12058215.093 5    158803.31621        11.500           0.438
  19884418.357   -23257174.008 6 -17921145.79221        18.000           1.469
 91  6  6 19  4 29.9930000  0  4G19G 2G11G 6
  19800340.872      -24798.955 6                        15.750
  18825332.044   -29050128.506 8 -22636440.77323        28.000           3.281
  21853844.771   -12048403.227 5    166448.90021        11.500           0.469
  19873847.005   -23312729.177 6 -17964435.52121        18.000           1.344
 91  6  6 19  4 44.9930000  0  4G19G 2G11G 6
  19800334.505      -24836.735 6                        16.750
  18817965.161   -29088836.972 8 -22666603.21123        28.000           3.313
  21855729.950   -12038487.378 5    174175.50221        11.250           0.313
  19863277.763   -23368263.742 6 -18007709.20121        17.750           1.406
 91  6  6 19  4 59.9930000  0  4G19G 2G11G 6
  19800337.802      -24818.161 6                        16.000
  18810611.544   -29127483.531 8 -22696717.40923        28.250           3.188
  21857636.317   -12028472.955 5    181978.91521        11.500           0.469
  19852713.544   -23423782.697 6 -18050970.71221        17.500           1.438
 91  6  6 19  5 14.9930000  0  4G19G 2G11G 6
  19800350.419      -24745.818 6                        16.500
  18803269.083   -29166070.798 7 -22726785.41123        27.750           3.188
  21859560.536   -12018362.976 6    189856.80521        12.250           0.406
  19842150.716   -23479288.399 6 -18094221.89721        17.750           1.406
 91  6  6 19  5 29.9930000  0  4G19G 2G11G 6
  19800374.911      -24618.510 6                        16.000
  18795937.052   -29204597.730 8 -22756806.38923        28.250           3.219
  21861502.817   -12008156.433 6    197809.92821        12.250           0.469
  19831590.661   -23534779.801 6 -18137461.93722        17.500           1.500
 91  6  6 19  5 44.9930000  0  4G19G 2G11G 6
  19800409.575      -24433.019 6                        16.250
  18788618.349   -29243060.986 8 -22786777.75823        28.000           3.344
  21863462.857   -11997850.386 6    205840.60021        12.000           0.313
  19821034.333   -23590253.248 6 -18180687.98422        17.500           1.531
 91  6  6 19  5 59.9930000  0  4G19G 2G11G 6
  19800457.466      -24188.960 6                        16.000
  18781310.083   -29281460.157 8 -22816699.18323        28.000           3.313
  21865443.450   -11987444.849 6    213948.77021        12.000           0.406
  19810481.841   -23645708.376 6 -18223899.76621        17.500           1.438
 91  6  6 19  6 14.9930000  0  4G19G 2G11G 6
  19800512.630      -23885.462 6    -16048.25822        16.500           1.906
  18774015.146   -29319794.670 7 -22846570.22923        27.750           3.250
  21867444.263   -11976939.305 5    222134.89021        11.750           0.469
  19799933.044   -23701144.248 6 -18267096.53921        17.750           1.375
 91  6  6 19  6 29.9930000  0  4G19G 2G11G 6
  19800587.200      -23521.378 6    -15764.59622        15.500           1.813
  18766733.208   -29358063.444 7 -22876390.05223        27.500           3.313
  21869460.177   -11966332.981 5    230399.53521        11.500           0.438
  19789387.919   -23756559.473 6 -18310277.22621        17.750           1.438
 91  6  6 19  6 44.9930000  0  4G19G 2G11G 6
  19800663.302      -23098.857 6    -15435.40122        16.500           1.844
  18759463.263   -29396268.621 7 -22906160.31823        27.500           3.281
  21871498.114   -11955628.265 5    238740.84521        11.000           0.469
  19778845.669   -23811956.020 6 -18353443.35922        17.500           1.500
 91  6  6 19  6 59.9930000  0  4G19G 2G11G 6
  19800759.247      -22614.183 6    -15057.77422        15.500           1.844
  18752206.372   -29434406.489 7 -22935878.13323        27.500           3.219
  21873555.794   -11944821.771 5    247161.45421        11.250           0.313
  19768307.427   -23867330.240 6 -18396592.09422        17.250           1.500
 91  6  6 19  7 14.9930000  0  4G19G 2G11G 6
  19800859.185      -22072.814 6    -14635.96722        16.500           1.813
  18744960.263   -29472482.703 7 -22965547.91323        27.250           3.250
  21875630.021   -11933919.422 5    255656.76621        11.500           0.375
  19757774.364   -23922687.465 6 -18439727.59122        17.500           1.500
 91  6  6 19  7 29.9930000  0  4G19G 2G11G 6
  19800975.638      -21471.696 6    -14167.60422        15.500           1.938
  18737726.825   -29510494.245 7 -22995167.29323        27.500           3.281
  21877723.427   -11922918.402 5    264228.96721        11.000           0.313
  19747245.458   -23978024.282 6 -18482847.18722        17.250           1.531
 91  6  6 19  7 44.9930000  0  4G19G 2G11G 6
  19801098.560      -20811.235 6    -13652.99822        16.500           1.875
  18730505.864   -29548441.562 7 -23024736.63123        27.500           3.313
  21879831.989   -11911819.397 5    272877.50821        10.250           0.250
  19736718.177   -24033341.167 6 -18525951.25022        17.250           1.563
 91  6  6 19  7 59.9930000  0  4G19G 2G11G 6
  19801239.513      -20084.260 6    -13086.56822        16.250           1.844
  18723298.286   -29586317.446 7 -23054250.30623        27.250           3.344
  21881967.989   -11900615.705 5    281607.62821        10.750           0.375
  19726195.583   -24088630.776 6 -18569034.05722        17.250           1.500
 91  6  6 19  8 14.9930000  0  4G19G 2G11G 6
  19801386.966      -19299.826 6    -12475.36222        16.750           1.938
  18716102.794   -29624130.877 7 -23083715.31823        27.500           3.219
  21884117.544   -11889316.663 5    290412.04521        10.500           0.219
  19715678.763   -24143902.008 6 -18612102.54822        17.500           1.563
 91  6  6 19  8 29.9930000  0  4G19G 2G11G 6
  19801548.989      -18454.636 6    -11816.81322        16.750           1.875
  18708919.872   -29661878.840 7 -23113129.31123        27.500           3.281
  21886284.435   -11877919.319 5    299293.06721        10.250           0.438
  19705165.927   -24199151.488 6 -18655154.08322        17.250           1.531
 91  6  6 19  8 44.9930000  0  4G19G 2G11G 6
  19801718.685      -17552.077 6    -11113.55922        16.500           1.813
  18701748.255   -29699564.855 7 -23142495.03523        27.250           3.375
  21888472.911   -11866427.570 5    308247.63521        10.500           0.313
  19694654.357   -24254382.482 6 -18698191.21622        17.500           1.656
 91  6  6 19  8 59.9930000  0  4G19G 2G11G 6
  19801905.599      -16588.413 6    -10362.69222        15.500           1.938
  18694589.067   -29737185.146 7 -23171809.54823        27.250           3.281
  21890678.700   -11854837.909 5    317278.51621        10.500           0.344
  19684149.669   -24309591.073 6 -18741210.88722        17.500           1.563
 91  6  6 19  9 14.9930000  0  4G19G 2G11G 6
  19802097.466      -15567.101 6     -9566.91222        16.500           1.813
  18687443.060   -29774743.256 7 -23201075.60223        27.500           3.438
  21892900.950   -11843153.922 5    326382.88821        10.750           0.344
  19673645.653   -24364780.643 6 -18784215.73822        17.500           1.625
 91  6  6 19  9 29.9930000  0  4G19G 2G11G 6
  19802306.802      -14487.827 6     -8725.95722        15.250           1.906
  18680306.794   -29812238.899 7 -23230292.98623        27.500           3.375
  21895142.763   -11831375.683 5    335560.71121        11.000           0.344
  19663148.911   -24419950.509 6 -18827205.24022        17.750           1.625
 91  6  6 19  9 44.9930000  0  4G19G 2G11G 6
  19802519.271      -13345.504 6     -7835.87622        16.750           1.750
  18673184.896   -29849666.912 7 -23259457.67223        27.250           3.313
  21897403.067   -11819498.584 5    344815.55721        11.000           0.344
  19652654.497   -24475095.518 6 -18870175.36822        17.500           1.563
 91  6  6 19  9 59.9930000  0  4G19G 2G11G 6
  19802751.724      -12142.321 6     -6898.36522        15.750           1.906
  18666074.192   -29887029.712 7 -23288571.54123        27.500           3.375
  21899681.349   -11807525.124 5    354145.50621        11.000           0.344
  19642166.341   -24530217.836 6 -18913127.81122        17.750           1.625
 91  6  6 19 10 14.9930000  0  4G19G 2G11G 6
  19802989.669      -10876.491 6     -5912.04322        16.500           1.750
  18658977.950   -29924325.663 7 -23317633.31823        27.750           3.281
  21901977.497   -11795453.900 5    363551.62021        11.000           0.344
  19631679.966   -24585315.501 6 -18956061.04822        18.000           1.688
 91  6  6 19 10 29.9930000  0  4G19G 2G11G 6
  19803241.505       -9557.909 6     -4884.61222        16.500           1.750
  18651890.997   -29961564.590 7 -23346650.65823        27.750           3.406
  21904293.810   -11783295.093 5    373025.99121        11.000           0.281
  19621198.341   -24640398.347 6 -18998982.73822        17.750           1.719
 91  6  6 19 10 44.9930000  0  4G19G 2G11G 6
  19803504.169       -8176.087 6     -3807.91322        16.750           1.844
  18644817.403   -29998735.952 7 -23375615.35523        27.500           3.438
  21906625.794   -11771038.435 5    382576.61121        11.000           0.313
  19610721.614   -24695455.763 6 -19041884.61122        17.750           1.719
 91  6  6 19 10 59.9930000  0  4G19G 2G11G 6
  19803781.286       -6729.845 6     -2681.00722        16.250           1.750
  18637757.458   -30035838.865 7 -23404526.71023        27.500           3.469
  21908976.591   -11758683.219 5    392204.02021        10.250           0.281
  19600249.521   -24750486.162 6 -19084765.42822        18.000           1.688
 91  6  6 19 11 14.9930000  0  4G19G 2G11G 6
  19804066.325       -5222.753 6     -1506.68422        16.750           1.781
  18630708.716   -30072876.826 7 -23433387.45723        27.250           3.438
  21911343.911   -11746233.313 5    401905.21821        10.250           0.344
  19589783.083   -24805493.200 6 -19127628.04522        18.000           1.656
 91  6  6 19 11 29.9930000  0  4G19G 2G11G 6
  19804364.880       -3657.002 6      -286.66222        16.250           1.844
  18623673.122   -30109851.969 7 -23462199.25223        27.250           3.406
  21913731.458   -11733691.180 5    411678.25921        10.500           0.250
  19579319.021   -24860478.961 6 -19170474.08522        17.750           1.625
 91  6  6 19 11 44.9920000  0  4G19G 2G11G 6
  19804674.336       -2022.568 6       986.87522        16.250           1.719
  18616652.274   -30146751.838 7 -23490952.39623        27.500           3.406
  21916138.195   -11721047.871 5    421530.17821        10.000           0.250
  19568860.875   -24915429.311 6 -19213292.53922        17.750           1.594
 91  6  6 19 11 59.9920000  0  4G19G 2G11G 6
  19804999.789        -324.321 6      2310.14522        15.750           1.750
  18609641.719   -30183586.498 7 -23519654.72723        27.250           3.375
  21918562.703   -11708307.251 5    431457.87121        10.250           0.375
  19558409.531   -24970356.545 6 -19256092.96622        18.000           1.688
 91  6  6 19 12 14.9920000  0  4G19G 2G11G 6
  19805331.727        1431.052 6      3677.92322        16.500           1.906
  18602643.813   -30220359.939 7 -23548309.35423        27.500           3.281
  21921004.875   -11695476.877 5    441455.53521        10.250           0.344
  19547962.227   -25025263.460 6 -19298877.56722        18.250           1.656
 91  6  6 19 12 29.9920000  0  4G19G 2G11G 6
  19805679.688        3247.841 6      5093.56222        16.000           1.781
  18595658.234   -30257068.216 7 -23576913.20323        27.500           3.375
  21923464.016   -11682552.902 5    451526.14221        10.500           0.344
  19537517.891   -25080145.783 6 -19341643.00522        18.500           1.750
 91  6  6 19 12 44.9920000  0  4G19G 2G11G 6
  19806033.750        5122.594 6      6554.36122        16.500           1.719
  18588685.086   -30293715.030 7 -23605469.16123        27.500           3.375
  21925939.570   -11669539.262 5    461666.59421        10.500           0.344
  19527077.359   -25135006.744 6 -19384391.79822        18.250           1.750
 91  6  6 19 12 59.9920000  0  4G19G 2G11G 6
  19806404.617        7056.713 6      8061.41722        15.750           1.719
  18581723.734   -30330298.962 7 -23633976.12223        27.500           3.469
  21928432.328   -11656434.876 5    471877.77321        10.250           0.438
  19516642.313   -25189844.906 6 -19427122.82622        18.250           1.781
 91  6  6 19 13 14.9920000  0  4G19G 2G11G 6
  19806782.422        9052.044 6      9616.18122        16.500           1.688
  18574774.391   -30366818.155 7 -23662432.63423        27.250           3.313
  21930944.883   -11643238.168 5    482160.88721        10.500           0.406
  19506211.516   -25244658.226 6 -19469834.50022        18.500           1.813
 91  6  6 19 13 29.9920000  0  4G19G 2G11G 6
  19807173.406       11107.623 6     11217.88622        16.500           1.688
  18567836.977   -30403273.622 7 -23690839.49323        27.500           3.250
  21933473.578   -11629950.454 5    492514.90721        10.250           0.375
  19495786.000   -25299447.330 6 -19512527.30022        18.500           1.750
 91  6  6 19 13 44.9920000  0  4G19G 2G11G 6
  19807575.664       13219.753 6     12863.65822        16.500           1.625
  18560910.492   -30439669.065 7 -23719199.57723        27.250           3.219
  21936018.352   -11616575.704 5    502936.75521        11.000           0.438
  19485363.524   -25354215.710 6 -19555203.95022        18.000           1.688
 91  6  6 19 13 59.9920000  0  4G19G 2G11G 6
  19807989.883       15388.193 6     14553.30622        16.000           1.625
  18553995.766   -30476004.643 7 -23747513.01423        27.250           3.406
  21938578.695   -11603114.629 5    513425.88621        10.500           0.406
  19474945.633   -25408963.723 6 -19597864.73122        18.500           1.781
 91  6  6 19 14 14.9920000  0  4G19G 2G11G 6
  19808411.422       17613.092 6     16286.94922        16.500           1.656
  18547093.383   -30512280.431 7 -23775779.86323        27.000           3.344
  21941157.703   -11589567.372 5    523982.14421        10.750           0.406
  19464531.836   -25463690.902 6 -19640509.28522        18.500           1.750
 91  6  6 19 14 29.9920000  0  4G19G 2G11G 6
  19808848.984       19899.713 6     18068.68722        15.750           1.500
  18540201.930   -30548491.100 7 -23803995.96523        27.250           3.219
  21943752.484   -11575928.819 5    534609.57921        10.250           0.375
  19454122.695   -25518391.860 6 -19683133.40222        18.500           1.813
 91  6  6 19 14 44.9920000  0  4G19G 2G11G 6
  19809293.547       22246.347 6     19897.18622        16.500           1.594
  18533323.531   -30584638.421 7 -23832162.70823        27.000           3.344
  21946366.289   -11562201.166 5    545306.38621        10.250           0.406
  19443717.781   -25573068.253 6 -19725738.37322        18.500           1.844
 91  6  6 19 14 59.9920000  0  4G19G 2G11G 6
  19809753.375       24649.811 6     21769.96922        15.750           1.531
  18526457.047   -30620725.553 7 -23860282.54623        27.250           3.375
  21948993.867   -11548387.971 5    556069.87821        10.250           0.375
  19433317.695   -25627722.878 6 -19768326.39022        18.500           1.813
 91  6  6 19 15 14.9920000  0  4G19G 2G11G 6
  19810219.211       27113.268 6     23689.50122        16.500           1.563
  18519601.164   -30656749.565 7 -23888353.20623        27.000           3.344
  21951640.664   -11534486.346 5    566902.29221        10.000           0.313
  19422921.445   -25682352.627 6 -19810895.01822        18.500           1.719
 91  6  6 19 15 29.9920000  0  4G19G 2G11G 6
  19810702.172       29638.448 6     25657.12922        15.750           1.531
  18512759.445   -30692708.869 7 -23916373.44123        27.000           3.313
  21954302.102   -11520495.077 5    577804.54021        10.000           0.375
  19412530.484   -25736955.701 6 -19853442.86022        18.750           1.750
 91  6  6 19 15 44.9920000  0  4G19G 2G11G 6
  19811192.109       32222.812 6     27670.87422        16.750           1.531
  18505928.367   -30728605.953 7 -23944345.19123        27.000           3.250
  21956980.828   -11506416.979 5    588774.45721        10.000           0.313
  19402144.383   -25791534.296 6 -19895971.63422        18.500           1.688
 91  6  6 19 15 59.9920000  0  4G19G 2G11G 6
  19811697.109       34870.240 6     29733.75822        15.500           1.594
  18499109.867   -30764436.892 7 -23972265.40123        27.250           3.313
  21959677.836   -11492248.441 5    599814.85421        10.250           0.344
  19391764.484   -25846084.281 6 -19938478.10122        18.750           1.906
 91  6  6 19 16 14.9920000  0  4G19G 2G11G 6
  19812211.969       37580.628 6     31845.69622        16.250           1.625
  18492303.984   -30800201.916 7 -24000134.25123        27.250           3.281
  21962388.891   -11477989.871 5    610925.39121         9.750           0.281
  19381389.570   -25900605.715 6 -19980962.33022        18.750           1.750
 91  6  6 19 16 29.9920000  0  4G19G 2G11G 6
  19812740.359       40349.292 6     34003.04522        15.500           1.594
  18485509.906   -30835905.814 7 -24027955.46423        27.250           3.344
  21965121.031   -11463646.272 5    622102.19021         9.750           0.281
  19371020.156   -25955102.958 6 -20023427.70322        19.000           1.875
 91  6  6 19 16 44.9920000  0  4G19G 2G11G 6
  19813277.828       43179.045 6     36208.00122        16.250           1.594
  18478727.906   -30871545.491 7 -24055726.64023        27.250           3.281
  21967869.305   -11449215.118 5    633347.21421         9.750           0.188
  19360653.399   -26009573.102 6 -20065871.96022        19.000           1.875
 91  6  6 19 16 59.9920000  0  4G19G 2G11G 6
  19813829.078       46071.225 6     38461.59922        15.500           1.563
  18471957.820   -30907119.902 7 -24083446.95823        27.500           3.250
  21970629.344   -11434695.462 5    644661.20321         9.750           0.188
  19350292.578   -26064014.643 6 -20108293.93322        19.000           1.875
 91  6  6 19 17 14.9920000  0  4G19G 2G11G 6
  19814390.086       49024.076 6     40762.46921        16.250           1.469
  18465200.625   -30942630.839 7 -24111117.81723        27.250           3.344
  21973408.758   -11420089.452 5    656042.48821         9.500           0.188
  19339938.508   -26118429.315 6 -20150694.96422        19.000           1.844
 91  6  6 19 17 29.9920000  0  4G19G 2G11G 6
  19814964.305       52032.315 6     43106.50321        15.750           1.469
  18458453.680   -30978083.536 7 -24138743.29023        27.250           3.250
  21976202.750   -11405402.524 5    667486.78921         9.000           0.406
  19329588.516   -26172821.954 6 -20193078.83022        19.000           1.813
 91  6  6 19 17 44.9920000  0  4G19G 2G11G 6
  19815545.945       55100.146 6     45496.97021        16.250           1.469
  18451720.195   -31013473.913 7 -24166320.20423        27.500           3.219
  21979015.828   -11390630.955 5    678997.07221         9.250           0.281
  19319242.234   -26227188.362 6 -20235442.25822        19.250           1.906
 91  6  6 19 17 59.9920000  0  4G19G 2G11G 6
  19816141.813       58227.958 6     47934.17322        16.000           1.500
  18444996.922   -31048801.639 7 -24193848.29823        27.750           3.219
  21981843.016   -11375774.758 5    690573.31521         9.750           0.281
  19308901.609   -26281528.069 6 -20277784.87222        18.750           1.781
 91  6  6 19 18 14.9920000  0  4G19G 2G11G 6
  19816747.977       61417.462 6     50419.44722        16.250           1.531
  18438286.117   -31084065.210 7 -24221326.39923        27.250           3.250
  21984684.391   -11360832.453 5    702216.63921         8.750           0.156
  19298567.336   -26335839.032 6 -20320105.09722        19.250           1.969
 91  6  6 19 18 29.9920000  0  4G19G 2G11G 6
  19817368.578       64668.951 6     52953.02421        15.750           1.469
  18431588.680   -31119264.291 7 -24248754.24623        27.250           3.281
  21987546.945   -11345804.104 5    713926.99121         9.250           0.313
  19288236.250   -26390120.836 6 -20362402.60322        19.000           1.875
 91  6  6 19 18 44.9920000  0  4G19G 2G11G 6
  19817996.859       67982.231 6     55534.74721        16.000           1.469
  18424901.469   -31154398.911 7 -24276131.86523        27.000           3.406
  21990420.391   -11330690.106 5    725704.09221         9.500           0.188
  19277915.109   -26444373.516 6 -20404677.40922        19.250           1.906
 91  6  6 19 18 59.9920000  0  4G19G 2G11G 6
  19818643.547       71359.379 6     58166.24022        15.250           1.500
  18418229.149   -31189467.282 7 -24303457.86523        27.250           3.250
  21993313.609   -11315489.022 5    737549.06621         9.750           0.313
  19267594.899   -26498594.872 6 -20446927.81022        19.000           1.844
 91  6  6 19 19 14.9920000  0  4G19G 2G11G 6
  19819294.047       74796.616 6     60844.55022        16.000           1.594
  18411567.149   -31224473.261 7 -24330735.24523        27.250           3.344
  21996222.719   -11300204.962 5    749458.67821        10.000           0.406
  19257282.641   -26552788.509 6 -20489156.61222        19.000           1.906
 91  6  6 19 19 29.9920000  0  4G19G 2G11G 6
  19819964.219       78292.586 6     63568.62422        14.750           1.625
  18404918.234   -31259417.918 7 -24357964.84923        27.250           3.344
  21999147.141   -11284839.415 5    761431.80521        10.250           0.281
  19246974.750   -26606955.450 6 -20531364.60622        19.500           1.938
 91  6  6 19 19 44.9920000  0  4G19G 2G11G 6
  19820636.727       81849.315 6     66340.04521        15.750           1.469
  18398280.094   -31294299.416 7 -24385145.23123        26.750           3.344
  22002087.359   -11269390.846 5    773469.60221        10.250           0.250
  19236673.375   -26661093.563 6 -20573550.13722        19.500           1.906
 91  6  6 19 19 59.9920000  0  4G19G 2G11G 6
  19821328.906       85465.636 6     69157.90022        15.000           1.594
  18391654.305   -31329119.194 7 -24412277.52123        27.000           3.313
  22005042.359   -11253860.821 5    785570.89121        10.500           0.281
  19226376.547   -26715204.023 6 -20615714.12122        19.500           1.844
 91  6  6 19 20 14.9920000  0  4G19G 2G11G 6
  19822022.688       89140.393 6     72021.29022        16.000           1.625
  18385038.836   -31363878.415 7 -24439362.62523        27.000           3.313
  22008012.602   -11238250.645 5    797734.62421        10.500           0.281
  19216085.313   -26769287.657 6 -20657857.19922        19.500           1.875
 91  6  6 19 20 29.9920000  0  4G19G 2G11G 6
  19822736.774       92872.206 6     74929.13322        15.250           1.594
  18378436.602   -31398578.540 7 -24466401.67823        27.000           3.219
  22010998.195   -11222562.142 5    809959.39721        10.250           0.250
  19205796.375   -26823345.722 6 -20699980.35822        19.250           1.938
 91  6  6 19 20 44.9920000  0  4G19G 2G11G 6
  19823455.586       96664.700 6     77884.26922        16.000           1.594
  18371844.719   -31433215.881 7 -24493391.81323        27.000           3.250
  22013997.570   -11206792.020 5    822247.76521        10.000           0.375
  19195516.945   -26877374.469 6 -20742080.67422        19.750           2.031
 91  6  6 19 20 59.9920000  0  4G19G 2G11G 6
  19824190.024      100516.435 6     80885.56522        15.250           1.656
  18365266.063   -31467791.896 7 -24520334.16023        27.250           3.438
  22017015.524   -11190942.018 5    834598.38021        10.000           0.281
  19185239.531   -26931374.976 6 -20784158.98022        19.500           1.969
 91  6  6 19 21 14.9920000  0  4G19G 2G11G 6
  19824933.852      104431.731 6     83936.38422        15.750           1.531
  18358698.336   -31502302.412 7 -24547225.46723        27.000           3.281
  22020047.602   -11175008.173 5    847014.33621         9.500           0.188
  19174970.117   -26985342.816 6 -20826211.83022        19.500           2.000
 91  6  6 19 21 29.9920000  0  4G19G 2G11G 6
  19825694.524      108405.284 6     87032.59922        14.750           1.531
  18352142.234   -31536752.769 7 -24574069.89823        27.000           3.406
  22023094.430   -11158996.144 5    859491.19521         9.750           0.281
  19164706.758   -27039283.093 6 -20868243.20722        19.750           1.969
 91  6  6 19 21 44.9920000  0  4G19G 2G11G 6
  19826454.734      112428.167 6     90167.25322        15.750           1.594
  18345597.242   -31571152.027 7 -24600874.51123        27.250           3.281
  22026155.063   -11142915.371 5    872021.61321         9.750           0.406
  19154445.078   -27093204.770 6 -20910260.09322        19.750           1.875
 91  6  6 19 21 59.9920000  0  4G19G 2G11G 6
  19827237.883      116508.361 6     93346.56722        14.750           1.594
  18339062.422   -31605492.186 7 -24627633.07423        27.250           3.313
  22029227.992   -11126758.068 5    884611.66221         9.250           0.469
  19144189.602   -27147099.438 7 -20952255.93422        20.000           2.031
 91  6  6 19 22 14.9920000  0  4G19G 2G11G 6
  19828019.383      120642.171 6     96567.66321        16.250           1.469
  18332537.820   -31639776.673 7 -24654348.25623        27.250           3.469
  22032315.899   -11110528.047 5    897258.40521         9.250           0.313
  19133939.547   -27200970.652 6 -20994233.50222        19.750           1.938
 91  6  6 19 22 29.9920000  0  4G19G 2G11G 6
  19828818.789      124827.671 6     99829.03022        15.000           1.500
  18326023.250   -31674007.477 7 -24681021.60723        27.250           3.281
  22035419.219   -11094227.629 5    909959.97921         9.250           0.281
  19123691.836   -27254819.991 6 -21036194.01822        19.750           2.031
 91  6  6 19 22 44.9920000  0  4G19G 2G11G 6
  19829623.586      129071.463 6    103135.82022        16.250           1.500
  18319521.938   -31708178.403 7 -24707648.29823        27.250           3.313
  22038536.086   -11077850.756 5    922721.13521         9.250           0.406
  19113449.102   -27308640.800 6 -21078132.30622        19.500           1.969
 91  6  6 19 22 59.9920000  0  4G19G 2G11G 6
  19830441.500      133368.923 6    106484.42721        15.500           1.406
  18313029.516   -31742293.999 7 -24734231.87723        27.250           3.313
  22041664.578   -11061402.286 5    935538.08221         8.750           0.313
  19103211.992   -27362437.624 6 -21120051.90422        19.750           1.844
 91  6  6 19 23 14.9920000  0  4G19G 2G11G 6
  19831270.625      137728.858 6    109881.72321        16.000           1.344
  18306549.547   -31776345.317 7 -24760765.36923        27.000           3.250
  22044810.727   -11044873.655 5    948417.50221         8.750           0.188
  19092981.141   -27416201.291 7 -21161945.66722        20.000           1.938
 91  6  6 19 23 29.9920000  0  4G19G 2G11G 6
  19832112.891      142145.547 6    113323.23821        15.000           1.406
  18300080.930   -31810338.538 7 -24787253.59223        27.250           3.313
  22047970.516   -11028271.215 5    961354.40821         8.750           0.250
  19082756.266   -27469937.596 6 -21203818.10522        19.750           1.938
 91  6  6 19 23 44.9920000  0  4G19G 2G11G 6
  19832962.211      146621.241 6    116810.72121        15.750           1.344
  18293624.445   -31844271.355 7 -24813694.74423        27.250           3.344
  22051146.000   -11011592.984 5    974350.41121         9.250           0.156
  19072534.922   -27523644.127 6 -21245667.33822        19.500           2.000
 91  6  6 19 23 59.9920000  0  4G19G 2G11G 6
  19833826.039      151153.687 6    120342.44121        15.250           1.406
  18287177.930   -31878145.897 7 -24840090.49423        27.000           3.250
  22054334.406   -10994841.428 5    987403.52721         8.500           0.188
  19062320.258   -27577322.682 6 -21287494.77622        19.750           1.938
 91  6  6 19 24 14.9920000  0  4G19G 2G11G 6
  19834699.594      155746.311 6    123921.05021        16.000           1.281
  18280743.227   -31911958.706 7 -24866438.13523        27.000           3.313
  22057534.234   -10978013.494 5   1000516.17621         8.250           0.125
  19052111.875   -27630969.627 6 -21329297.57822        19.750           2.000
 91  6  6 19 24 29.9920000  0  4G19G 2G11G 6
  19835586.211      160396.996 6    127544.90321        15.250           1.344
  18274321.125   -31945711.937 7 -24892739.35323        27.000           3.375
  22060752.266   -10961111.517 5   1013686.50521         8.500           0.188
  19041908.195   -27684586.894 6 -21371077.25922        19.500           2.063
 91  6  6 19 24 44.9920000  0  3G19G 2G 6
  19836480.719      165108.905 6    131216.46421        15.500           1.250
  18267909.359   -31979402.634 7 -24918991.84423        26.500           3.375
  19031711.758   -27738171.156 6 -21412831.21722        19.500           2.031
 91  6  6 19 24 59.9920000  0  3G19G 2G 6
  19837390.750      169878.644 6    134933.08621        15.250           1.281
  18261509.750   -32013034.066 7 -24945198.15323        27.000           3.281
  19021521.203   -27791725.538 6 -21454561.89222        19.250           2.063
 91  6  6 19 25 14.9920000  0  3G19G 2G 6
  19838307.961      174711.562 6    138698.93121        15.250           1.281
  18255121.750   -32046600.912 7 -24971354.13823        27.000           3.281
  19011335.852   -27845244.559 6 -21496265.01422        19.250           2.063
 91  6  6 19 25 29.9920000  0  3G19G 2G 6
  19839241.391      179604.668 6    142511.67421        15.000           1.281
  18248746.234   -32080106.163 7 -24997462.12223        27.000           3.313
  19001157.930   -27898731.010 6 -21537942.75822        19.250           2.094
 91  6  6 19 25 44.9920000  0  3G19G 2G 6
  19840182.492      184556.001 6    146369.79921        16.000           1.406
  18242381.641   -32113551.873 7 -25023523.71223        26.750           3.344
  18990986.695   -27952186.674 6 -21579596.51722        19.500           2.063
 91  6  6 19 25 59.9910000  0  3G19G 2G 6
  19841134.644      189566.318 6    150273.88421        16.000           1.344
  18236028.831   -32146934.846 7 -25049536.41623        26.750           3.219
  18980820.745   -28005606.639 6 -21621222.45622        19.500           2.156
 91  6  6 19 26 14.9910000  0  3G19G 2G 6
  19842099.628      194635.533 6    154223.85921        15.750           1.375
  18229687.331   -32180260.391 7 -25075504.36923        27.000           3.313
  18970659.847   -28058998.647 6 -21662826.61022        19.250           2.156
 91  6  6 19 26 29.9910000  0  3G19G 2G 6
  19843078.331      199766.724 6    158222.12721        15.250           1.313
  18223358.472   -32213522.725 7 -25101423.07323        27.000           3.344
  18960506.753   -28112355.458 6 -21704403.33522        19.500           2.094
 91  6  6 19 26 44.9910000  0  3G19G 2G 6
  19844064.487      204958.624 6    162267.69721        15.500           1.438
  18217039.667   -32246723.146 7 -25127293.53023        27.000           3.344
  18950359.214   -28165678.136 6 -21745953.46822        19.250           2.156
 91  6  6 19 26 59.9910000  0  3G19G 2G 6
  19845065.245      210209.335 6    166359.09821        15.000           1.406
  18210732.776   -32279863.746 7 -25153117.37323        27.000           3.313
  18940218.769   -28218968.299 6 -21787478.26522        19.500           2.125
 91  6  6 19 27 14.9910000  0  3G19G 2G 6
  19846074.066      215516.074 6    170494.15921        15.500           1.438
  18204438.300   -32312947.129 7 -25178896.63423        27.000           3.250
  18930083.808   -28272228.561 6 -21828979.75722        19.500           2.219
 91  6  6 19 27 29.9910000  0  3G19G 2G 6
  19847095.901      220880.355 6    174674.05421        15.000           1.406
  18198153.566   -32345972.009 7 -25204630.30523        27.000           3.313
  18919954.237   -28325457.314 6 -21870456.69922        19.250           2.281
 91  6  6 19 27 44.9910000  0  3G19G 2G 6
  19848127.206      226303.347 6    178899.70021        15.250           1.375
  18191880.831   -32378937.330 7 -25230317.56623        27.500           3.344
  18909831.972   -28378653.167 6 -21911908.00422        19.750           2.281
 91  6  6 19 27 59.9910000  0  3G19G 2G 6
  19849172.081      231786.912 6    183172.53821        14.750           1.438
  18185618.909   -32411841.090 7 -25255956.85823        27.500           3.188
  18899715.308   -28431814.100 6 -21953332.09522        19.500           2.219
 91  6  6 19 28 14.9910000  0  3G19G 2G 6
  19850224.878      237330.234 6    187491.94321        15.750           1.375
  18179368.675   -32444684.226 7 -25281548.91223        27.250           3.375
  18889605.519   -28484940.655 6 -21994729.40222        19.250           2.188
 91  6  6 19 28 29.9910000  0  3G19G 2G 6
  19851292.472      242931.602 6    191856.58421        14.750           1.250
  18173130.526   -32477468.698 7 -25307095.25423        27.250           3.281
  18879502.136   -28538034.423 6 -22036101.15622        19.500           2.188
 91  6  6 19 28 44.9910000  0  3G19G 2G 6
  19852369.011      248595.828 6    196270.20021        15.500           1.438
  18166903.761   -32510189.391 7 -25332591.89523        27.250           3.219
  18869405.839   -28591090.256 6 -22077443.35322        19.750           2.219
 91  6  6 19 28 59.9910000  0  3G19G 2G 6
  19853460.316      254319.496 6    200730.13521        14.500           1.469
  18160688.651   -32542850.014 7 -25358041.72823        27.000           3.313
  18859317.542   -28644111.297 6 -22118758.44822        19.750           2.313
 91  6  6 19 29 14.9910000  0  3G19G 2G 6
  19854558.261      260102.972 6    205236.66521        15.250           1.438
  18154484.058   -32575450.354 7 -25383444.59023        27.250           3.250
  18849234.206   -28697097.159 7 -22160046.11922        20.000           2.250
 91  6  6 19 29 29.9910000  0  3G19G 2G 6
  19855671.394      265943.211 6    209787.43121        14.500           1.313
  18148292.472   -32607993.055 7 -25408802.53623        27.500           3.250
  18839157.019   -28750050.367 6 -22201308.35322        19.750           2.188
 91  6  6 19 29 44.9910000  0  3G19G 2G 6
  19856791.933      271840.888 6    214382.96121        15.250           1.344
  18142111.112   -32640477.596 7 -25434115.16323        27.500           3.281
  18829086.394   -28802970.183 6 -22242544.56922        19.750           2.188
 91  6  6 19 29 59.9910000  0  3G19G 2G 6
  19857927.542      277797.596 6    219024.48521        14.750           1.406
  18135940.644   -32672902.355 7 -25459381.20923        27.250           3.281
  18819023.222   -28855854.800 6 -22283753.35922        19.750           2.219
 91  6  6 19 30 14.9910000  0  3G19G 2G 6
  19859071.167      283814.479 6    223712.89721        15.000           1.313
  18129781.472   -32705266.179 7 -25484599.76823        27.250           3.250
  18808965.995   -28908702.830 6 -22324933.63722        19.750           2.250
 91  6  6 19 30 29.9910000  0  3G19G 2G 6
  19860227.901      289887.987 6    228445.42821        14.750           1.344
  18123634.441   -32737572.969 7 -25509773.88823        27.250           3.344
  18798915.425   -28961517.734 6 -22366088.10222        19.750           2.219
 91  6  6 19 30 44.9910000  0  3G19G 2G 6
  19861393.495      296021.154 6    233224.45621        15.000           1.344
  18117497.456   -32769819.670 7 -25534901.18323        27.250           3.250
  18788872.816   -29014296.242 6 -22407214.20622        19.750           2.188
 91  6  6 19 30 59.9910000  0  3G19G 2G 6
  19862573.292      302209.586 6    238046.54221        14.250           1.313
  18111372.167   -32802010.594 7 -25559985.01523        27.500           3.344
  18778836.667   -29067042.407 7 -22448315.11122        20.000           2.219
 91  6  6 19 31 14.9910000  0  3G19G 2G 6
  19863761.151      308460.856 6    242917.59321        14.750           1.375
  18105258.433   -32834138.255 7 -25585019.55523        27.500           3.313
  18768805.948   -29119748.486 7 -22489384.77622        20.250           2.281
 91  6  6 19 31 29.9910000  0  3G19G 2G 6
  19864966.034      314772.434 6    247835.64221        13.750           1.375
  18099156.339   -32866204.924 7 -25610006.56123        27.500           3.188
  18758783.659   -29172416.707 7 -22530424.94022        20.250           2.188
 91  6  6 19 31 44.9910000  0  3G19G 2G 6
  19866174.089      321141.026 6    252798.11621        15.000           1.438
  18093065.425   -32898213.987 7 -25634948.68523        27.250           3.313
  18748768.855   -29225050.111 7 -22571437.97622        20.500           2.188
 91  6  6 19 31 59.9910000  0  3G19G 2G 6
  19867401.581      327567.264 6    257805.50121        14.000           1.281
  18086985.237   -32930164.857 7 -25659845.45923        27.250           3.281
  18738758.464   -29277647.824 7 -22612423.20222        20.750           2.188
 91  6  6 19 32 14.9910000  0  3G19G 2G 6
  19868631.644      334054.258 6    262860.23321        14.750           1.313
  18080916.362   -32962054.704 7 -25684694.68723        27.250           3.313
  18728758.058   -29330206.813 7 -22653378.24922        20.500           2.281
 91  6  6 19 32 29.9910000  0  3G19G 2G 6
  19869879.519      340593.948 6    267956.03121        14.000           1.313
  18074858.534   -32993891.553 7 -25709502.62023        27.500           3.344
  18718760.714   -29382734.697 7 -22694309.06622        20.500           2.156
 91  6  6 19 32 44.9910000  0  3G19G 2G 6
  19871132.526      347197.068 6    273101.25821        14.250           1.281
  18068811.855   -33025664.616 7 -25734260.84923        27.500           3.188
  18708774.980   -29435220.554 7 -22735207.12422        20.500           2.188
 91  6  6 19 32 59.9910000  0  3G19G 2G 6
  19872401.784      353854.737 6    278288.98021        14.250           1.344
  18062776.987   -33057382.853 7 -25758976.35523        27.250           3.250
  18698792.683   -29487673.027 7 -22776079.17822        20.500           2.219
 91  6  6 19 33 14.9910000  0  3G19G 2G 6
  19873694.144      360655.219 6    283587.99021        14.750           1.250
  18056766.917   -33088957.983 7 -25783580.35123        27.250           3.219
  18688834.691   -29540003.579 7 -22816856.22322        20.500           2.219
 91  6  6 19 33 29.9910000  0  3G19G 2G 6
  19875000.534      367516.835 6    288934.63221        14.500           1.125
  18050770.698   -33120471.751 7 -25808136.53223        27.500           3.219
  18678883.300   -29592293.719 7 -22857601.78122        20.500           2.219
 91  6  6 19 33 44.9910000  0  3G19G 2G 6
  19876315.917      374431.760 6    294322.81721        14.500           1.250
  18044784.144   -33151931.950 7 -25832650.97423        27.750           3.250
  18668939.933   -29644550.978 7 -22898321.71522        20.500           2.156
 91  6  6 19 33 59.9910000  0  3G19G 2G 6
  19877646.261      381406.248 6    299757.41221        13.750           1.250
  18038809.534   -33183332.221 7 -25857118.71323        27.750           3.188
  18659002.331   -29696768.963 7 -22939011.04522        20.500           2.250
 91  6  6 19 34 14.9910000  0  4G19G 2G15G 6
  19878981.003      388442.695 6    305240.28721        14.500           1.250
  18032845.050   -33214670.385 7 -25881538.06323        27.750           3.156
  21585733.058          -0.12415                         7.750
  18649074.636   -29748944.885 7 -22979667.60422        20.500           2.125
 91  6  6 19 34 29.9910000  0  4G19G 2G15G 6
  19880335.909      395535.599 6    310767.15421        13.500           1.219
  18026892.722   -33245951.709 7 -25905913.11923        27.500           3.219
  21575447.878      -54058.932 5                         8.000
  18639152.019   -29801084.031 7 -23020295.49822        20.750           2.188
 91  6  6 19 34 44.9910000  0  4G19G 2G15G 6
  19881693.417      402688.603 6    316340.86421        14.500           1.281
  18020951.355   -33277172.925 7 -25930241.34023        27.500           3.219
  21565177.816     -108032.570 5                         8.000
  18629238.776   -29853182.693 7 -23060891.84622        20.750           2.094
 91  6  6 19 34 59.9910000  0  4G19G 2G15G 6
  19883068.144      409899.955 6    321960.02421        13.500           1.250
  18015021.269   -33308335.684 7 -25954524.00623        27.500           3.313
  21554924.441     -161922.148 5                         8.750
  18619330.995   -29905242.277 7 -23101457.74922        20.500           2.125
 91  6  6 19 35 14.9910000  0  4G19G 2G15G 6
  19884447.886      417167.680 6    327623.11421        14.250           1.250
  18009102.386   -33339442.089 7 -25978762.76223        27.750           3.250
  21544685.417     -215729.344 5                         8.750
  18609432.526   -29957264.554 7 -23141994.57922        20.500           2.094
 91  6  6 19 35 29.9910000  0  4G19G 2G15G 6
  19885843.659      424491.815 6    333330.16921        13.750           1.281
  18003193.300   -33370491.931 7 -26002957.44023        27.500           3.250
  21534459.753     -269453.444 5        -0.34931         8.750           0.281
  18599540.058   -30009249.111 7 -23182502.01622        20.500           2.063
 91  6  6 19 35 44.9910000  0  4G19G 2G15G 6
  19887247.370      431873.868 6    339082.34421        14.250           1.125
  17997296.597   -33401483.784 7 -26027106.93723        27.500           3.219
  21524252.316     -323092.804 5    -41797.21021         9.000           0.219
  18589654.355   -30061194.215 7 -23222978.71322        20.500           2.063
 91  6  6 19 35 59.9910000  0  4G19G 2G15G 6
  19888663.956      439314.524 6    344880.19221        13.750           1.156
  17991409.237   -33432417.187 7 -26051210.88323        27.500           3.250
  21514060.581     -376646.726 5    -83527.50121         9.000           0.313
  18579778.136   -30113099.198 7 -23263424.14222        20.500           2.156
 91  6  6 19 36 14.9910000  0  4G19G 2G15G 6
  19890088.948      446811.077 6    350721.59721        14.000           1.188
  17985533.737   -33463294.638 7 -26075271.23523        27.750           3.250
  21503887.019     -430117.125 5   -125192.71621         9.250           0.375
  18569907.823   -30164966.392 7 -23303840.12322        20.750           2.219
 91  6  6 19 36 29.9910000  0  4G19G 2G15G 6
  19891528.011      454366.373 6    356608.77221        14.000           1.156
  17979669.237   -33494113.291 7 -26099285.76723        27.750           3.281
  21493728.105     -483500.868 5   -166790.39221         9.500           0.438
  18560045.839   -30216792.564 7 -23344224.14622        20.750           2.156
 91  6  6 19 36 44.9910000  0  4G19G 2G15G 6
  19892975.948      461979.218 6    362540.78321        14.250           1.156
  17973815.292   -33524874.385 8 -26123255.44723        28.000           3.156
  21483585.761     -536798.749 5   -208321.17121         9.250           0.344
  18550191.730   -30268578.776 7 -23384577.02322        20.750           2.219
 91  6  6 19 36 59.9910000  0  4G19G 2G15G 6
  19894438.128      469649.084 6    368517.22621        14.000           1.188
  17967973.105   -33555578.542 7 -26147180.76123        27.750           3.219
  21473460.519     -590010.785 5   -249785.05821         9.500           0.344
  18540344.214   -30320325.170 7 -23424898.88422        20.750           2.125
 91  6  6 19 37 14.9910000  0  4G19G 2G15G 6
  19895906.276      477378.727 6    374540.25521        14.250           1.188
  17962141.300   -33586222.745 7 -26171059.35723        27.750           3.156
  21463349.800     -643133.892 5   -291179.66121         9.500           0.344
  18530505.175   -30372028.839 7 -23465187.44722        20.750           2.219
 91  6  6 19 37 29.9910000  0  4G19G 2G15G 6
  19897388.308      485164.418 6    380606.95421        13.500           1.156
  17956320.378   -33616810.863 8 -26194894.25123        28.000           3.188
  21453258.120     -696171.508 5   -332507.63621         9.500           0.500
  18520673.448   -30423693.381 7 -23505445.52422        21.000           2.344
 91  6  6 19 37 44.9910000  0  4G19G 2G15G 6
  19898882.300      493010.674 6    386720.83921        14.000           1.063
  17950511.667   -33647338.417 7 -26218681.95323        27.750           3.313
  21443183.222     -749118.602 5   -373765.07621         9.750           0.375
  18510850.128   -30475313.916 7 -23545669.31422        20.500           2.219
 91  6  6 19 37 59.9910000  0  4G19G 2G15G 6
  19900387.480      500914.816 6    392879.84721        13.500           1.063
  17944713.534   -33677808.435 7 -26242424.82423        27.750           3.063
  21433127.487     -801977.651 5   -414953.90821        10.000           0.438
  18501034.503   -30526892.957 7 -23585860.76922        20.750           2.188
 91  6  6 19 38 14.9910000  0  4G19G 2G15G 6
  19901899.487      508874.935 6    399082.46821        13.750           1.125
  17938925.573   -33708222.655 8 -26266124.21723        28.000           3.156
  21423082.448     -854750.044 5   -456075.20421        10.000           0.406
  18491227.222   -30578432.087 7 -23626021.12522        20.750           2.250
 91  6  6 19 38 29.9910000  0  4G19G 2G15G 6
  19903424.847      516890.911 6    405328.60521        13.750           1.125
  17933148.558   -33738581.180 8 -26289780.21223        28.000           3.156
  21413055.331     -907435.461 5   -497128.75021         9.750           0.406
  18481428.808   -30629931.140 7 -23666150.25322        21.000           2.281
 91  6  6 19 38 44.9910000  0  4G19G 2G15G 6
  19904960.933      524965.827 6    411620.68121        13.500           1.188
  17927382.698   -33768881.039 8 -26313390.49223        28.000           3.156
  21403046.855     -960030.735 5   -538112.03821         9.250           0.406
  18471635.409   -30681386.919 7 -23706245.66122        20.750           2.250
 91  6  6 19 38 59.9910000  0  4G19G 2G15G 6
  19906511.878      533099.504 6    417958.53821        13.250           1.156
  17921627.917   -33799122.107 8 -26336954.96123        28.000           3.094
  21393057.776    -1012535.387 5   -579024.69821         9.250           0.469
  18461852.464   -30732799.213 7 -23746307.18522        21.250           2.250
 91  6  6 19 39 14.9910000  0  5G19G 2G15G13G 6
  19908068.683      541290.460 6    424341.02621        13.750           1.250
  17915884.745   -33829305.935 8 -26360474.83023        28.000           3.219
  21383079.964    -1064950.544 5   -619867.63421         8.750           0.344
  21292987.073          -0.12114                         7.250
  18452077.706   -30784169.296 7 -23786335.81922        20.750           2.344
 91  6  6 19 39 29.9910000  0  5G19G 2G15G13G 6
  19909640.144      549539.034 6    430768.41521        13.250           1.156
  17910151.636   -33859432.364 8 -26383949.96923        28.000           3.219
  21373125.573    -1117275.602 5   -660640.36121         9.000           0.406
  21276144.581      -88505.420 5                         7.500
  18442310.183   -30835496.442 7 -23826330.99022        21.000           2.344
 91  6  6 19 39 44.9910000  0  5G19G 2G15G13G 6
  19911219.347      557842.582 6    437238.63821        13.750           1.156
  17904428.730   -33889504.123 8 -26407382.51223        28.000           3.219
  21363185.151    -1169512.684 5   -701344.52421         9.250           0.406
  21259306.269     -176991.589 5                         8.250
  18432549.933   -30886783.275 7 -23866294.75322        21.000           2.344
 91  6  6 19 39 59.9900000  0  5G19G 2G15G13G 6
  19912810.451      566202.444 6    443752.75421        13.250           1.156
  17898717.631   -33919517.336 8 -26430769.43323        28.000           3.250
  21353260.701    -1221656.266 5   -741975.85921         9.500           0.375
  21242472.428     -265450.516 5                         7.750
  18422798.889   -30938024.230 7 -23906222.77123        21.250           2.500
 91  6  6 19 40 14.9900000  0  5G19G 2G15G13G 6
  19914412.311      574623.280 6    450314.36721        13.500           1.188
  17893017.037   -33949472.196 7 -26454110.87923        27.750           3.250
  21343356.904    -1273709.279 5   -782536.60621        10.000           0.438
  21225642.834     -353889.682 5                         7.500
  18413057.631   -30989222.215 7 -23946117.29722        21.250           2.375
 91  6  6 19 40 29.9900000  0  5G19G 2G15G13G 6
  19916027.248      583098.764 6    456918.57021        13.000           1.063
  17887327.162   -33979372.642 7 -26477409.93223        27.750           3.094
  21333466.561    -1325673.385 5   -823028.07021        10.250           0.281
  21208819.022     -442308.545 5        -0.37131         8.000           0.188
  18403322.623   -31040379.198 7 -23985979.87822        21.250           2.344
 91  6  6 19 40 44.9900000  0  5G19G 2G15G13G 6
  19917648.365      591632.318 6    463568.01621        13.250           1.156
  17881648.787   -34009215.340 7 -26500663.98323        27.750           3.156
  21323600.006    -1377545.045 5   -863447.50321        10.000           0.281
  21191996.397     -530703.489 5    -68879.26221         7.750           0.094
  18393595.350   -31091491.857 7 -24025807.91622        21.000           2.313
 91  6  6 19 40 59.9900000  0  5G19G 2G15G13G 6
  19919285.662      600221.467 6    470260.79421        13.000           1.188
  17875980.404   -34039002.678 7 -26523874.89423        27.750           3.094
  21313741.451    -1429326.195 5   -903796.41921        10.250           0.438
  21175179.022     -619076.424 5   -137741.03421         7.750           0.125
  18383877.412   -31142562.023 7 -24065602.84122        21.250           2.438
 91  6  6 19 41 14.9900000  0  5G19G 2G15G13G 6
  19920927.740      608864.526 6    476995.57021        13.500           1.125
  17870322.412   -34068736.312 7 -26547043.96023        27.750           3.156
  21303909.443    -1481018.291 5   -944075.94521        10.000           0.313
  21158367.303     -707428.523 5   -206586.57021         7.750           0.156
  18374165.592   -31193591.270 7 -24105365.88822        21.250           2.375
 91  6  6 19 41 29.9900000  0  5G19G 2G15G13G 6
  19922585.662      617565.524 6    483775.49821        13.000           1.250
  17864674.647   -34098412.214 7 -26570168.04223        27.750           3.063
  21294085.443    -1532616.976 5   -984282.66521         9.750           0.375
  21141559.631     -795755.211 5   -275412.32421         7.750           0.094
  18364465.061   -31244575.264 7 -24145093.66422        21.250           2.375
 91  6  6 19 41 44.9900000  0  5G19G 2G15G13G 6
  19924250.193      626322.773 6    490599.25321        13.500           1.094
  17859038.553   -34128032.084 7 -26593248.46523        27.500           3.094
  21284285.623    -1584123.553 5  -1024417.60421        10.250           0.313
  21124755.764     -884057.777 5   -344219.28421         7.750           0.219
  18354771.201   -31295515.412 7 -24184787.27922        21.250           2.406
 91  6  6 19 41 59.9900000  0  5G19G 2G15G13G 6
  19925928.623      635138.534 6    497468.60921        12.750           1.125
  17853412.045   -34157593.862 7 -26616283.61923        27.750           3.125
  21274504.584    -1635535.266 5  -1064478.63321        10.250           0.375
  21107955.725     -972333.757 5   -413005.49721         8.500           0.188
  18345086.147   -31346409.317 7 -24224444.85722        21.000           2.438
 91  6  6 19 42 14.9900000  0  5G19G 2G15G13G 6
  19927616.514      644009.593 6    504381.04721        13.500           1.125
  17847798.279   -34187100.732 7 -26639275.98523        27.750           3.094
  21264737.029    -1686855.197 5  -1104468.14921        10.000           0.281
  21091161.436    -1060585.887 5   -481773.18121         8.250           0.188
  18335410.264   -31397259.954 7 -24264068.72522        21.250           2.406
 91  6  6 19 42 29.9900000  0  5G19G 2G15G13G 6
  19929316.350      652937.199 6    511337.55721        12.750           1.094
  17842193.857   -34216551.388 8 -26662224.55123        28.000           3.156
  21254988.506    -1738081.629 5  -1144384.79421         9.750           0.281
  21074372.006    -1148812.370 5   -550520.84721         8.250           0.156
  18325741.787   -31448065.701 7 -24303657.60922        21.000           2.344
 91  6  6 19 42 44.9900000  0  5G19G 2G15G13G 6
  19931026.459      661921.981 6    518338.61221        13.250           1.094
  17836601.311   -34245945.089 8 -26685128.73923        28.000           3.094
  21245260.287    -1789213.429 5  -1184227.71821         9.750           0.281
  21057589.412    -1237012.231 5   -619247.81021         8.250           0.188
  18316082.076   -31498825.720 7 -24343210.86622        21.250           2.375
 91  6  6 19 42 59.9900000  0  5G19G 2G15G13G 6
  19932745.772      670962.041 6    525382.74221        13.000           0.969
  17831018.053   -34275283.847 7 -26707990.11323        27.750           3.125
  21235547.865    -1840252.264 5  -1223998.18521        10.000           0.281
  21040808.693    -1325186.808 5   -687955.04521         8.250           0.219
  18306431.240   -31549541.515 7 -24382729.66022        21.250           2.406
 91  6  6 19 43 14.9900000  0  5G19G 2G15G13G 6
  19934476.201      680057.236 6    532469.84621        13.250           1.094
  17825445.272   -34304567.770 8 -26730808.75523        28.000           3.188
  21225851.779    -1891197.632 5  -1263695.83621         9.750           0.313
  21024035.201    -1413336.055 5   -756642.58621         8.250           0.188
  18296788.451   -31600213.011 7 -24422213.93922        21.250           2.375
 91  6  6 19 43 29.9900000  0  5G19G 2G15G13G 6
  19936217.647      689207.854 6    539600.13021        13.250           1.125
  17819882.459   -34333796.490 8 -26753584.38323        28.000           3.125
  21216176.467    -1942048.955 5  -1303320.22221         9.750           0.250
  21007265.303    -1501459.219 5   -825309.81321         7.750           0.125
  18287155.459   -31650839.734 7 -24461663.33122        21.500           2.438
 91  6  6 19 43 44.9900000  0  5G19G 2G15G13G 6
  19937970.982      698417.869 6    546776.69421        13.750           1.000
  17814332.201   -34362966.051 7 -26776313.91823        27.750           3.188
  21206513.061    -1992801.813 5  -1342867.84221         9.500           0.219
  20990503.365    -1589551.791 5   -893953.15921         7.500           0.250
  18277531.568   -31701417.372 7 -24501074.47122        21.500           2.406
 91  6  6 19 43 59.9900000  0  5G19G 2G15G13G 6
  19939737.639      707680.552 6    553994.28721        12.500           1.031
  17808791.217   -34392083.178 8 -26799002.59223        28.000           3.250
  21196874.826    -2043462.654 5  -1382343.79221         9.500           0.313
  20973741.506    -1677620.009 5   -962577.58121         7.500           0.250
  18267914.967   -31751952.343 7 -24540452.36822        21.500           2.438
 91  6  6 19 44 14.9900000  0  5G19G 2G15G13G 6
  19941506.553      716997.887 6    561254.47521        13.250           1.031
  17803260.967   -34421145.953 7 -26821648.91523        27.750           3.188
  21187252.967    -2094029.055 5                         9.250
  20956988.670    -1765661.550 5  -1031181.19321         7.750           0.375
  18258307.303   -31802442.400 7                        21.750
 91  6  6 19 44 29.9900000  0  5G19G 2G15G13G 6
  19943295.498      726372.607 6    568559.37621        12.250           0.969
  17797740.725   -34450151.601 7 -26844250.72223        27.750           3.188
  21177649.545    -2144497.805 5                         9.250
  20940241.811    -1853673.032 5  -1099761.40821         7.500           0.281
  18248709.037   -31852884.463 7                        22.000
 91  6  6 19 44 44.9900000  0  5G19G 2G15G13G 6
  19945085.295      735803.797 6    575908.27621        13.000           0.938
  17792232.334   -34479101.185 7 -26866808.84223        27.750           3.281
  21168061.967    -2194869.667 5                         9.250
  20923499.264    -1941655.087 4  -1168318.70821         7.250           0.344
  18239117.881   -31903279.272 7 -24658369.44522        21.750           2.281
 91  6  6 19 44 59.9900000  0  5G19G 2G15G13G 6
  19946893.475      745292.236 6    583301.79821        12.250           0.938
  17786734.170   -34507993.877 8 -26889322.63823        28.000           3.219
  21158498.717    -2245143.499 5                         9.250
  20906763.490    -2029606.382 4  -1236852.01221         7.250           0.250
  18229537.037   -31953625.861 7 -24697600.55422        21.750           2.406
 91  6  6 19 45 14.9900000  0  5G19G 2G15G13G 6
  19948705.670      754834.175 6    590737.00021        13.000           1.000
  17781246.186   -34536833.345 7 -26911794.94723        27.750           3.219
  21148946.975    -2295322.698 5                         9.250
  20890030.748    -2117530.247 5  -1305363.97421         8.000           0.344
  18219965.193   -32003927.717 7 -24736796.80122        22.000           2.406
 91  6  6 19 45 29.9900000  0  5G19G 2G15G13G 6
  19950533.982      764431.399 6    598215.27921        13.000           0.906
  17775768.834   -34565617.777 7 -26934224.37623        27.500           3.219
  21139418.850    -2345404.972 5                         9.500
  20873305.772    -2205424.403 5  -1373852.81421         8.750           0.125
  18210401.936   -32054182.637 7 -24775956.47322        21.750           2.406
 91  6  6 19 45 44.9900000  0  5G19G 2G15G13G 6
  19952368.318      774085.003 6    605737.50021        13.000           0.969
  17770302.412   -34594346.163 8 -26956610.13423        28.000           3.250
  21129905.732    -2395388.945 5        -0.28131         9.000           0.219
  20856583.842    -2293287.357 5  -1442317.33621         8.500           0.219
  18200847.662   -32104389.269 7 -24815078.52423        21.750           2.500
 91  6  6 19 45 59.9900000  0  5G19G 2G15G13G 6
  19954217.529      783795.288 6    613303.88421        13.000           0.938
  17764846.147   -34623018.277 8 -26978952.04023        28.000           3.188
  21120412.443    -2445273.830 5    -38871.57921         8.250           0.281
  20839870.693    -2381118.373 5  -1510756.99221         8.750           0.188
  18191303.131   -32154547.009 7 -24854162.47622        21.750           2.438
 91  6  6 19 46 14.9900000  0  5G19G 2G15G13G 6
  19956076.545      793562.260 6    620914.44221        13.000           0.875
  17759400.490   -34651633.939 7 -27001249.96323        27.750           3.281
  21110939.951    -2495059.387 5    -77665.47921         9.000           0.313
  20823162.904    -2468917.132 5  -1579171.51421         8.750           0.188
  18181767.498   -32204655.648 7 -24893208.16823        22.000           2.500
 91  6  6 19 46 29.9900000  0  5G19G 2G15G13G 6
  19957949.272      803384.527 6    628568.09021        12.000           1.063
  17753965.842   -34680194.525 8 -27023504.96723        28.000           3.219
  21101484.365    -2544746.593 5   -116382.75321         8.750           0.281
  20806461.904    -2556684.470 5  -1647561.56521         9.000           0.219
  18172241.490   -32254716.205 7 -24932216.39522        22.250           2.469
 91  6  6 19 46 44.9900000  0  5G19G 2G15G13G 6
  19959826.217      813262.530 6    636265.15221        12.750           1.000
  17748541.818   -34708699.632 7 -27045716.73923        27.750           3.156
  21092047.912    -2594334.491 5   -155022.62321         9.000           0.469
  20789762.865    -2644419.493 5  -1715926.92521         8.500           0.156
  18162723.936   -32304727.977 7 -24971186.60823        22.250           2.500
 91  6  6 19 46 59.9900000  0  5G19G 2G15G13G 6
  19961721.225      823197.877 5    644006.90421        11.750           0.938
  17743127.522   -34737147.754 7 -27067884.11123        27.750           3.313
  21082633.811    -2643821.466 5   -193583.85621         9.000           0.406
  20773074.912    -2732120.269 5  -1784265.11821         8.000           0.219
  18153216.240   -32354689.210 7 -25010117.43922        22.250           2.406
 91  6  6 19 47 14.9900000  0  5G19G 2G15G13G 6
  19963616.592      833189.863 6    651792.79921        12.500           0.875
  17737724.443   -34765539.701 7 -27090007.70523        27.750           3.281
  21073233.139    -2693207.721 5   -232066.61221         9.250           0.406
  20756394.514    -2819786.936 5  -1852576.70621         8.250           0.250
  18143719.600   -32404600.263 7 -25049009.16522        22.000           2.313
 91  6  6 19 47 29.9900000  0  5G19G 2G15G13G 6
  19965531.381      843231.457 6    659617.35021        12.000           0.969
  17732331.350   -34793882.360 7 -27112092.89923        27.750           3.281
  21063854.482    -2742499.859 5   -270476.02521         9.000           0.313
  20739716.256    -2907426.109 5  -1920867.41721         8.750           0.125
  18134229.779   -32454467.805 7 -25087866.99522        22.000           2.375
 91  6  6 19 47 44.9900000  0  5G19G 2G15G13G 6
  19967449.873      853324.838 6    667482.25221        12.750           0.969
  17726947.123   -34822173.355 7 -27134137.83223        27.750           3.219
  21054493.764    -2791695.319 5   -308810.12021         9.000           0.469
  20723045.951    -2995035.209 5  -1989134.18221         9.000           0.156
  18124748.748   -32504289.356 7 -25126688.98022        22.000           2.406
 91  6  6 19 47 59.9900000  0  5G19G 2G15G13G 6
  19969382.662      863475.375 6    675391.68721        12.500           0.969
  17721575.318   -34850407.319 7 -27156138.32723        27.750           3.219
  21045149.022    -2840788.357 5   -347064.38921         9.000           0.469
  20706381.326    -3082608.414 5  -2057373.04421         8.750           0.219
  18115278.436   -32554059.251 7 -25165470.72022        21.750           2.375
 91  6  6 19 48 14.9900000  0  5G19G 2G15G13G 6
  19971322.350      873680.117 6    683343.36021        12.750           0.938
  17716212.639   -34878587.470 7 -27178096.88723        27.500           3.188
  21035829.592    -2889781.652 5   -385240.93821         9.250           0.375
  20689719.990    -3170148.216 5  -2125585.78121         9.000           0.094
  18105816.990   -32603780.370 7 -25204214.44922        22.000           2.438
 91  6  6 19 48 29.9900000  0  5G19G 2G15G13G 6
  19973273.928      883928.834 6    691329.29321        12.250           0.938
  17710858.615   -34906723.793 7 -27200021.29923        27.500           3.344
  21026518.318    -2938684.963 5   -423347.38721         9.500           0.500
  20673067.897    -3257664.287 5  -2193780.07321         9.000           0.188
  18096362.982   -32653462.449 7 -25242927.75922        22.000           2.250
 91  6  6 19 48 44.9900000  0  5G19G 2G15G13G 6
  19975232.037      894225.139 6    699352.31421        13.000           0.906
  17705513.076   -34934812.822 7 -27221908.85323        27.000           3.344
  21017234.420    -2987494.278 5   -461380.55421        10.250           0.531
  20656418.732    -3345152.727 5  -2261953.33121         9.500           0.188
  18086916.982   -32703101.726 7 -25281607.70922        22.000           2.438
 91  6  6 19 48 59.9900000  0  5G19G 2G15G13G 6
  19977202.865      904573.509 6    707415.91021        12.500           0.875
  17700177.342   -34962850.154 7 -27243756.13223        27.000           3.250
  21007961.014    -3036204.779 5   -499336.76221        10.000           0.500
  20639779.850    -3432608.396 5  -2330100.57621         9.500           0.188
  18077479.928   -32752693.358 7 -25320250.53822        22.000           2.469
 91  6  6 19 49 14.9900000  0  5G19G 2G15G13G 6
  19979181.475      914977.308 6    715522.69321        13.000           0.906
  17694852.756   -34990832.176 7 -27265560.30923        27.250           3.219
  20998712.428    -3084812.676 5   -537213.00021         9.750           0.406
  20623142.209    -3520027.526 5  -2398219.81021         8.750           0.250
  18068052.139   -32802233.610 7 -25358853.32822        21.750           2.469
 91  6  6 19 49 29.9900000  0  5G19G 2G15G13G 6
  19981173.045      925434.134 6    723670.80421        12.500           0.906
  17689538.686   -35018761.339 7 -27287323.29723        27.250           3.250
  20989483.686    -3133320.332 5   -575011.13021        10.250           0.531
  20606512.131    -3607412.266 5  -2466311.75021         8.750           0.250
  18058634.037   -32851724.709 7 -25397417.82222        21.750           2.469
 91  6  6 19 49 44.9900000  0  5G19G 2G15G13G 6
  19983172.357      935946.789 6    731862.41021        13.000           0.906
  17684234.029   -35046634.853 7 -27309042.91923        27.500           3.281
  20980270.248    -3181724.316 5   -612728.47321        10.000           0.469
  20589891.350    -3694759.216 5  -2534374.26321         8.250           0.344
  18049227.209   -32901163.498 7 -25435941.55222        22.000           2.344
 91  6  6 19 49 59.9900000  0  5G19G 2G15G13G 6
  19985184.084      946513.347 6    740096.02421        12.500           0.813
  17678939.568   -35074454.575 7 -27330720.63223        27.250           3.344
  20971081.490    -3230026.163 5   -650366.23421        10.250           0.406
  20573277.732    -3782069.847 5  -2602408.94721         8.000           0.219
  18039827.998   -32950551.641 7 -25474425.81222        22.250           2.344
 91  6  6 19 50 14.9900000  0  5G19G 2G15G13G 6
  19987204.787      957133.422 6    748371.33421        12.750           0.813
  17673655.975   -35102221.106 7 -27352356.89223        27.500           3.281
  20961909.818    -3278226.175 5   -687924.64921         9.750           0.406
  20556670.537    -3869344.337 5  -2670414.97121         8.000           0.313
  18030439.279   -32999889.268 7 -25512870.71523        22.000           2.500
 91  6  6 19 50 29.9900000  0  5G19G 2G15G13G 6
  19989237.498      967807.295 6    756688.56721        12.250           0.750
  17668383.061   -35129934.057 7 -27373951.40223        27.500           3.313
  20952755.029    -3326323.681 5   -725403.17321         9.750           0.375
  20540068.264    -3956581.730 5  -2738392.07921         8.750           0.250
  18021060.568   -33049175.898 7 -25551275.88123        22.000           2.531
 91  6  6 19 50 44.9900000  0  5G19G 2G15G13G 6
  19991275.350      978534.780 6    765047.58221        12.250           0.875
  17663120.107   -35157593.488 7 -27395504.20623        27.750           3.281
  20943620.514    -3374318.305 5   -762801.54421        10.000           0.344
  20523474.678    -4043781.813 5  -2806340.63321         9.000           0.188
  18011690.732   -33098411.194 7 -25589641.04222        22.000           2.469
 91  6  6 19 50 59.9900000  0  5G19G 2G15G13G 6
  19993326.522      989315.467 6    773448.03621        12.500           0.938
  17657866.584   -35185199.866 7 -27417015.67223        27.500           3.281
  20934508.084    -3422209.952 5   -800119.67821        10.250           0.469
  20506890.022    -4130944.435 5  -2874259.47021         9.250           0.313
  18002332.334   -33147595.193 7 -25627966.23522        22.000           2.469
 91  6  6 19 51 14.9900000  0  5G19G 2G15G13G 6
  19995388.498     1000147.988 6    781888.88221        12.000           0.813
  17652622.522   -35212754.543 7 -27438486.85723        27.500           3.344
  20925415.014    -3469999.685 5   -837358.37321        10.500           0.500
  20490309.365    -4218070.581 5  -2942149.89121         9.750           0.344
  17992980.904   -33196729.197 7 -25666252.47322        21.500           2.438
 91  6  6 19 51 29.9900000  0  5G19G 2G15G13G 6
  19997463.389     1011036.343 6    790373.24321        12.000           0.938
  17647389.600   -35240253.461 7 -27459914.59323        27.250           3.406
  20916343.107    -3517683.323 5   -874514.40921        11.000           0.438
  20473738.084    -4305155.813 5  -3010008.41521        10.500           0.250
  17983642.318   -33245808.790 7 -25704496.30923        21.500           2.500
 91  6  6 19 51 44.9900000  0  5G19G 2G15G13G 6
  19999544.490     1021978.311 6    798899.38021        12.250           0.938
  17642167.545   -35267698.726 7 -27481300.52023        27.500           3.313
  20907287.584    -3565262.564 5   -911589.09621        10.750           0.500
  20457174.123    -4392201.716 5  -3077836.31321        10.500           0.188
  17974313.076   -33294835.928 7 -25742699.27522        21.500           2.438
 91  6  6 19 51 59.9900000  0  5G19G 2G15G13G 6
  20001638.779     1032978.692 5    807471.02321        11.500           0.844
  17636955.748   -35295085.510 7 -27502640.87723        27.750           3.313
  20898255.295    -3612732.249 5   -948578.41521        10.500           0.438
  20440618.326    -4479203.006 5  -3145629.43621        10.500           0.219
  17964993.975   -33343805.442 7 -25780857.33722        21.750           2.469
 91  6  6 19 52 14.9900000  0  5G19G 2G15G13G 6
  20003738.670     1044031.094 5    816083.20521        11.750           0.938
  17631754.342   -35322420.403 7 -27523940.79823        27.500           3.344
  20889241.357    -3660098.415 5   -985487.09121        10.500           0.344
  20424069.732    -4566165.772 5  -3213392.52521        10.000           0.156
  17955684.693   -33392723.449 7 -25818975.26222        21.500           2.406
 91  6  6 19 52 29.9900000  0  5G19G 2G15G13G 6
  20005854.240     1055134.300 5    824734.97621        11.750           0.875
  17626561.850   -35349704.530 7 -27545201.16323        27.500           3.344
  20880246.272    -3707361.978 5  -1022315.79821        10.000           0.344
  20407527.936    -4653090.830 5  -3281126.23821        10.000           0.219
  17946385.061   -33441591.038 7 -25857053.90122        21.750           2.469
 91  6  6 19 52 44.9900000  0  5G19G 2G15G13G 6
  20007976.709     1066291.958 6    833429.18021        12.000           0.906
  17621380.115   -35376934.324 7 -27566419.19223        27.500           3.281
  20871272.779    -3754519.079 5  -1059061.54721        10.250           0.469
  20390993.514    -4739974.226 5  -3348827.44221         9.750           0.344
  17937097.311   -33490404.168 7 -25895090.10323        21.750           2.500
 91  6  6 19 52 59.9900000  0  5G19G 2G15G13G 6
  20010112.084     1077497.822 5    842160.94621        11.500           0.875
  17616208.256   -35404115.873 7 -27587599.62523        27.750           3.313
  20862317.443    -3801575.504 5  -1095728.84721        10.250           0.375
  20374467.631    -4826821.550 5  -3416500.54721         9.250           0.313
  17927818.381   -33539168.710 7 -25933088.44123        21.500           2.563
 91  6  6 19 53 14.9900000  0  5G19G 2G15G13G 6
  20012250.904     1088755.443 6    850933.03921        12.000           0.844
  17611045.607   -35431245.711 7 -27608739.76523        27.500           3.375
  20853381.193    -3848527.106 5  -1132314.46821        10.250           0.469
  20357947.600    -4913628.724 5  -3484142.34021         9.500           0.344
  17918547.857   -33587880.754 7 -25971045.87222        21.500           2.469
 91  6  6 19 53 29.9900000  0  5G19G 2G15G13G 6
  20014403.147     1100067.707 5    859747.72321        11.500           0.938
  17605893.217   -35458321.024 7 -27629837.41323        27.500           3.344
  20844467.834    -3895370.940 5  -1168816.12021        10.750           0.500
  20341437.709    -5000392.644 5  -3551750.42921         9.500           0.250
  17909289.061   -33636537.344 7 -26008960.09122        21.250           2.469
 91  6  6 19 53 44.9890000  0  5G19G 2G15G13G 6
  20016566.048     1111431.457 6    868602.52821        12.000           0.938
  17600751.345   -35485342.343 7 -27650892.99623        27.500           3.344
  20835576.517    -3942106.116 5  -1205233.10021        10.750           0.500
  20324936.501    -5087109.516 5  -3619321.88521         9.250           0.344
  17900040.056   -33685137.364 7 -26046830.22723        21.250           2.531
 91  6  6 19 53 59.9890000  0  5G19G 2G15G13G 6
  20018742.657     1122849.977 5    877500.00621        11.500           0.938
  17595618.712   -35512311.273 7 -27671907.74823        27.500           3.250
  20826704.470    -3988736.549 5  -1241568.45821        11.000           0.375
  20308441.517    -5173788.635 5  -3686863.89321         9.250           0.281
  17890801.079   -33733685.053 7 -26084659.58823        21.250           2.563
 91  6  6 19 54 14.9890000  0  5G19G 2G15G13G 6
  20020922.907     1134321.375 5    886438.67121        11.500           0.938
  17590497.103   -35539227.187 8 -27692881.19123        28.000           3.281
  20817848.189    -4035259.653 5  -1277820.18021        11.250           0.500
  20291953.657    -5260424.745 5  -3754372.38221         9.250           0.281
  17881574.759   -33782177.937 7 -26122446.24223        21.250           2.531
 91  6  6 19 54 29.9890000  0  5G19G 2G15G13G 6
  20023118.095     1145844.963 5    895418.01021        11.000           1.000
  17585385.259   -35566090.687 7 -27713813.79123        27.750           3.375
  20809014.978    -4081675.789 5  -1313988.55821        10.750           0.500
  20275476.267    -5347017.813 5  -3821847.83821         9.250           0.219
  17872356.845   -33830616.279 7 -26160190.39423        21.250           2.594
 91  6  6 19 54 44.9890000  0  5G19G 2G15G13G 6
  20025316.032     1157414.711 5    904433.32821        11.500           0.906
  17580282.595   -35592907.876 7 -27734710.30623        27.750           3.406
  20800204.564    -4127990.901 5  -1350078.18721        11.250           0.438
  20259006.931    -5433573.804 5  -3889293.88721         9.500           0.250
  17863147.478   -33879006.091 7 -26197896.73523        21.250           2.531
 91  6  6 19 54 59.9890000  0  5G19G 2G15G13G 6
  20027527.642     1169036.496 5    913489.18321        11.000           0.875
  17575189.337   -35619672.890 7 -27755566.16523        27.500           3.250
  20791408.868    -4174198.454 5  -1386084.03821        11.000           0.406
  20242542.454    -5520086.336 5  -3956706.08821         9.750           0.281
  17853951.853   -33927341.107 7 -26235560.37823        21.500           2.594
